<?xml version='1.0' encoding='UTF-8'?><gpx version="1.1" creator="JPX - https://github.com/jenetics/jpx" xmlns="http://www.topografix.com/GPX/1/1"><trk><trkseg><trkpt lat="40.5046462" lon="9.6410457"><ele>143.0</ele><time>2026-04-24T09:43:52.841Z</time></trkpt><trkpt lat="40.5046874" lon="9.6409723"><ele>143.0</ele><time>2026-04-24T09:44:03.843Z</time></trkpt><trkpt lat="40.5047322" lon="9.6409122"><ele>143.0</ele><time>2026-04-24T09:44:05.731Z</time></trkpt><trkpt lat="40.5048027" lon="9.6408432"><ele>143.0</ele><time>2026-04-24T09:44:07.767Z</time></trkpt><trkpt lat="40.5048614" lon="9.6407978"><ele>143.0</ele><time>2026-04-24T09:44:08.842Z</time></trkpt><trkpt lat="40.504931" lon="9.6407173"><ele>143.0</ele><time>2026-04-24T09:44:10.842Z</time></trkpt><trkpt lat="40.5049971" lon="9.6406375"><ele>143.0</ele><time>2026-04-24T09:44:12.841Z</time></trkpt><trkpt lat="40.5050554" lon="9.6405676"><ele>143.0</ele><time>2026-04-24T09:44:14.841Z</time></trkpt><trkpt lat="40.5051196" lon="9.6404987"><ele>143.0</ele><time>2026-04-24T09:44:16.841Z</time></trkpt><trkpt lat="40.5051862" lon="9.6404232"><ele>143.0</ele><time>2026-04-24T09:44:18.841Z</time></trkpt><trkpt lat="40.5052576" lon="9.6403541"><ele>143.0</ele><time>2026-04-24T09:44:20.842Z</time></trkpt><trkpt lat="40.5053288" lon="9.640271"><ele>143.0</ele><time>2026-04-24T09:44:22.842Z</time></trkpt><trkpt lat="40.5054057" lon="9.6401955"><ele>142.16666666666666</ele><time>2026-04-24T09:44:24.843Z</time></trkpt><trkpt lat="40.5054949" lon="9.6401215"><ele>141.33333333333331</ele><time>2026-04-24T09:44:26.842Z</time></trkpt><trkpt lat="40.5055986" lon="9.6400362"><ele>140.5</ele><time>2026-04-24T09:44:28.842Z</time></trkpt><trkpt lat="40.5056563" lon="9.6399965"><ele>139.66666666666666</ele><time>2026-04-24T09:44:29.841Z</time></trkpt><trkpt lat="40.5057132" lon="9.6399564"><ele>138.83333333333334</ele><time>2026-04-24T09:44:30.841Z</time></trkpt><trkpt lat="40.5057701" lon="9.6399087"><ele>138.0</ele><time>2026-04-24T09:44:31.843Z</time></trkpt><trkpt lat="40.5058334" lon="9.6398598"><ele>138.0</ele><time>2026-04-24T09:44:32.842Z</time></trkpt><trkpt lat="40.5058974" lon="9.6398134"><ele>138.0</ele><time>2026-04-24T09:44:33.841Z</time></trkpt><trkpt lat="40.5059619" lon="9.6397619"><ele>138.0</ele><time>2026-04-24T09:44:34.842Z</time></trkpt><trkpt lat="40.5060291" lon="9.6397096"><ele>138.0</ele><time>2026-04-24T09:44:35.841Z</time></trkpt><trkpt lat="40.5060989" lon="9.639661"><ele>138.0</ele><time>2026-04-24T09:44:36.842Z</time></trkpt><trkpt lat="40.5061698" lon="9.6396129"><ele>138.0</ele><time>2026-04-24T09:44:37.841Z</time></trkpt><trkpt lat="40.5062417" lon="9.6395598"><ele>137.16666666666666</ele><time>2026-04-24T09:44:38.842Z</time></trkpt><trkpt lat="40.5063146" lon="9.6395044"><ele>136.33333333333334</ele><time>2026-04-24T09:44:39.842Z</time></trkpt><trkpt lat="40.5063895" lon="9.6394487"><ele>135.5</ele><time>2026-04-24T09:44:40.842Z</time></trkpt><trkpt lat="40.5064641" lon="9.6393922"><ele>134.66666666666669</ele><time>2026-04-24T09:44:41.841Z</time></trkpt><trkpt lat="40.5065408" lon="9.6393329"><ele>133.83333333333334</ele><time>2026-04-24T09:44:42.841Z</time></trkpt><trkpt lat="40.5066183" lon="9.6392714"><ele>133.0</ele><time>2026-04-24T09:44:43.842Z</time></trkpt><trkpt lat="40.5066979" lon="9.6392123"><ele>132.66666666666669</ele><time>2026-04-24T09:44:44.841Z</time></trkpt><trkpt lat="40.5067794" lon="9.6391553"><ele>132.33333333333334</ele><time>2026-04-24T09:44:45.843Z</time></trkpt><trkpt lat="40.5068606" lon="9.6390957"><ele>132.0</ele><time>2026-04-24T09:44:46.841Z</time></trkpt><trkpt lat="40.5069354" lon="9.6390351"><ele>131.66666666666666</ele><time>2026-04-24T09:44:47.842Z</time></trkpt><trkpt lat="40.5070043" lon="9.6389821"><ele>131.33333333333331</ele><time>2026-04-24T09:44:48.842Z</time></trkpt><trkpt lat="40.5070659" lon="9.6389392"><ele>131.0</ele><time>2026-04-24T09:44:49.842Z</time></trkpt><trkpt lat="40.5071751" lon="9.6388669"><ele>130.28571428571428</ele><time>2026-04-24T09:44:51.842Z</time></trkpt><trkpt lat="40.5072302" lon="9.6388245"><ele>129.57142857142858</ele><time>2026-04-24T09:44:52.842Z</time></trkpt><trkpt lat="40.5072878" lon="9.6387818"><ele>128.85714285714286</ele><time>2026-04-24T09:44:53.841Z</time></trkpt><trkpt lat="40.5073463" lon="9.6387367"><ele>128.14285714285714</ele><time>2026-04-24T09:44:54.842Z</time></trkpt><trkpt lat="40.5074058" lon="9.638689"><ele>127.42857142857143</ele><time>2026-04-24T09:44:55.841Z</time></trkpt><trkpt lat="40.507468" lon="9.6386438"><ele>126.71428571428572</ele><time>2026-04-24T09:44:56.842Z</time></trkpt><trkpt lat="40.5075298" lon="9.6385954"><ele>126.0</ele><time>2026-04-24T09:44:57.841Z</time></trkpt><trkpt lat="40.5075929" lon="9.6385423"><ele>126.0</ele><time>2026-04-24T09:44:58.843Z</time></trkpt><trkpt lat="40.5076571" lon="9.6384912"><ele>126.0</ele><time>2026-04-24T09:44:59.842Z</time></trkpt><trkpt lat="40.5077248" lon="9.6384471"><ele>126.0</ele><time>2026-04-24T09:45:00.842Z</time></trkpt><trkpt lat="40.5077888" lon="9.6384015"><ele>126.0</ele><time>2026-04-24T09:45:01.841Z</time></trkpt><trkpt lat="40.507848" lon="9.638358"><ele>126.0</ele><time>2026-04-24T09:45:02.842Z</time></trkpt><trkpt lat="40.5079333" lon="9.6382894"><ele>126.0</ele><time>2026-04-24T09:45:04.842Z</time></trkpt><trkpt lat="40.5080123" lon="9.6382371"><ele>124.6</ele><time>2026-04-24T09:45:06.841Z</time></trkpt><trkpt lat="40.5080946" lon="9.6381654"><ele>123.19999999999999</ele><time>2026-04-24T09:45:08.842Z</time></trkpt><trkpt lat="40.5081544" lon="9.6380784"><ele>121.80000000000001</ele><time>2026-04-24T09:45:10.841Z</time></trkpt><trkpt lat="40.5082149" lon="9.6379824"><ele>120.4</ele><time>2026-04-24T09:45:12.841Z</time></trkpt><trkpt lat="40.5082711" lon="9.6378596"><ele>119.0</ele><time>2026-04-24T09:45:14.843Z</time></trkpt><trkpt lat="40.5083071" lon="9.6377123"><ele>118.25</ele><time>2026-04-24T09:45:16.843Z</time></trkpt><trkpt lat="40.5083492" lon="9.6375641"><ele>117.5</ele><time>2026-04-24T09:45:18.843Z</time></trkpt><trkpt lat="40.5083856" lon="9.6374153"><ele>116.75</ele><time>2026-04-24T09:45:20.841Z</time></trkpt><trkpt lat="40.5084107" lon="9.63727"><ele>116.0</ele><time>2026-04-24T09:45:22.842Z</time></trkpt><trkpt lat="40.5084339" lon="9.6371331"><ele>116.0</ele><time>2026-04-24T09:45:24.843Z</time></trkpt><trkpt lat="40.5084612" lon="9.6369988"><ele>116.0</ele><time>2026-04-24T09:45:26.841Z</time></trkpt><trkpt lat="40.5084852" lon="9.6368797"><ele>116.0</ele><time>2026-04-24T09:45:28.841Z</time></trkpt><trkpt lat="40.5085009" lon="9.6367618"><ele>116.0</ele><time>2026-04-24T09:45:30.841Z</time></trkpt><trkpt lat="40.5085043" lon="9.6366383"><ele>116.0</ele><time>2026-04-24T09:45:32.841Z</time></trkpt><trkpt lat="40.5084932" lon="9.6365149"><ele>115.33333333333333</ele><time>2026-04-24T09:45:34.842Z</time></trkpt><trkpt lat="40.5084776" lon="9.6363993"><ele>114.66666666666666</ele><time>2026-04-24T09:45:36.843Z</time></trkpt><trkpt lat="40.5084443" lon="9.6362959"><ele>114.0</ele><time>2026-04-24T09:45:38.841Z</time></trkpt><trkpt lat="40.5084099" lon="9.6361965"><ele>113.33333333333334</ele><time>2026-04-24T09:45:40.842Z</time></trkpt><trkpt lat="40.5083711" lon="9.6361055"><ele>112.66666666666667</ele><time>2026-04-24T09:45:42.842Z</time></trkpt><trkpt lat="40.5083407" lon="9.6360119"><ele>112.0</ele><time>2026-04-24T09:45:44.842Z</time></trkpt><trkpt lat="40.5083122" lon="9.6359197"><ele>112.0</ele><time>2026-04-24T09:45:46.842Z</time></trkpt><trkpt lat="40.5082759" lon="9.6358239"><ele>112.0</ele><time>2026-04-24T09:45:48.842Z</time></trkpt><trkpt lat="40.5082531" lon="9.6357267"><ele>112.0</ele><time>2026-04-24T09:45:50.842Z</time></trkpt><trkpt lat="40.5082206" lon="9.6356393"><ele>112.0</ele><time>2026-04-24T09:45:52.841Z</time></trkpt><trkpt lat="40.5081854" lon="9.6355584"><ele>112.0</ele><time>2026-04-24T09:45:54.841Z</time></trkpt><trkpt lat="40.508153" lon="9.6354773"><ele>112.0</ele><time>2026-04-24T09:45:56.841Z</time></trkpt><trkpt lat="40.5081255" lon="9.6353923"><ele>112.0</ele><time>2026-04-24T09:45:58.842Z</time></trkpt><trkpt lat="40.5080893" lon="9.6353151"><ele>112.50000000000001</ele><time>2026-04-24T09:46:00.802Z</time></trkpt><trkpt lat="40.5080705" lon="9.6352276"><ele>113.0</ele><time>2026-04-24T09:46:02.742Z</time></trkpt><trkpt lat="40.5080475" lon="9.6351252"><ele>113.5</ele><time>2026-04-24T09:46:04.842Z</time></trkpt><trkpt lat="40.5080121" lon="9.6350412"><ele>114.0</ele><time>2026-04-24T09:46:06.733Z</time></trkpt><trkpt lat="40.5079737" lon="9.6349588"><ele>114.50000000000001</ele><time>2026-04-24T09:46:08.841Z</time></trkpt><trkpt lat="40.5079274" lon="9.6348507"><ele>115.0</ele><time>2026-04-24T09:46:11.841Z</time></trkpt><trkpt lat="40.5079025" lon="9.6347676"><ele>115.42857142857142</ele><time>2026-04-24T09:46:13.841Z</time></trkpt><trkpt lat="40.5078799" lon="9.6346793"><ele>115.85714285714286</ele><time>2026-04-24T09:46:15.842Z</time></trkpt><trkpt lat="40.5078518" lon="9.6345939"><ele>116.28571428571428</ele><time>2026-04-24T09:46:17.842Z</time></trkpt><trkpt lat="40.5078223" lon="9.6345068"><ele>116.71428571428571</ele><time>2026-04-24T09:46:19.841Z</time></trkpt><trkpt lat="40.5077965" lon="9.634417"><ele>117.14285714285714</ele><time>2026-04-24T09:46:21.841Z</time></trkpt><trkpt lat="40.5077721" lon="9.6343252"><ele>117.57142857142857</ele><time>2026-04-24T09:46:23.842Z</time></trkpt><trkpt lat="40.5077383" lon="9.6342388"><ele>118.0</ele><time>2026-04-24T09:46:25.781Z</time></trkpt><trkpt lat="40.5076862" lon="9.6341609"><ele>118.00000000000001</ele><time>2026-04-24T09:46:27.781Z</time></trkpt><trkpt lat="40.5076713" lon="9.6340551"><ele>118.0</ele><time>2026-04-24T09:46:29.841Z</time></trkpt><trkpt lat="40.5076431" lon="9.6339456"><ele>118.0</ele><time>2026-04-24T09:46:31.841Z</time></trkpt><trkpt lat="40.5076003" lon="9.6338419"><ele>118.0</ele><time>2026-04-24T09:46:33.842Z</time></trkpt><trkpt lat="40.5075644" lon="9.6337366"><ele>118.00000000000001</ele><time>2026-04-24T09:46:35.841Z</time></trkpt><trkpt lat="40.5075389" lon="9.6336178"><ele>118.0</ele><time>2026-04-24T09:46:37.842Z</time></trkpt><trkpt lat="40.5075329" lon="9.6334968"><ele>117.0</ele><time>2026-04-24T09:46:39.842Z</time></trkpt><trkpt lat="40.5075556" lon="9.6333581"><ele>116.00000000000001</ele><time>2026-04-24T09:46:41.841Z</time></trkpt><trkpt lat="40.507617" lon="9.6332229"><ele>115.00000000000001</ele><time>2026-04-24T09:46:43.842Z</time></trkpt><trkpt lat="40.5076875" lon="9.6330863"><ele>114.0</ele><time>2026-04-24T09:46:45.842Z</time></trkpt><trkpt lat="40.5077251" lon="9.633018"><ele>113.0</ele><time>2026-04-24T09:46:46.842Z</time></trkpt><trkpt lat="40.5077668" lon="9.6329479"><ele>113.0</ele><time>2026-04-24T09:46:47.842Z</time></trkpt><trkpt lat="40.5078139" lon="9.632881"><ele>113.0</ele><time>2026-04-24T09:46:48.842Z</time></trkpt><trkpt lat="40.5078612" lon="9.6328131"><ele>113.0</ele><time>2026-04-24T09:46:49.842Z</time></trkpt><trkpt lat="40.5079069" lon="9.6327391"><ele>113.0</ele><time>2026-04-24T09:46:50.842Z</time></trkpt><trkpt lat="40.5079508" lon="9.6326641"><ele>113.0</ele><time>2026-04-24T09:46:51.841Z</time></trkpt><trkpt lat="40.5079989" lon="9.6325934"><ele>113.0</ele><time>2026-04-24T09:46:52.841Z</time></trkpt><trkpt lat="40.5080511" lon="9.6325243"><ele>113.0</ele><time>2026-04-24T09:46:53.842Z</time></trkpt><trkpt lat="40.5081035" lon="9.6324528"><ele>111.66666666666666</ele><time>2026-04-24T09:46:54.842Z</time></trkpt><trkpt lat="40.5081544" lon="9.6323764"><ele>110.33333333333333</ele><time>2026-04-24T09:46:55.841Z</time></trkpt><trkpt lat="40.5082055" lon="9.6322975"><ele>109.0</ele><time>2026-04-24T09:46:56.842Z</time></trkpt><trkpt lat="40.5082556" lon="9.6322232"><ele>107.66666666666666</ele><time>2026-04-24T09:46:57.842Z</time></trkpt><trkpt lat="40.508302" lon="9.6321588"><ele>106.33333333333333</ele><time>2026-04-24T09:46:58.842Z</time></trkpt><trkpt lat="40.5083461" lon="9.6320981"><ele>105.0</ele><time>2026-04-24T09:46:59.841Z</time></trkpt><trkpt lat="40.5084335" lon="9.6319922"><ele>104.2</ele><time>2026-04-24T09:47:01.841Z</time></trkpt><trkpt lat="40.5085186" lon="9.6318871"><ele>103.4</ele><time>2026-04-24T09:47:03.842Z</time></trkpt><trkpt lat="40.5085997" lon="9.6317781"><ele>102.6</ele><time>2026-04-24T09:47:05.842Z</time></trkpt><trkpt lat="40.5086897" lon="9.6316553"><ele>101.8</ele><time>2026-04-24T09:47:07.842Z</time></trkpt><trkpt lat="40.5087403" lon="9.6315912"><ele>101.0</ele><time>2026-04-24T09:47:08.841Z</time></trkpt><trkpt lat="40.5087895" lon="9.6315269"><ele>99.8</ele><time>2026-04-24T09:47:09.842Z</time></trkpt><trkpt lat="40.5088353" lon="9.6314676"><ele>98.6</ele><time>2026-04-24T09:47:10.842Z</time></trkpt><trkpt lat="40.5089208" lon="9.6313595"><ele>97.4</ele><time>2026-04-24T09:47:12.843Z</time></trkpt><trkpt lat="40.5090085" lon="9.6312564"><ele>96.2</ele><time>2026-04-24T09:47:14.841Z</time></trkpt><trkpt lat="40.5091008" lon="9.6311428"><ele>95.0</ele><time>2026-04-24T09:47:16.841Z</time></trkpt><trkpt lat="40.5091522" lon="9.6310833"><ele>94.66666666666667</ele><time>2026-04-24T09:47:17.842Z</time></trkpt><trkpt lat="40.5092049" lon="9.6310203"><ele>94.33333333333334</ele><time>2026-04-24T09:47:18.842Z</time></trkpt><trkpt lat="40.5092558" lon="9.6309488"><ele>94.0</ele><time>2026-04-24T09:47:19.842Z</time></trkpt><trkpt lat="40.509308" lon="9.6308777"><ele>93.66666666666667</ele><time>2026-04-24T09:47:20.841Z</time></trkpt><trkpt lat="40.5093652" lon="9.630808"><ele>93.33333333333333</ele><time>2026-04-24T09:47:21.843Z</time></trkpt><trkpt lat="40.5094256" lon="9.6307391"><ele>93.0</ele><time>2026-04-24T09:47:22.843Z</time></trkpt><trkpt lat="40.5094874" lon="9.6306665"><ele>93.0</ele><time>2026-04-24T09:47:23.842Z</time></trkpt><trkpt lat="40.509549" lon="9.6305894"><ele>93.0</ele><time>2026-04-24T09:47:24.842Z</time></trkpt><trkpt lat="40.5096114" lon="9.630513"><ele>93.0</ele><time>2026-04-24T09:47:25.842Z</time></trkpt><trkpt lat="40.5096723" lon="9.6304437"><ele>93.0</ele><time>2026-04-24T09:47:26.841Z</time></trkpt><trkpt lat="40.5097245" lon="9.6303849"><ele>93.0</ele><time>2026-04-24T09:47:27.843Z</time></trkpt><trkpt lat="40.5097729" lon="9.6303283"><ele>93.0</ele><time>2026-04-24T09:47:28.841Z</time></trkpt><trkpt lat="40.5098612" lon="9.6302108"><ele>91.83333333333333</ele><time>2026-04-24T09:47:30.842Z</time></trkpt><trkpt lat="40.5099071" lon="9.6301474"><ele>90.66666666666667</ele><time>2026-04-24T09:47:31.843Z</time></trkpt><trkpt lat="40.5099567" lon="9.6300896"><ele>89.5</ele><time>2026-04-24T09:47:32.842Z</time></trkpt><trkpt lat="40.5100323" lon="9.6299907"><ele>88.33333333333334</ele><time>2026-04-24T09:47:34.843Z</time></trkpt><trkpt lat="40.5101059" lon="9.6299077"><ele>87.16666666666667</ele><time>2026-04-24T09:47:36.842Z</time></trkpt><trkpt lat="40.5101738" lon="9.629829"><ele>86.0</ele><time>2026-04-24T09:47:38.842Z</time></trkpt><trkpt lat="40.5102276" lon="9.6297283"><ele>86.0</ele><time>2026-04-24T09:47:40.841Z</time></trkpt><trkpt lat="40.5102273" lon="9.6295973"><ele>86.0</ele><time>2026-04-24T09:47:42.841Z</time></trkpt><trkpt lat="40.5101631" lon="9.6295049"><ele>86.0</ele><time>2026-04-24T09:47:44.842Z</time></trkpt><trkpt lat="40.5100742" lon="9.6294689"><ele>86.0</ele><time>2026-04-24T09:47:46.842Z</time></trkpt><trkpt lat="40.5099941" lon="9.6294444"><ele>86.0</ele><time>2026-04-24T09:47:48.842Z</time></trkpt><trkpt lat="40.5099128" lon="9.6294187"><ele>85.83333333333334</ele><time>2026-04-24T09:47:50.843Z</time></trkpt><trkpt lat="40.5098382" lon="9.6294228"><ele>85.66666666666667</ele><time>2026-04-24T09:47:52.841Z</time></trkpt><trkpt lat="40.5097645" lon="9.629388"><ele>85.5</ele><time>2026-04-24T09:47:54.842Z</time></trkpt><trkpt lat="40.5096945" lon="9.6293461"><ele>85.33333333333333</ele><time>2026-04-24T09:47:56.841Z</time></trkpt><trkpt lat="40.5096199" lon="9.6293239"><ele>85.16666666666666</ele><time>2026-04-24T09:47:58.841Z</time></trkpt><trkpt lat="40.5095487" lon="9.629304"><ele>85.0</ele><time>2026-04-24T09:48:00.842Z</time></trkpt><trkpt lat="40.5094745" lon="9.629306"><ele>85.33333333333333</ele><time>2026-04-24T09:48:02.841Z</time></trkpt><trkpt lat="40.5094017" lon="9.629299"><ele>85.66666666666666</ele><time>2026-04-24T09:48:04.805Z</time></trkpt><trkpt lat="40.5093268" lon="9.6292707"><ele>86.0</ele><time>2026-04-24T09:48:06.841Z</time></trkpt><trkpt lat="40.5092505" lon="9.6292548"><ele>86.33333333333333</ele><time>2026-04-24T09:48:08.78Z</time></trkpt><trkpt lat="40.5091677" lon="9.6292323"><ele>86.66666666666667</ele><time>2026-04-24T09:48:10.841Z</time></trkpt><trkpt lat="40.5090848" lon="9.6292111"><ele>87.0</ele><time>2026-04-24T09:48:12.841Z</time></trkpt><trkpt lat="40.5090009" lon="9.6291944"><ele>87.0</ele><time>2026-04-24T09:48:14.842Z</time></trkpt><trkpt lat="40.5089204" lon="9.6291812"><ele>87.0</ele><time>2026-04-24T09:48:16.841Z</time></trkpt><trkpt lat="40.5088442" lon="9.6291606"><ele>87.0</ele><time>2026-04-24T09:48:18.741Z</time></trkpt><trkpt lat="40.5087616" lon="9.6291272"><ele>87.0</ele><time>2026-04-24T09:48:20.841Z</time></trkpt><trkpt lat="40.5086845" lon="9.6290863"><ele>87.0</ele><time>2026-04-24T09:48:22.842Z</time></trkpt><trkpt lat="40.5086152" lon="9.6290256"><ele>87.0</ele><time>2026-04-24T09:48:24.842Z</time></trkpt><trkpt lat="40.5085485" lon="9.6289612"><ele>86.83333333333333</ele><time>2026-04-24T09:48:26.843Z</time></trkpt><trkpt lat="40.508485" lon="9.6288912"><ele>86.66666666666667</ele><time>2026-04-24T09:48:28.842Z</time></trkpt><trkpt lat="40.5084175" lon="9.6288162"><ele>86.5</ele><time>2026-04-24T09:48:30.841Z</time></trkpt><trkpt lat="40.5083537" lon="9.6287372"><ele>86.33333333333334</ele><time>2026-04-24T09:48:32.841Z</time></trkpt><trkpt lat="40.508296" lon="9.628655"><ele>86.16666666666667</ele><time>2026-04-24T09:48:34.842Z</time></trkpt><trkpt lat="40.5082356" lon="9.6285796"><ele>86.0</ele><time>2026-04-24T09:48:36.841Z</time></trkpt><trkpt lat="40.5081841" lon="9.6284909"><ele>86.0</ele><time>2026-04-24T09:48:38.841Z</time></trkpt><trkpt lat="40.5081309" lon="9.6283997"><ele>86.0</ele><time>2026-04-24T09:48:40.842Z</time></trkpt><trkpt lat="40.508068" lon="9.6283263"><ele>86.0</ele><time>2026-04-24T09:48:42.842Z</time></trkpt><trkpt lat="40.5080084" lon="9.6282489"><ele>86.0</ele><time>2026-04-24T09:48:44.842Z</time></trkpt><trkpt lat="40.5079485" lon="9.6281728"><ele>86.0</ele><time>2026-04-24T09:48:46.842Z</time></trkpt><trkpt lat="40.5078934" lon="9.628089"><ele>86.0</ele><time>2026-04-24T09:48:48.842Z</time></trkpt><trkpt lat="40.5078323" lon="9.6280065"><ele>87.0</ele><time>2026-04-24T09:48:50.842Z</time></trkpt><trkpt lat="40.5077701" lon="9.6279342"><ele>88.0</ele><time>2026-04-24T09:48:52.841Z</time></trkpt><trkpt lat="40.5077155" lon="9.6278528"><ele>89.0</ele><time>2026-04-24T09:48:54.842Z</time></trkpt><trkpt lat="40.5076642" lon="9.6277764"><ele>90.0</ele><time>2026-04-24T09:48:56.841Z</time></trkpt><trkpt lat="40.5076088" lon="9.6277075"><ele>91.0</ele><time>2026-04-24T09:48:58.842Z</time></trkpt><trkpt lat="40.5075635" lon="9.6276286"><ele>92.0</ele><time>2026-04-24T09:49:00.843Z</time></trkpt><trkpt lat="40.5075135" lon="9.6275565"><ele>92.0</ele><time>2026-04-24T09:49:02.841Z</time></trkpt><trkpt lat="40.5074392" lon="9.6274795"><ele>92.0</ele><time>2026-04-24T09:49:05.842Z</time></trkpt><trkpt lat="40.5073936" lon="9.6274031"><ele>92.0</ele><time>2026-04-24T09:49:07.842Z</time></trkpt><trkpt lat="40.507341" lon="9.627317"><ele>92.0</ele><time>2026-04-24T09:49:09.842Z</time></trkpt><trkpt lat="40.5072887" lon="9.6272409"><ele>92.0</ele><time>2026-04-24T09:49:11.841Z</time></trkpt><trkpt lat="40.5072228" lon="9.6271759"><ele>92.0</ele><time>2026-04-24T09:49:13.841Z</time></trkpt><trkpt lat="40.5071647" lon="9.6270949"><ele>92.0</ele><time>2026-04-24T09:49:15.842Z</time></trkpt><trkpt lat="40.5071139" lon="9.6270042"><ele>92.0</ele><time>2026-04-24T09:49:17.841Z</time></trkpt><trkpt lat="40.5070643" lon="9.626912"><ele>92.0</ele><time>2026-04-24T09:49:19.842Z</time></trkpt><trkpt lat="40.5070114" lon="9.6268271"><ele>92.0</ele><time>2026-04-24T09:49:21.803Z</time></trkpt><trkpt lat="40.5069398" lon="9.6267568"><ele>92.0</ele><time>2026-04-24T09:49:23.842Z</time></trkpt><trkpt lat="40.5068744" lon="9.6266854"><ele>92.0</ele><time>2026-04-24T09:49:25.814Z</time></trkpt><trkpt lat="40.5068106" lon="9.626605"><ele>91.83333333333334</ele><time>2026-04-24T09:49:27.841Z</time></trkpt><trkpt lat="40.5067521" lon="9.62652"><ele>91.66666666666667</ele><time>2026-04-24T09:49:29.841Z</time></trkpt><trkpt lat="40.5066927" lon="9.6264349"><ele>91.5</ele><time>2026-04-24T09:49:31.841Z</time></trkpt><trkpt lat="40.5066316" lon="9.6263534"><ele>91.33333333333333</ele><time>2026-04-24T09:49:33.842Z</time></trkpt><trkpt lat="40.5065755" lon="9.6262705"><ele>91.16666666666666</ele><time>2026-04-24T09:49:35.802Z</time></trkpt><trkpt lat="40.5065102" lon="9.626188"><ele>91.0</ele><time>2026-04-24T09:49:37.842Z</time></trkpt><trkpt lat="40.5064531" lon="9.6260994"><ele>91.0</ele><time>2026-04-24T09:49:39.841Z</time></trkpt><trkpt lat="40.5064031" lon="9.6260064"><ele>91.0</ele><time>2026-04-24T09:49:41.842Z</time></trkpt><trkpt lat="40.506345" lon="9.6259219"><ele>91.0</ele><time>2026-04-24T09:49:43.843Z</time></trkpt><trkpt lat="40.5062706" lon="9.6258585"><ele>91.0</ele><time>2026-04-24T09:49:45.842Z</time></trkpt><trkpt lat="40.5062238" lon="9.6257601"><ele>91.0</ele><time>2026-04-24T09:49:47.841Z</time></trkpt><trkpt lat="40.5061659" lon="9.6256769"><ele>91.0</ele><time>2026-04-24T09:49:49.841Z</time></trkpt><trkpt lat="40.5060992" lon="9.6256078"><ele>91.16666666666666</ele><time>2026-04-24T09:49:51.803Z</time></trkpt><trkpt lat="40.5060256" lon="9.625539"><ele>91.33333333333333</ele><time>2026-04-24T09:49:53.841Z</time></trkpt><trkpt lat="40.5059708" lon="9.6254473"><ele>91.5</ele><time>2026-04-24T09:49:55.841Z</time></trkpt><trkpt lat="40.5059315" lon="9.625343"><ele>91.66666666666667</ele><time>2026-04-24T09:49:57.841Z</time></trkpt><trkpt lat="40.5058768" lon="9.6252563"><ele>91.83333333333334</ele><time>2026-04-24T09:49:59.841Z</time></trkpt><trkpt lat="40.505812" lon="9.6251788"><ele>92.0</ele><time>2026-04-24T09:50:01.841Z</time></trkpt><trkpt lat="40.5057527" lon="9.6250986"><ele>92.5</ele><time>2026-04-24T09:50:03.842Z</time></trkpt><trkpt lat="40.505697" lon="9.6250155"><ele>93.0</ele><time>2026-04-24T09:50:05.842Z</time></trkpt><trkpt lat="40.5056348" lon="9.6249397"><ele>93.5</ele><time>2026-04-24T09:50:07.841Z</time></trkpt><trkpt lat="40.5055723" lon="9.6248691"><ele>94.0</ele><time>2026-04-24T09:50:09.842Z</time></trkpt><trkpt lat="40.5055108" lon="9.6248018"><ele>94.5</ele><time>2026-04-24T09:50:11.842Z</time></trkpt><trkpt lat="40.5054528" lon="9.6247379"><ele>95.0</ele><time>2026-04-24T09:50:13.841Z</time></trkpt><trkpt lat="40.5054076" lon="9.6246539"><ele>95.66666666666667</ele><time>2026-04-24T09:50:15.841Z</time></trkpt><trkpt lat="40.5053603" lon="9.6245714"><ele>96.33333333333334</ele><time>2026-04-24T09:50:17.841Z</time></trkpt><trkpt lat="40.5053063" lon="9.6244959"><ele>97.0</ele><time>2026-04-24T09:50:19.841Z</time></trkpt><trkpt lat="40.5052598" lon="9.6244136"><ele>97.66666666666667</ele><time>2026-04-24T09:50:21.842Z</time></trkpt><trkpt lat="40.5052093" lon="9.6243382"><ele>98.33333333333333</ele><time>2026-04-24T09:50:23.777Z</time></trkpt><trkpt lat="40.5051472" lon="9.6242723"><ele>99.0</ele><time>2026-04-24T09:50:25.841Z</time></trkpt><trkpt lat="40.5050961" lon="9.6241976"><ele>99.16666666666667</ele><time>2026-04-24T09:50:27.842Z</time></trkpt><trkpt lat="40.5050461" lon="9.6241173"><ele>99.33333333333334</ele><time>2026-04-24T09:50:29.842Z</time></trkpt><trkpt lat="40.5049879" lon="9.6240453"><ele>99.5</ele><time>2026-04-24T09:50:31.847Z</time></trkpt><trkpt lat="40.5049288" lon="9.6239739"><ele>99.66666666666667</ele><time>2026-04-24T09:50:33.842Z</time></trkpt><trkpt lat="40.5048707" lon="9.6238991"><ele>99.83333333333334</ele><time>2026-04-24T09:50:35.841Z</time></trkpt><trkpt lat="40.5048137" lon="9.6238264"><ele>100.0</ele><time>2026-04-24T09:50:37.843Z</time></trkpt><trkpt lat="40.5047624" lon="9.623745"><ele>100.00000000000001</ele><time>2026-04-24T09:50:39.842Z</time></trkpt><trkpt lat="40.5047107" lon="9.6236634"><ele>100.0</ele><time>2026-04-24T09:50:41.841Z</time></trkpt><trkpt lat="40.5046513" lon="9.6235946"><ele>100.0</ele><time>2026-04-24T09:50:43.841Z</time></trkpt><trkpt lat="40.5045985" lon="9.6235162"><ele>100.0</ele><time>2026-04-24T09:50:45.841Z</time></trkpt><trkpt lat="40.5045487" lon="9.623435"><ele>100.00000000000001</ele><time>2026-04-24T09:50:47.842Z</time></trkpt><trkpt lat="40.5044923" lon="9.6233654"><ele>100.0</ele><time>2026-04-24T09:50:49.842Z</time></trkpt><trkpt lat="40.5044358" lon="9.6232953"><ele>100.83333333333334</ele><time>2026-04-24T09:50:51.841Z</time></trkpt><trkpt lat="40.504385" lon="9.6232172"><ele>101.66666666666667</ele><time>2026-04-24T09:50:53.842Z</time></trkpt><trkpt lat="40.5043346" lon="9.623135"><ele>102.5</ele><time>2026-04-24T09:50:55.842Z</time></trkpt><trkpt lat="40.5042772" lon="9.6230647"><ele>103.33333333333334</ele><time>2026-04-24T09:50:57.841Z</time></trkpt><trkpt lat="40.5042239" lon="9.6229909"><ele>104.16666666666667</ele><time>2026-04-24T09:50:59.841Z</time></trkpt><trkpt lat="40.5041772" lon="9.6229147"><ele>105.0</ele><time>2026-04-24T09:51:01.842Z</time></trkpt><trkpt lat="40.5041247" lon="9.6228438"><ele>104.83333333333333</ele><time>2026-04-24T09:51:03.841Z</time></trkpt><trkpt lat="40.504071" lon="9.6227761"><ele>104.66666666666666</ele><time>2026-04-24T09:51:05.747Z</time></trkpt><trkpt lat="40.5040154" lon="9.6226979"><ele>104.5</ele><time>2026-04-24T09:51:07.841Z</time></trkpt><trkpt lat="40.5039591" lon="9.6226272"><ele>104.33333333333333</ele><time>2026-04-24T09:51:09.842Z</time></trkpt><trkpt lat="40.5039036" lon="9.6225523"><ele>104.16666666666666</ele><time>2026-04-24T09:51:11.842Z</time></trkpt><trkpt lat="40.5038474" lon="9.6224749"><ele>104.0</ele><time>2026-04-24T09:51:13.841Z</time></trkpt><trkpt lat="40.5037953" lon="9.6223898"><ele>105.16666666666666</ele><time>2026-04-24T09:51:15.843Z</time></trkpt><trkpt lat="40.5037318" lon="9.6223162"><ele>106.33333333333333</ele><time>2026-04-24T09:51:17.842Z</time></trkpt><trkpt lat="40.5036715" lon="9.6222422"><ele>107.5</ele><time>2026-04-24T09:51:19.798Z</time></trkpt><trkpt lat="40.503621" lon="9.6221506"><ele>108.66666666666666</ele><time>2026-04-24T09:51:21.842Z</time></trkpt><trkpt lat="40.5035586" lon="9.6220711"><ele>109.83333333333333</ele><time>2026-04-24T09:51:23.842Z</time></trkpt><trkpt lat="40.5034985" lon="9.6219895"><ele>111.0</ele><time>2026-04-24T09:51:25.841Z</time></trkpt><trkpt lat="40.5034403" lon="9.6219047"><ele>111.0</ele><time>2026-04-24T09:51:27.842Z</time></trkpt><trkpt lat="40.5033806" lon="9.6218257"><ele>111.0</ele><time>2026-04-24T09:51:29.842Z</time></trkpt><trkpt lat="40.5033202" lon="9.6217483"><ele>111.0</ele><time>2026-04-24T09:51:31.841Z</time></trkpt><trkpt lat="40.503256" lon="9.6216715"><ele>111.0</ele><time>2026-04-24T09:51:33.842Z</time></trkpt><trkpt lat="40.5031872" lon="9.6216053"><ele>111.0</ele><time>2026-04-24T09:51:35.842Z</time></trkpt><trkpt lat="40.503114" lon="9.6215477"><ele>111.0</ele><time>2026-04-24T09:51:37.841Z</time></trkpt><trkpt lat="40.5030426" lon="9.6214826"><ele>111.0</ele><time>2026-04-24T09:51:39.842Z</time></trkpt><trkpt lat="40.5029731" lon="9.6214076"><ele>111.0</ele><time>2026-04-24T09:51:41.841Z</time></trkpt><trkpt lat="40.5028965" lon="9.6213403"><ele>111.0</ele><time>2026-04-24T09:51:43.841Z</time></trkpt><trkpt lat="40.5028164" lon="9.6212747"><ele>111.0</ele><time>2026-04-24T09:51:45.841Z</time></trkpt><trkpt lat="40.5027342" lon="9.6212066"><ele>111.0</ele><time>2026-04-24T09:51:47.841Z</time></trkpt><trkpt lat="40.5026514" lon="9.6211422"><ele>111.0</ele><time>2026-04-24T09:51:49.841Z</time></trkpt><trkpt lat="40.502568" lon="9.6210852"><ele>111.0</ele><time>2026-04-24T09:51:51.842Z</time></trkpt><trkpt lat="40.502489" lon="9.6210182"><ele>111.0</ele><time>2026-04-24T09:51:53.842Z</time></trkpt><trkpt lat="40.5024088" lon="9.620945"><ele>111.0</ele><time>2026-04-24T09:51:55.841Z</time></trkpt><trkpt lat="40.502325" lon="9.6208776"><ele>111.0</ele><time>2026-04-24T09:51:57.842Z</time></trkpt><trkpt lat="40.5022447" lon="9.6208172"><ele>111.0</ele><time>2026-04-24T09:51:59.841Z</time></trkpt><trkpt lat="40.5021748" lon="9.6207473"><ele>111.0</ele><time>2026-04-24T09:52:01.841Z</time></trkpt><trkpt lat="40.5020977" lon="9.6206853"><ele>111.0</ele><time>2026-04-24T09:52:03.842Z</time></trkpt><trkpt lat="40.5020184" lon="9.6206228"><ele>111.0</ele><time>2026-04-24T09:52:05.842Z</time></trkpt><trkpt lat="40.5019383" lon="9.6205573"><ele>111.0</ele><time>2026-04-24T09:52:07.841Z</time></trkpt><trkpt lat="40.5018629" lon="9.620492"><ele>111.19999999999999</ele><time>2026-04-24T09:52:09.841Z</time></trkpt><trkpt lat="40.5017849" lon="9.6204261"><ele>111.39999999999999</ele><time>2026-04-24T09:52:11.842Z</time></trkpt><trkpt lat="40.5017064" lon="9.6203627"><ele>111.6</ele><time>2026-04-24T09:52:13.841Z</time></trkpt><trkpt lat="40.5016257" lon="9.6202986"><ele>111.8</ele><time>2026-04-24T09:52:15.842Z</time></trkpt><trkpt lat="40.5015442" lon="9.6202456"><ele>112.0</ele><time>2026-04-24T09:52:17.841Z</time></trkpt><trkpt lat="40.5014639" lon="9.6201979"><ele>112.0</ele><time>2026-04-24T09:52:19.841Z</time></trkpt><trkpt lat="40.5013818" lon="9.6201456"><ele>111.99999999999999</ele><time>2026-04-24T09:52:21.84Z</time></trkpt><trkpt lat="40.5012958" lon="9.6200993"><ele>111.99999999999999</ele><time>2026-04-24T09:52:23.842Z</time></trkpt><trkpt lat="40.5012073" lon="9.6200528"><ele>112.0</ele><time>2026-04-24T09:52:25.841Z</time></trkpt><trkpt lat="40.5011119" lon="9.6199933"><ele>112.0</ele><time>2026-04-24T09:52:27.842Z</time></trkpt><trkpt lat="40.5010159" lon="9.6199427"><ele>113.6</ele><time>2026-04-24T09:52:29.841Z</time></trkpt><trkpt lat="40.5009163" lon="9.6198764"><ele>115.19999999999999</ele><time>2026-04-24T09:52:31.842Z</time></trkpt><trkpt lat="40.5008149" lon="9.6198035"><ele>116.8</ele><time>2026-04-24T09:52:33.842Z</time></trkpt><trkpt lat="40.5007122" lon="9.6197048"><ele>118.4</ele><time>2026-04-24T09:52:35.842Z</time></trkpt><trkpt lat="40.5006693" lon="9.6196337"><ele>120.0</ele><time>2026-04-24T09:52:36.842Z</time></trkpt><trkpt lat="40.5006386" lon="9.619548"><ele>118.83333333333333</ele><time>2026-04-24T09:52:37.841Z</time></trkpt><trkpt lat="40.5006253" lon="9.6194507"><ele>117.66666666666666</ele><time>2026-04-24T09:52:38.842Z</time></trkpt><trkpt lat="40.5006292" lon="9.619347"><ele>116.5</ele><time>2026-04-24T09:52:39.841Z</time></trkpt><trkpt lat="40.5006541" lon="9.6192436"><ele>115.33333333333333</ele><time>2026-04-24T09:52:40.841Z</time></trkpt><trkpt lat="40.5007006" lon="9.6191461"><ele>114.16666666666666</ele><time>2026-04-24T09:52:41.841Z</time></trkpt><trkpt lat="40.5007578" lon="9.619057"><ele>113.0</ele><time>2026-04-24T09:52:42.842Z</time></trkpt><trkpt lat="40.5008152" lon="9.6189696"><ele>112.99999999999999</ele><time>2026-04-24T09:52:43.841Z</time></trkpt><trkpt lat="40.5008688" lon="9.6188822"><ele>113.0</ele><time>2026-04-24T09:52:44.841Z</time></trkpt><trkpt lat="40.5009149" lon="9.6187926"><ele>113.0</ele><time>2026-04-24T09:52:45.841Z</time></trkpt><trkpt lat="40.5009495" lon="9.6187055"><ele>113.0</ele><time>2026-04-24T09:52:46.842Z</time></trkpt><trkpt lat="40.5009749" lon="9.6186177"><ele>112.99999999999999</ele><time>2026-04-24T09:52:47.841Z</time></trkpt><trkpt lat="40.5009868" lon="9.6185236"><ele>113.0</ele><time>2026-04-24T09:52:48.842Z</time></trkpt><trkpt lat="40.5009818" lon="9.6184396"><ele>112.4</ele><time>2026-04-24T09:52:49.842Z</time></trkpt><trkpt lat="40.5009512" lon="9.618297"><ele>111.80000000000001</ele><time>2026-04-24T09:52:51.841Z</time></trkpt><trkpt lat="40.5008978" lon="9.6181754"><ele>111.2</ele><time>2026-04-24T09:52:53.842Z</time></trkpt><trkpt lat="40.5008452" lon="9.6180689"><ele>110.6</ele><time>2026-04-24T09:52:55.842Z</time></trkpt><trkpt lat="40.5007798" lon="9.6179791"><ele>110.0</ele><time>2026-04-24T09:52:57.841Z</time></trkpt><trkpt lat="40.5007105" lon="9.6178904"><ele>110.2</ele><time>2026-04-24T09:52:59.84Z</time></trkpt><trkpt lat="40.5006488" lon="9.6177964"><ele>110.4</ele><time>2026-04-24T09:53:01.841Z</time></trkpt><trkpt lat="40.5005827" lon="9.6177112"><ele>110.6</ele><time>2026-04-24T09:53:03.841Z</time></trkpt><trkpt lat="40.5005166" lon="9.6176179"><ele>110.8</ele><time>2026-04-24T09:53:05.841Z</time></trkpt><trkpt lat="40.5004548" lon="9.6175215"><ele>111.0</ele><time>2026-04-24T09:53:07.842Z</time></trkpt><trkpt lat="40.5003896" lon="9.6174337"><ele>111.8</ele><time>2026-04-24T09:53:09.841Z</time></trkpt><trkpt lat="40.5003351" lon="9.6173362"><ele>112.6</ele><time>2026-04-24T09:53:11.841Z</time></trkpt><trkpt lat="40.5002839" lon="9.6172341"><ele>113.4</ele><time>2026-04-24T09:53:13.841Z</time></trkpt><trkpt lat="40.5002349" lon="9.6171292"><ele>114.2</ele><time>2026-04-24T09:53:15.841Z</time></trkpt><trkpt lat="40.5001966" lon="9.6170262"><ele>115.0</ele><time>2026-04-24T09:53:17.841Z</time></trkpt><trkpt lat="40.5001485" lon="9.6169066"><ele>115.2</ele><time>2026-04-24T09:53:19.842Z</time></trkpt><trkpt lat="40.5001122" lon="9.6167929"><ele>115.4</ele><time>2026-04-24T09:53:21.842Z</time></trkpt><trkpt lat="40.5000785" lon="9.6166767"><ele>115.6</ele><time>2026-04-24T09:53:23.842Z</time></trkpt><trkpt lat="40.5000355" lon="9.6165666"><ele>115.8</ele><time>2026-04-24T09:53:25.842Z</time></trkpt><trkpt lat="40.4999936" lon="9.6164581"><ele>116.0</ele><time>2026-04-24T09:53:27.841Z</time></trkpt><trkpt lat="40.4999642" lon="9.6163443"><ele>115.99999999999999</ele><time>2026-04-24T09:53:29.841Z</time></trkpt><trkpt lat="40.4999257" lon="9.61624"><ele>116.0</ele><time>2026-04-24T09:53:31.842Z</time></trkpt><trkpt lat="40.4998845" lon="9.6161337"><ele>116.0</ele><time>2026-04-24T09:53:33.841Z</time></trkpt><trkpt lat="40.4998484" lon="9.616024"><ele>116.0</ele><time>2026-04-24T09:53:35.842Z</time></trkpt><trkpt lat="40.4998162" lon="9.6159113"><ele>115.99999999999999</ele><time>2026-04-24T09:53:37.841Z</time></trkpt><trkpt lat="40.4997856" lon="9.6158032"><ele>116.0</ele><time>2026-04-24T09:53:39.841Z</time></trkpt><trkpt lat="40.4997512" lon="9.6156947"><ele>115.99999999999999</ele><time>2026-04-24T09:53:41.842Z</time></trkpt><trkpt lat="40.4997198" lon="9.6155876"><ele>116.0</ele><time>2026-04-24T09:53:43.841Z</time></trkpt><trkpt lat="40.4996799" lon="9.6154906"><ele>116.0</ele><time>2026-04-24T09:53:45.841Z</time></trkpt><trkpt lat="40.4996508" lon="9.6153942"><ele>116.0</ele><time>2026-04-24T09:53:47.842Z</time></trkpt><trkpt lat="40.4996064" lon="9.6152986"><ele>115.99999999999999</ele><time>2026-04-24T09:53:49.841Z</time></trkpt><trkpt lat="40.4995394" lon="9.6152123"><ele>116.0</ele><time>2026-04-24T09:53:51.841Z</time></trkpt><trkpt lat="40.4994777" lon="9.6151227"><ele>117.19999999999999</ele><time>2026-04-24T09:53:53.842Z</time></trkpt><trkpt lat="40.4993948" lon="9.6150594"><ele>118.39999999999999</ele><time>2026-04-24T09:53:55.841Z</time></trkpt><trkpt lat="40.4993101" lon="9.6150243"><ele>119.6</ele><time>2026-04-24T09:53:57.842Z</time></trkpt><trkpt lat="40.4992231" lon="9.6149729"><ele>120.8</ele><time>2026-04-24T09:53:59.84Z</time></trkpt><trkpt lat="40.4991344" lon="9.6149332"><ele>122.0</ele><time>2026-04-24T09:54:01.842Z</time></trkpt><trkpt lat="40.4990491" lon="9.6148954"><ele>121.99999999999999</ele><time>2026-04-24T09:54:03.841Z</time></trkpt><trkpt lat="40.4989665" lon="9.6148623"><ele>122.0</ele><time>2026-04-24T09:54:05.841Z</time></trkpt><trkpt lat="40.4988827" lon="9.614824"><ele>122.0</ele><time>2026-04-24T09:54:07.842Z</time></trkpt><trkpt lat="40.4987975" lon="9.6147779"><ele>122.0</ele><time>2026-04-24T09:54:09.841Z</time></trkpt><trkpt lat="40.4987149" lon="9.6147333"><ele>121.99999999999999</ele><time>2026-04-24T09:54:11.841Z</time></trkpt><trkpt lat="40.4986353" lon="9.6146819"><ele>122.0</ele><time>2026-04-24T09:54:13.841Z</time></trkpt><trkpt lat="40.4985571" lon="9.6146323"><ele>121.83333333333333</ele><time>2026-04-24T09:54:15.841Z</time></trkpt><trkpt lat="40.4984813" lon="9.6145744"><ele>121.66666666666666</ele><time>2026-04-24T09:54:17.84Z</time></trkpt><trkpt lat="40.498405" lon="9.6145204"><ele>121.5</ele><time>2026-04-24T09:54:19.84Z</time></trkpt><trkpt lat="40.4983294" lon="9.6144627"><ele>121.33333333333334</ele><time>2026-04-24T09:54:21.841Z</time></trkpt><trkpt lat="40.4982529" lon="9.6144123"><ele>121.16666666666667</ele><time>2026-04-24T09:54:23.841Z</time></trkpt><trkpt lat="40.4981796" lon="9.6143507"><ele>121.0</ele><time>2026-04-24T09:54:25.841Z</time></trkpt><trkpt lat="40.4981082" lon="9.6142844"><ele>122.00000000000001</ele><time>2026-04-24T09:54:27.841Z</time></trkpt><trkpt lat="40.4980318" lon="9.6142298"><ele>123.0</ele><time>2026-04-24T09:54:29.841Z</time></trkpt><trkpt lat="40.4979575" lon="9.6141718"><ele>124.0</ele><time>2026-04-24T09:54:31.84Z</time></trkpt><trkpt lat="40.497881" lon="9.614109"><ele>125.0</ele><time>2026-04-24T09:54:33.842Z</time></trkpt><trkpt lat="40.4978004" lon="9.6140564"><ele>126.00000000000001</ele><time>2026-04-24T09:54:35.842Z</time></trkpt><trkpt lat="40.4977231" lon="9.6140046"><ele>127.0</ele><time>2026-04-24T09:54:37.842Z</time></trkpt><trkpt lat="40.4976497" lon="9.613951"><ele>127.00000000000001</ele><time>2026-04-24T09:54:39.841Z</time></trkpt><trkpt lat="40.4975758" lon="9.6138974"><ele>127.0</ele><time>2026-04-24T09:54:41.842Z</time></trkpt><trkpt lat="40.4974934" lon="9.6138498"><ele>127.0</ele><time>2026-04-24T09:54:43.842Z</time></trkpt><trkpt lat="40.4974068" lon="9.6138062"><ele>127.0</ele><time>2026-04-24T09:54:45.842Z</time></trkpt><trkpt lat="40.4973219" lon="9.6137572"><ele>127.00000000000001</ele><time>2026-04-24T09:54:47.841Z</time></trkpt><trkpt lat="40.4972379" lon="9.613721"><ele>127.0</ele><time>2026-04-24T09:54:49.841Z</time></trkpt><trkpt lat="40.4971587" lon="9.6136756"><ele>128.33333333333334</ele><time>2026-04-24T09:54:51.84Z</time></trkpt><trkpt lat="40.4970789" lon="9.6136368"><ele>129.66666666666669</ele><time>2026-04-24T09:54:53.841Z</time></trkpt><trkpt lat="40.4970008" lon="9.6136004"><ele>131.0</ele><time>2026-04-24T09:54:55.841Z</time></trkpt><trkpt lat="40.4969278" lon="9.613559"><ele>132.33333333333334</ele><time>2026-04-24T09:54:57.84Z</time></trkpt><trkpt lat="40.4968528" lon="9.6135272"><ele>133.66666666666666</ele><time>2026-04-24T09:54:59.842Z</time></trkpt><trkpt lat="40.4967784" lon="9.6134936"><ele>135.0</ele><time>2026-04-24T09:55:01.841Z</time></trkpt><trkpt lat="40.4967058" lon="9.6134597"><ele>135.0</ele><time>2026-04-24T09:55:03.841Z</time></trkpt><trkpt lat="40.4966305" lon="9.6134193"><ele>135.0</ele><time>2026-04-24T09:55:05.841Z</time></trkpt><trkpt lat="40.4965543" lon="9.6133728"><ele>135.0</ele><time>2026-04-24T09:55:07.842Z</time></trkpt><trkpt lat="40.496476" lon="9.6133321"><ele>135.0</ele><time>2026-04-24T09:55:09.841Z</time></trkpt><trkpt lat="40.4964006" lon="9.6132797"><ele>135.0</ele><time>2026-04-24T09:55:11.841Z</time></trkpt><trkpt lat="40.4963263" lon="9.6132235"><ele>135.0</ele><time>2026-04-24T09:55:13.84Z</time></trkpt><trkpt lat="40.4962558" lon="9.6131608"><ele>134.5</ele><time>2026-04-24T09:55:15.842Z</time></trkpt><trkpt lat="40.4961959" lon="9.6130824"><ele>134.0</ele><time>2026-04-24T09:55:17.841Z</time></trkpt><trkpt lat="40.4961395" lon="9.6130005"><ele>133.5</ele><time>2026-04-24T09:55:19.841Z</time></trkpt><trkpt lat="40.496095" lon="9.6129083"><ele>133.0</ele><time>2026-04-24T09:55:21.841Z</time></trkpt><trkpt lat="40.4960596" lon="9.6128095"><ele>132.5</ele><time>2026-04-24T09:55:23.841Z</time></trkpt><trkpt lat="40.496013" lon="9.6127195"><ele>132.0</ele><time>2026-04-24T09:55:25.841Z</time></trkpt><trkpt lat="40.4959808" lon="9.6126266"><ele>132.0</ele><time>2026-04-24T09:55:27.841Z</time></trkpt><trkpt lat="40.4959444" lon="9.6125273"><ele>132.0</ele><time>2026-04-24T09:55:29.842Z</time></trkpt><trkpt lat="40.4958979" lon="9.6124274"><ele>132.0</ele><time>2026-04-24T09:55:31.84Z</time></trkpt><trkpt lat="40.4958485" lon="9.612333"><ele>132.0</ele><time>2026-04-24T09:55:33.848Z</time></trkpt><trkpt lat="40.4958152" lon="9.6122247"><ele>132.0</ele><time>2026-04-24T09:55:35.841Z</time></trkpt><trkpt lat="40.4957725" lon="9.6121238"><ele>132.0</ele><time>2026-04-24T09:55:37.781Z</time></trkpt><trkpt lat="40.4957361" lon="9.6120199"><ele>132.5</ele><time>2026-04-24T09:55:39.84Z</time></trkpt><trkpt lat="40.4957037" lon="9.6119094"><ele>133.0</ele><time>2026-04-24T09:55:41.841Z</time></trkpt><trkpt lat="40.4956608" lon="9.6118094"><ele>133.5</ele><time>2026-04-24T09:55:43.84Z</time></trkpt><trkpt lat="40.4956208" lon="9.6117102"><ele>134.0</ele><time>2026-04-24T09:55:45.841Z</time></trkpt><trkpt lat="40.4955876" lon="9.6116071"><ele>134.5</ele><time>2026-04-24T09:55:47.841Z</time></trkpt><trkpt lat="40.4955736" lon="9.6115144"><ele>135.0</ele><time>2026-04-24T09:55:49.841Z</time></trkpt><trkpt lat="40.4955706" lon="9.6113933"><ele>135.0</ele><time>2026-04-24T09:55:51.84Z</time></trkpt><trkpt lat="40.4955425" lon="9.6112946"><ele>135.0</ele><time>2026-04-24T09:55:53.841Z</time></trkpt><trkpt lat="40.4955019" lon="9.6112016"><ele>135.0</ele><time>2026-04-24T09:55:55.841Z</time></trkpt><trkpt lat="40.4954626" lon="9.6111053"><ele>135.0</ele><time>2026-04-24T09:55:57.84Z</time></trkpt><trkpt lat="40.4954197" lon="9.6110164"><ele>135.0</ele><time>2026-04-24T09:55:59.84Z</time></trkpt><trkpt lat="40.495372" lon="9.61093"><ele>135.0</ele><time>2026-04-24T09:56:01.842Z</time></trkpt><trkpt lat="40.4953468" lon="9.6108267"><ele>135.83333333333334</ele><time>2026-04-24T09:56:03.84Z</time></trkpt><trkpt lat="40.4953081" lon="9.610729"><ele>136.66666666666666</ele><time>2026-04-24T09:56:05.842Z</time></trkpt><trkpt lat="40.4952524" lon="9.6106493"><ele>137.5</ele><time>2026-04-24T09:56:07.8Z</time></trkpt><trkpt lat="40.4951987" lon="9.6105669"><ele>138.33333333333331</ele><time>2026-04-24T09:56:09.841Z</time></trkpt><trkpt lat="40.4951312" lon="9.6105023"><ele>139.16666666666666</ele><time>2026-04-24T09:56:11.841Z</time></trkpt><trkpt lat="40.4950568" lon="9.6104557"><ele>140.0</ele><time>2026-04-24T09:56:13.765Z</time></trkpt><trkpt lat="40.4949709" lon="9.6104173"><ele>140.0</ele><time>2026-04-24T09:56:15.84Z</time></trkpt><trkpt lat="40.4948881" lon="9.6103851"><ele>140.0</ele><time>2026-04-24T09:56:17.841Z</time></trkpt><trkpt lat="40.4947995" lon="9.610345"><ele>140.0</ele><time>2026-04-24T09:56:19.841Z</time></trkpt><trkpt lat="40.4947097" lon="9.6103114"><ele>140.0</ele><time>2026-04-24T09:56:21.842Z</time></trkpt><trkpt lat="40.4946177" lon="9.6102909"><ele>140.0</ele><time>2026-04-24T09:56:23.84Z</time></trkpt><trkpt lat="40.4945246" lon="9.6102525"><ele>139.8</ele><time>2026-04-24T09:56:25.842Z</time></trkpt><trkpt lat="40.4944287" lon="9.6102235"><ele>139.6</ele><time>2026-04-24T09:56:27.842Z</time></trkpt><trkpt lat="40.4943382" lon="9.6102286"><ele>139.4</ele><time>2026-04-24T09:56:29.841Z</time></trkpt><trkpt lat="40.4942403" lon="9.6102461"><ele>139.2</ele><time>2026-04-24T09:56:31.84Z</time></trkpt><trkpt lat="40.4941404" lon="9.6102715"><ele>139.0</ele><time>2026-04-24T09:56:33.841Z</time></trkpt><trkpt lat="40.4940443" lon="9.6103137"><ele>139.6</ele><time>2026-04-24T09:56:35.84Z</time></trkpt><trkpt lat="40.4939494" lon="9.6103759"><ele>140.2</ele><time>2026-04-24T09:56:37.84Z</time></trkpt><trkpt lat="40.4938585" lon="9.6104285"><ele>140.79999999999998</ele><time>2026-04-24T09:56:39.841Z</time></trkpt><trkpt lat="40.4937811" lon="9.6104836"><ele>141.4</ele><time>2026-04-24T09:56:41.841Z</time></trkpt><trkpt lat="40.493705" lon="9.6105201"><ele>142.0</ele><time>2026-04-24T09:56:43.84Z</time></trkpt><trkpt lat="40.4936242" lon="9.6105503"><ele>142.0</ele><time>2026-04-24T09:56:45.84Z</time></trkpt><trkpt lat="40.4935403" lon="9.6105667"><ele>142.0</ele><time>2026-04-24T09:56:47.842Z</time></trkpt><trkpt lat="40.4934602" lon="9.6105471"><ele>142.0</ele><time>2026-04-24T09:56:49.84Z</time></trkpt><trkpt lat="40.4933854" lon="9.6104985"><ele>142.0</ele><time>2026-04-24T09:56:51.84Z</time></trkpt><trkpt lat="40.4933125" lon="9.6104452"><ele>142.0</ele><time>2026-04-24T09:56:53.84Z</time></trkpt><trkpt lat="40.4932423" lon="9.6103745"><ele>142.0</ele><time>2026-04-24T09:56:55.841Z</time></trkpt><trkpt lat="40.493173" lon="9.6102865"><ele>142.0</ele><time>2026-04-24T09:56:57.842Z</time></trkpt><trkpt lat="40.4930981" lon="9.6102075"><ele>142.0</ele><time>2026-04-24T09:56:59.84Z</time></trkpt><trkpt lat="40.493022" lon="9.6101301"><ele>142.0</ele><time>2026-04-24T09:57:01.84Z</time></trkpt><trkpt lat="40.4929496" lon="9.6100504"><ele>142.0</ele><time>2026-04-24T09:57:03.84Z</time></trkpt><trkpt lat="40.4928778" lon="9.6099665"><ele>142.0</ele><time>2026-04-24T09:57:05.84Z</time></trkpt><trkpt lat="40.4928112" lon="9.60988"><ele>142.6</ele><time>2026-04-24T09:57:07.84Z</time></trkpt><trkpt lat="40.49274" lon="9.6098072"><ele>143.2</ele><time>2026-04-24T09:57:09.841Z</time></trkpt><trkpt lat="40.492669" lon="9.6097249"><ele>143.8</ele><time>2026-04-24T09:57:11.841Z</time></trkpt><trkpt lat="40.4926001" lon="9.6096319"><ele>144.4</ele><time>2026-04-24T09:57:13.841Z</time></trkpt><trkpt lat="40.4925365" lon="9.6095493"><ele>145.0</ele><time>2026-04-24T09:57:15.841Z</time></trkpt><trkpt lat="40.4924728" lon="9.6094688"><ele>145.0</ele><time>2026-04-24T09:57:17.842Z</time></trkpt><trkpt lat="40.492409" lon="9.609386"><ele>145.0</ele><time>2026-04-24T09:57:19.841Z</time></trkpt><trkpt lat="40.4923409" lon="9.6092983"><ele>145.0</ele><time>2026-04-24T09:57:21.842Z</time></trkpt><trkpt lat="40.4922775" lon="9.6092149"><ele>145.0</ele><time>2026-04-24T09:57:23.841Z</time></trkpt><trkpt lat="40.4922173" lon="9.6091414"><ele>145.0</ele><time>2026-04-24T09:57:25.84Z</time></trkpt><trkpt lat="40.4921495" lon="9.6090652"><ele>145.0</ele><time>2026-04-24T09:57:27.842Z</time></trkpt><trkpt lat="40.492083" lon="9.608992"><ele>146.6</ele><time>2026-04-24T09:57:29.84Z</time></trkpt><trkpt lat="40.4920247" lon="9.6088954"><ele>148.2</ele><time>2026-04-24T09:57:31.841Z</time></trkpt><trkpt lat="40.4919602" lon="9.608802"><ele>149.8</ele><time>2026-04-24T09:57:33.841Z</time></trkpt><trkpt lat="40.4918986" lon="9.6087224"><ele>151.4</ele><time>2026-04-24T09:57:35.842Z</time></trkpt><trkpt lat="40.4918352" lon="9.6086273"><ele>153.0</ele><time>2026-04-24T09:57:37.841Z</time></trkpt><trkpt lat="40.4917734" lon="9.6085301"><ele>153.0</ele><time>2026-04-24T09:57:39.84Z</time></trkpt><trkpt lat="40.4917102" lon="9.608441"><ele>153.0</ele><time>2026-04-24T09:57:41.841Z</time></trkpt><trkpt lat="40.4916608" lon="9.6083416"><ele>153.0</ele><time>2026-04-24T09:57:43.842Z</time></trkpt><trkpt lat="40.4916004" lon="9.6082507"><ele>153.0</ele><time>2026-04-24T09:57:45.842Z</time></trkpt><trkpt lat="40.4915376" lon="9.6081603"><ele>153.0</ele><time>2026-04-24T09:57:47.842Z</time></trkpt><trkpt lat="40.4914799" lon="9.6080678"><ele>153.0</ele><time>2026-04-24T09:57:49.841Z</time></trkpt><trkpt lat="40.4914144" lon="9.6079724"><ele>153.0</ele><time>2026-04-24T09:57:51.84Z</time></trkpt><trkpt lat="40.4913508" lon="9.6078761"><ele>153.0</ele><time>2026-04-24T09:57:53.84Z</time></trkpt><trkpt lat="40.4913049" lon="9.6077664"><ele>153.0</ele><time>2026-04-24T09:57:55.841Z</time></trkpt><trkpt lat="40.4912885" lon="9.6076407"><ele>153.0</ele><time>2026-04-24T09:57:57.84Z</time></trkpt><trkpt lat="40.4912715" lon="9.6075197"><ele>153.83333333333334</ele><time>2026-04-24T09:57:59.841Z</time></trkpt><trkpt lat="40.4912478" lon="9.6074002"><ele>154.66666666666666</ele><time>2026-04-24T09:58:01.84Z</time></trkpt><trkpt lat="40.4912238" lon="9.6072868"><ele>155.5</ele><time>2026-04-24T09:58:03.84Z</time></trkpt><trkpt lat="40.4911957" lon="9.6071827"><ele>156.33333333333331</ele><time>2026-04-24T09:58:05.84Z</time></trkpt><trkpt lat="40.4911611" lon="9.6070851"><ele>157.16666666666666</ele><time>2026-04-24T09:58:07.841Z</time></trkpt><trkpt lat="40.4911165" lon="9.6069885"><ele>158.0</ele><time>2026-04-24T09:58:09.84Z</time></trkpt><trkpt lat="40.4910752" lon="9.6069258"><ele>158.60000000000002</ele><time>2026-04-24T09:58:11.84Z</time></trkpt><trkpt lat="40.49102" lon="9.6068114"><ele>159.20000000000002</ele><time>2026-04-24T09:58:13.84Z</time></trkpt><trkpt lat="40.4909553" lon="9.6067227"><ele>159.8</ele><time>2026-04-24T09:58:15.84Z</time></trkpt><trkpt lat="40.4908951" lon="9.6066401"><ele>160.4</ele><time>2026-04-24T09:58:17.84Z</time></trkpt><trkpt lat="40.490835" lon="9.6065596"><ele>161.0</ele><time>2026-04-24T09:58:19.828Z</time></trkpt><trkpt lat="40.4907764" lon="9.6064771"><ele>161.0</ele><time>2026-04-24T09:58:21.84Z</time></trkpt><trkpt lat="40.4907251" lon="9.6063872"><ele>161.0</ele><time>2026-04-24T09:58:23.84Z</time></trkpt><trkpt lat="40.4906803" lon="9.6062966"><ele>161.0</ele><time>2026-04-24T09:58:25.8Z</time></trkpt><trkpt lat="40.4906204" lon="9.606215"><ele>161.0</ele><time>2026-04-24T09:58:27.841Z</time></trkpt><trkpt lat="40.4905628" lon="9.6061296"><ele>161.0</ele><time>2026-04-24T09:58:29.841Z</time></trkpt><trkpt lat="40.4905066" lon="9.6060445"><ele>161.0</ele><time>2026-04-24T09:58:31.841Z</time></trkpt><trkpt lat="40.490445" lon="9.6059704"><ele>162.20000000000002</ele><time>2026-04-24T09:58:33.841Z</time></trkpt><trkpt lat="40.4903861" lon="9.6058895"><ele>163.4</ele><time>2026-04-24T09:58:35.841Z</time></trkpt><trkpt lat="40.4903377" lon="9.6058075"><ele>164.6</ele><time>2026-04-24T09:58:37.68Z</time></trkpt><trkpt lat="40.490278" lon="9.6057094"><ele>165.8</ele><time>2026-04-24T09:58:39.79Z</time></trkpt><trkpt lat="40.4902175" lon="9.6056119"><ele>167.0</ele><time>2026-04-24T09:58:41.84Z</time></trkpt><trkpt lat="40.4901513" lon="9.605521"><ele>167.0</ele><time>2026-04-24T09:58:43.841Z</time></trkpt><trkpt lat="40.4900897" lon="9.6054276"><ele>167.0</ele><time>2026-04-24T09:58:45.84Z</time></trkpt><trkpt lat="40.4900355" lon="9.6053293"><ele>167.0</ele><time>2026-04-24T09:58:47.841Z</time></trkpt><trkpt lat="40.4899732" lon="9.6052381"><ele>167.0</ele><time>2026-04-24T09:58:49.842Z</time></trkpt><trkpt lat="40.4899093" lon="9.6051536"><ele>167.0</ele><time>2026-04-24T09:58:51.841Z</time></trkpt><trkpt lat="40.4898498" lon="9.6050575"><ele>167.0</ele><time>2026-04-24T09:58:53.841Z</time></trkpt><trkpt lat="40.4897862" lon="9.6049656"><ele>167.0</ele><time>2026-04-24T09:58:55.84Z</time></trkpt><trkpt lat="40.4897195" lon="9.6048787"><ele>167.0</ele><time>2026-04-24T09:58:57.841Z</time></trkpt><trkpt lat="40.4896591" lon="9.6047839"><ele>167.0</ele><time>2026-04-24T09:58:59.84Z</time></trkpt><trkpt lat="40.4895998" lon="9.6046844"><ele>167.0</ele><time>2026-04-24T09:59:01.84Z</time></trkpt><trkpt lat="40.4895409" lon="9.604584"><ele>167.39999999999998</ele><time>2026-04-24T09:59:03.841Z</time></trkpt><trkpt lat="40.4894723" lon="9.6044801"><ele>167.79999999999998</ele><time>2026-04-24T09:59:05.84Z</time></trkpt><trkpt lat="40.4894048" lon="9.6043789"><ele>168.2</ele><time>2026-04-24T09:59:07.84Z</time></trkpt><trkpt lat="40.4893388" lon="9.6042819"><ele>168.6</ele><time>2026-04-24T09:59:09.84Z</time></trkpt><trkpt lat="40.48927" lon="9.6041933"><ele>169.0</ele><time>2026-04-24T09:59:11.84Z</time></trkpt><trkpt lat="40.4892003" lon="9.6040995"><ele>169.0</ele><time>2026-04-24T09:59:13.842Z</time></trkpt><trkpt lat="40.4891331" lon="9.6040053"><ele>169.0</ele><time>2026-04-24T09:59:15.841Z</time></trkpt><trkpt lat="40.4890637" lon="9.6039192"><ele>169.0</ele><time>2026-04-24T09:59:17.842Z</time></trkpt><trkpt lat="40.4889884" lon="9.6038411"><ele>169.0</ele><time>2026-04-24T09:59:19.84Z</time></trkpt><trkpt lat="40.4889128" lon="9.6037633"><ele>169.0</ele><time>2026-04-24T09:59:21.841Z</time></trkpt><trkpt lat="40.4888357" lon="9.6036838"><ele>169.39999999999998</ele><time>2026-04-24T09:59:23.84Z</time></trkpt><trkpt lat="40.4887582" lon="9.6036069"><ele>169.8</ele><time>2026-04-24T09:59:25.84Z</time></trkpt><trkpt lat="40.4886799" lon="9.6035226"><ele>170.2</ele><time>2026-04-24T09:59:27.84Z</time></trkpt><trkpt lat="40.4885956" lon="9.6034484"><ele>170.60000000000002</ele><time>2026-04-24T09:59:29.841Z</time></trkpt><trkpt lat="40.4885146" lon="9.6033685"><ele>171.0</ele><time>2026-04-24T09:59:31.841Z</time></trkpt><trkpt lat="40.4884311" lon="9.6032947"><ele>171.0</ele><time>2026-04-24T09:59:33.84Z</time></trkpt><trkpt lat="40.4883544" lon="9.6032117"><ele>171.0</ele><time>2026-04-24T09:59:35.841Z</time></trkpt><trkpt lat="40.4882737" lon="9.6031262"><ele>171.0</ele><time>2026-04-24T09:59:37.84Z</time></trkpt><trkpt lat="40.4882033" lon="9.6030284"><ele>171.0</ele><time>2026-04-24T09:59:39.841Z</time></trkpt><trkpt lat="40.4881437" lon="9.602922"><ele>171.0</ele><time>2026-04-24T09:59:41.841Z</time></trkpt><trkpt lat="40.4880845" lon="9.6028111"><ele>170.8</ele><time>2026-04-24T09:59:43.842Z</time></trkpt><trkpt lat="40.4880305" lon="9.6026951"><ele>170.60000000000002</ele><time>2026-04-24T09:59:45.841Z</time></trkpt><trkpt lat="40.4879785" lon="9.602576"><ele>170.4</ele><time>2026-04-24T09:59:47.841Z</time></trkpt><trkpt lat="40.4879245" lon="9.6024585"><ele>170.2</ele><time>2026-04-24T09:59:49.84Z</time></trkpt><trkpt lat="40.4878647" lon="9.6023466"><ele>170.0</ele><time>2026-04-24T09:59:51.841Z</time></trkpt><trkpt lat="40.4878081" lon="9.6022272"><ele>170.0</ele><time>2026-04-24T09:59:53.84Z</time></trkpt><trkpt lat="40.4877481" lon="9.6020919"><ele>170.0</ele><time>2026-04-24T09:59:55.84Z</time></trkpt><trkpt lat="40.4876874" lon="9.6019522"><ele>170.0</ele><time>2026-04-24T09:59:57.84Z</time></trkpt><trkpt lat="40.4876253" lon="9.6018094"><ele>170.0</ele><time>2026-04-24T09:59:59.841Z</time></trkpt><trkpt lat="40.4875937" lon="9.6017355"><ele>170.0</ele><time>2026-04-24T10:00:00.84Z</time></trkpt><trkpt lat="40.4875601" lon="9.6016627"><ele>169.42857142857144</ele><time>2026-04-24T10:00:01.84Z</time></trkpt><trkpt lat="40.4875261" lon="9.6015898"><ele>168.85714285714283</ele><time>2026-04-24T10:00:02.84Z</time></trkpt><trkpt lat="40.4874898" lon="9.6015157"><ele>168.28571428571428</ele><time>2026-04-24T10:00:03.84Z</time></trkpt><trkpt lat="40.4874534" lon="9.6014424"><ele>167.71428571428572</ele><time>2026-04-24T10:00:04.841Z</time></trkpt><trkpt lat="40.4874165" lon="9.6013688"><ele>167.14285714285717</ele><time>2026-04-24T10:00:05.841Z</time></trkpt><trkpt lat="40.4873812" lon="9.6012916"><ele>166.57142857142856</ele><time>2026-04-24T10:00:06.84Z</time></trkpt><trkpt lat="40.4873494" lon="9.6012107"><ele>166.0</ele><time>2026-04-24T10:00:07.84Z</time></trkpt><trkpt lat="40.4873122" lon="9.6011309"><ele>166.14285714285714</ele><time>2026-04-24T10:00:08.841Z</time></trkpt><trkpt lat="40.4872662" lon="9.6010552"><ele>166.2857142857143</ele><time>2026-04-24T10:00:09.84Z</time></trkpt><trkpt lat="40.4872263" lon="9.6009796"><ele>166.42857142857144</ele><time>2026-04-24T10:00:10.842Z</time></trkpt><trkpt lat="40.4871906" lon="9.6009006"><ele>166.57142857142856</ele><time>2026-04-24T10:00:11.841Z</time></trkpt><trkpt lat="40.4871551" lon="9.6008222"><ele>166.71428571428572</ele><time>2026-04-24T10:00:12.84Z</time></trkpt><trkpt lat="40.4871211" lon="9.6007487"><ele>166.85714285714286</ele><time>2026-04-24T10:00:13.842Z</time></trkpt><trkpt lat="40.4870863" lon="9.6006793"><ele>167.0</ele><time>2026-04-24T10:00:14.841Z</time></trkpt><trkpt lat="40.4870458" lon="9.6006095"><ele>167.0</ele><time>2026-04-24T10:00:15.84Z</time></trkpt><trkpt lat="40.4869685" lon="9.6004889"><ele>167.0</ele><time>2026-04-24T10:00:17.84Z</time></trkpt><trkpt lat="40.4868969" lon="9.6003815"><ele>167.0</ele><time>2026-04-24T10:00:19.84Z</time></trkpt><trkpt lat="40.4868163" lon="9.6002882"><ele>167.0</ele><time>2026-04-24T10:00:21.841Z</time></trkpt><trkpt lat="40.4867422" lon="9.600199"><ele>167.0</ele><time>2026-04-24T10:00:23.841Z</time></trkpt><trkpt lat="40.4866756" lon="9.6001063"><ele>166.6</ele><time>2026-04-24T10:00:25.84Z</time></trkpt><trkpt lat="40.4866055" lon="9.6000161"><ele>166.2</ele><time>2026-04-24T10:00:27.84Z</time></trkpt><trkpt lat="40.4865282" lon="9.5999335"><ele>165.8</ele><time>2026-04-24T10:00:29.84Z</time></trkpt><trkpt lat="40.4864546" lon="9.5998376"><ele>165.4</ele><time>2026-04-24T10:00:31.841Z</time></trkpt><trkpt lat="40.4863834" lon="9.5997359"><ele>165.0</ele><time>2026-04-24T10:00:33.84Z</time></trkpt><trkpt lat="40.4863049" lon="9.5996407"><ele>166.0</ele><time>2026-04-24T10:00:35.84Z</time></trkpt><trkpt lat="40.4862272" lon="9.5995489"><ele>167.0</ele><time>2026-04-24T10:00:37.84Z</time></trkpt><trkpt lat="40.4861509" lon="9.5994536"><ele>168.0</ele><time>2026-04-24T10:00:39.841Z</time></trkpt><trkpt lat="40.4860707" lon="9.5993583"><ele>169.0</ele><time>2026-04-24T10:00:41.841Z</time></trkpt><trkpt lat="40.485991" lon="9.5992688"><ele>170.0</ele><time>2026-04-24T10:00:43.84Z</time></trkpt><trkpt lat="40.4859108" lon="9.5991746"><ele>170.0</ele><time>2026-04-24T10:00:45.84Z</time></trkpt><trkpt lat="40.4858388" lon="9.5990764"><ele>170.0</ele><time>2026-04-24T10:00:47.841Z</time></trkpt><trkpt lat="40.4857583" lon="9.5989789"><ele>170.0</ele><time>2026-04-24T10:00:49.841Z</time></trkpt><trkpt lat="40.4856785" lon="9.5988808"><ele>170.0</ele><time>2026-04-24T10:00:51.84Z</time></trkpt><trkpt lat="40.4855957" lon="9.5987865"><ele>170.0</ele><time>2026-04-24T10:00:53.84Z</time></trkpt><trkpt lat="40.4855163" lon="9.5986921"><ele>170.2</ele><time>2026-04-24T10:00:55.842Z</time></trkpt><trkpt lat="40.4854379" lon="9.5985894"><ele>170.4</ele><time>2026-04-24T10:00:57.841Z</time></trkpt><trkpt lat="40.4853541" lon="9.5984866"><ele>170.60000000000002</ele><time>2026-04-24T10:00:59.84Z</time></trkpt><trkpt lat="40.4852735" lon="9.5983838"><ele>170.8</ele><time>2026-04-24T10:01:01.84Z</time></trkpt><trkpt lat="40.4851986" lon="9.5982788"><ele>171.0</ele><time>2026-04-24T10:01:03.841Z</time></trkpt><trkpt lat="40.4851172" lon="9.5981827"><ele>171.0</ele><time>2026-04-24T10:01:05.84Z</time></trkpt><trkpt lat="40.4850397" lon="9.5980841"><ele>171.0</ele><time>2026-04-24T10:01:07.841Z</time></trkpt><trkpt lat="40.4849648" lon="9.5979728"><ele>171.0</ele><time>2026-04-24T10:01:09.84Z</time></trkpt><trkpt lat="40.4848883" lon="9.5978568"><ele>171.0</ele><time>2026-04-24T10:01:11.84Z</time></trkpt><trkpt lat="40.4848142" lon="9.5977362"><ele>172.0</ele><time>2026-04-24T10:01:13.84Z</time></trkpt><trkpt lat="40.4847413" lon="9.5976159"><ele>173.0</ele><time>2026-04-24T10:01:15.841Z</time></trkpt><trkpt lat="40.4846673" lon="9.5975014"><ele>174.0</ele><time>2026-04-24T10:01:17.84Z</time></trkpt><trkpt lat="40.4845953" lon="9.5973832"><ele>175.0</ele><time>2026-04-24T10:01:19.84Z</time></trkpt><trkpt lat="40.4845154" lon="9.5972695"><ele>175.25</ele><time>2026-04-24T10:01:21.84Z</time></trkpt><trkpt lat="40.4844215" lon="9.5971719"><ele>175.5</ele><time>2026-04-24T10:01:23.84Z</time></trkpt><trkpt lat="40.4843156" lon="9.5970893"><ele>175.75</ele><time>2026-04-24T10:01:25.841Z</time></trkpt><trkpt lat="40.4842049" lon="9.5970264"><ele>176.0</ele><time>2026-04-24T10:01:27.841Z</time></trkpt><trkpt lat="40.4840992" lon="9.5969874"><ele>176.4</ele><time>2026-04-24T10:01:29.84Z</time></trkpt><trkpt lat="40.4839948" lon="9.5969492"><ele>176.8</ele><time>2026-04-24T10:01:31.84Z</time></trkpt><trkpt lat="40.4838974" lon="9.5969078"><ele>177.20000000000002</ele><time>2026-04-24T10:01:33.84Z</time></trkpt><trkpt lat="40.4838125" lon="9.5968497"><ele>177.60000000000002</ele><time>2026-04-24T10:01:35.84Z</time></trkpt><trkpt lat="40.483739" lon="9.5967792"><ele>178.0</ele><time>2026-04-24T10:01:37.84Z</time></trkpt><trkpt lat="40.4836629" lon="9.5967128"><ele>178.83333333333334</ele><time>2026-04-24T10:01:39.84Z</time></trkpt><trkpt lat="40.4835971" lon="9.596634"><ele>179.66666666666669</ele><time>2026-04-24T10:01:41.841Z</time></trkpt><trkpt lat="40.483537" lon="9.5965446"><ele>180.5</ele><time>2026-04-24T10:01:43.841Z</time></trkpt><trkpt lat="40.4834711" lon="9.5964651"><ele>181.33333333333334</ele><time>2026-04-24T10:01:45.84Z</time></trkpt><trkpt lat="40.4834084" lon="9.5963788"><ele>182.16666666666666</ele><time>2026-04-24T10:01:47.84Z</time></trkpt><trkpt lat="40.4833431" lon="9.5963062"><ele>183.0</ele><time>2026-04-24T10:01:49.841Z</time></trkpt><trkpt lat="40.4832851" lon="9.5962308"><ele>183.16666666666666</ele><time>2026-04-24T10:01:51.84Z</time></trkpt><trkpt lat="40.4832318" lon="9.5961504"><ele>183.33333333333334</ele><time>2026-04-24T10:01:53.84Z</time></trkpt><trkpt lat="40.4831738" lon="9.5960771"><ele>183.5</ele><time>2026-04-24T10:01:55.84Z</time></trkpt><trkpt lat="40.4831142" lon="9.596"><ele>183.66666666666669</ele><time>2026-04-24T10:01:57.84Z</time></trkpt><trkpt lat="40.4830556" lon="9.5959179"><ele>183.83333333333334</ele><time>2026-04-24T10:01:59.84Z</time></trkpt><trkpt lat="40.4829884" lon="9.59584"><ele>184.0</ele><time>2026-04-24T10:02:01.84Z</time></trkpt><trkpt lat="40.4829207" lon="9.5957513"><ele>184.0</ele><time>2026-04-24T10:02:03.84Z</time></trkpt><trkpt lat="40.4828508" lon="9.5956605"><ele>184.0</ele><time>2026-04-24T10:02:05.84Z</time></trkpt><trkpt lat="40.4827792" lon="9.5955655"><ele>184.0</ele><time>2026-04-24T10:02:07.84Z</time></trkpt><trkpt lat="40.4827029" lon="9.5954751"><ele>184.0</ele><time>2026-04-24T10:02:09.841Z</time></trkpt><trkpt lat="40.4826262" lon="9.5953752"><ele>184.0</ele><time>2026-04-24T10:02:11.84Z</time></trkpt><trkpt lat="40.4825521" lon="9.5952621"><ele>183.2</ele><time>2026-04-24T10:02:13.84Z</time></trkpt><trkpt lat="40.4824734" lon="9.5951566"><ele>182.39999999999998</ele><time>2026-04-24T10:02:15.84Z</time></trkpt><trkpt lat="40.4823962" lon="9.5950638"><ele>181.6</ele><time>2026-04-24T10:02:17.839Z</time></trkpt><trkpt lat="40.4823183" lon="9.5949735"><ele>180.8</ele><time>2026-04-24T10:02:19.841Z</time></trkpt><trkpt lat="40.4822443" lon="9.594879"><ele>180.0</ele><time>2026-04-24T10:02:21.84Z</time></trkpt><trkpt lat="40.4821751" lon="9.594774"><ele>180.0</ele><time>2026-04-24T10:02:23.841Z</time></trkpt><trkpt lat="40.4821038" lon="9.5946704"><ele>180.0</ele><time>2026-04-24T10:02:25.839Z</time></trkpt><trkpt lat="40.4820314" lon="9.5945757"><ele>180.0</ele><time>2026-04-24T10:02:27.841Z</time></trkpt><trkpt lat="40.4819603" lon="9.5944848"><ele>180.0</ele><time>2026-04-24T10:02:29.84Z</time></trkpt><trkpt lat="40.4818883" lon="9.5943908"><ele>180.0</ele><time>2026-04-24T10:02:31.841Z</time></trkpt><trkpt lat="40.4818232" lon="9.594303"><ele>180.8</ele><time>2026-04-24T10:02:33.84Z</time></trkpt><trkpt lat="40.4817571" lon="9.5942051"><ele>181.6</ele><time>2026-04-24T10:02:35.84Z</time></trkpt><trkpt lat="40.481682" lon="9.5941218"><ele>182.39999999999998</ele><time>2026-04-24T10:02:37.839Z</time></trkpt><trkpt lat="40.4816118" lon="9.5940311"><ele>183.2</ele><time>2026-04-24T10:02:39.84Z</time></trkpt><trkpt lat="40.4815512" lon="9.5939345"><ele>184.0</ele><time>2026-04-24T10:02:41.84Z</time></trkpt><trkpt lat="40.4814761" lon="9.5938464"><ele>184.0</ele><time>2026-04-24T10:02:43.84Z</time></trkpt><trkpt lat="40.4814086" lon="9.5937529"><ele>184.0</ele><time>2026-04-24T10:02:45.84Z</time></trkpt><trkpt lat="40.4813422" lon="9.5936565"><ele>184.0</ele><time>2026-04-24T10:02:47.84Z</time></trkpt><trkpt lat="40.4812704" lon="9.5935672"><ele>184.0</ele><time>2026-04-24T10:02:49.84Z</time></trkpt><trkpt lat="40.4812006" lon="9.5934796"><ele>184.0</ele><time>2026-04-24T10:02:51.84Z</time></trkpt><trkpt lat="40.4811316" lon="9.5933886"><ele>184.79999999999998</ele><time>2026-04-24T10:02:53.839Z</time></trkpt><trkpt lat="40.4810618" lon="9.5932989"><ele>185.6</ele><time>2026-04-24T10:02:55.839Z</time></trkpt><trkpt lat="40.4809899" lon="9.5932062"><ele>186.4</ele><time>2026-04-24T10:02:57.84Z</time></trkpt><trkpt lat="40.4809115" lon="9.5931161"><ele>187.2</ele><time>2026-04-24T10:02:59.84Z</time></trkpt><trkpt lat="40.4808371" lon="9.593035"><ele>188.0</ele><time>2026-04-24T10:03:01.841Z</time></trkpt><trkpt lat="40.4807639" lon="9.5929437"><ele>188.0</ele><time>2026-04-24T10:03:03.84Z</time></trkpt><trkpt lat="40.4806885" lon="9.5928535"><ele>188.0</ele><time>2026-04-24T10:03:05.84Z</time></trkpt><trkpt lat="40.4806109" lon="9.5927648"><ele>188.0</ele><time>2026-04-24T10:03:07.84Z</time></trkpt><trkpt lat="40.4805372" lon="9.592676"><ele>188.0</ele><time>2026-04-24T10:03:09.84Z</time></trkpt><trkpt lat="40.4804575" lon="9.5925934"><ele>188.0</ele><time>2026-04-24T10:03:11.841Z</time></trkpt><trkpt lat="40.4803802" lon="9.5925254"><ele>188.60000000000002</ele><time>2026-04-24T10:03:13.84Z</time></trkpt><trkpt lat="40.4803079" lon="9.592441"><ele>189.20000000000002</ele><time>2026-04-24T10:03:15.84Z</time></trkpt><trkpt lat="40.4802328" lon="9.5923795"><ele>189.8</ele><time>2026-04-24T10:03:17.84Z</time></trkpt><trkpt lat="40.480152" lon="9.5923164"><ele>190.4</ele><time>2026-04-24T10:03:19.84Z</time></trkpt><trkpt lat="40.4800661" lon="9.5922591"><ele>191.0</ele><time>2026-04-24T10:03:21.841Z</time></trkpt><trkpt lat="40.4799714" lon="9.5922251"><ele>191.0</ele><time>2026-04-24T10:03:23.841Z</time></trkpt><trkpt lat="40.4798741" lon="9.5921946"><ele>191.0</ele><time>2026-04-24T10:03:25.84Z</time></trkpt><trkpt lat="40.4797787" lon="9.5921617"><ele>191.0</ele><time>2026-04-24T10:03:27.841Z</time></trkpt><trkpt lat="40.4796879" lon="9.5921006"><ele>191.0</ele><time>2026-04-24T10:03:29.84Z</time></trkpt><trkpt lat="40.4795974" lon="9.5920397"><ele>191.0</ele><time>2026-04-24T10:03:31.839Z</time></trkpt><trkpt lat="40.4795112" lon="9.5919829"><ele>190.60000000000002</ele><time>2026-04-24T10:03:33.84Z</time></trkpt><trkpt lat="40.4794347" lon="9.591901"><ele>190.2</ele><time>2026-04-24T10:03:35.84Z</time></trkpt><trkpt lat="40.4793557" lon="9.5918238"><ele>189.8</ele><time>2026-04-24T10:03:37.84Z</time></trkpt><trkpt lat="40.4792766" lon="9.5917533"><ele>189.39999999999998</ele><time>2026-04-24T10:03:39.841Z</time></trkpt><trkpt lat="40.4791968" lon="9.5916876"><ele>189.0</ele><time>2026-04-24T10:03:41.839Z</time></trkpt><trkpt lat="40.479125" lon="9.5916087"><ele>189.0</ele><time>2026-04-24T10:03:43.84Z</time></trkpt><trkpt lat="40.4790525" lon="9.5915357"><ele>189.0</ele><time>2026-04-24T10:03:45.84Z</time></trkpt><trkpt lat="40.4789706" lon="9.5914669"><ele>189.0</ele><time>2026-04-24T10:03:47.84Z</time></trkpt><trkpt lat="40.4788966" lon="9.5913876"><ele>189.0</ele><time>2026-04-24T10:03:49.84Z</time></trkpt><trkpt lat="40.4788279" lon="9.5913099"><ele>189.0</ele><time>2026-04-24T10:03:51.84Z</time></trkpt><trkpt lat="40.4787546" lon="9.5912451"><ele>189.5</ele><time>2026-04-24T10:03:53.841Z</time></trkpt><trkpt lat="40.4786901" lon="9.5911631"><ele>190.0</ele><time>2026-04-24T10:03:55.84Z</time></trkpt><trkpt lat="40.4786274" lon="9.5910866"><ele>190.5</ele><time>2026-04-24T10:03:57.84Z</time></trkpt><trkpt lat="40.4785643" lon="9.5910091"><ele>191.0</ele><time>2026-04-24T10:03:59.841Z</time></trkpt><trkpt lat="40.4785089" lon="9.5909263"><ele>191.5</ele><time>2026-04-24T10:04:01.839Z</time></trkpt><trkpt lat="40.47845" lon="9.5908473"><ele>192.0</ele><time>2026-04-24T10:04:03.84Z</time></trkpt><trkpt lat="40.4783931" lon="9.5907666"><ele>192.0</ele><time>2026-04-24T10:04:05.839Z</time></trkpt><trkpt lat="40.4783372" lon="9.5906952"><ele>192.0</ele><time>2026-04-24T10:04:07.84Z</time></trkpt><trkpt lat="40.4782814" lon="9.590622"><ele>192.0</ele><time>2026-04-24T10:04:09.839Z</time></trkpt><trkpt lat="40.4782254" lon="9.590547"><ele>192.0</ele><time>2026-04-24T10:04:11.84Z</time></trkpt><trkpt lat="40.4781679" lon="9.5904793"><ele>192.0</ele><time>2026-04-24T10:04:13.839Z</time></trkpt><trkpt lat="40.4781101" lon="9.5904106"><ele>192.0</ele><time>2026-04-24T10:04:15.839Z</time></trkpt><trkpt lat="40.478047" lon="9.5903465"><ele>192.16666666666666</ele><time>2026-04-24T10:04:17.841Z</time></trkpt><trkpt lat="40.4779811" lon="9.590289"><ele>192.33333333333331</ele><time>2026-04-24T10:04:19.841Z</time></trkpt><trkpt lat="40.4779177" lon="9.5902336"><ele>192.5</ele><time>2026-04-24T10:04:21.84Z</time></trkpt><trkpt lat="40.4778488" lon="9.5901734"><ele>192.66666666666666</ele><time>2026-04-24T10:04:23.839Z</time></trkpt><trkpt lat="40.4777832" lon="9.5901223"><ele>192.83333333333331</ele><time>2026-04-24T10:04:25.805Z</time></trkpt><trkpt lat="40.4777121" lon="9.5900753"><ele>193.0</ele><time>2026-04-24T10:04:27.805Z</time></trkpt><trkpt lat="40.4776437" lon="9.5900252"><ele>193.99999999999997</ele><time>2026-04-24T10:04:29.84Z</time></trkpt><trkpt lat="40.4775801" lon="9.5899666"><ele>195.0</ele><time>2026-04-24T10:04:31.841Z</time></trkpt><trkpt lat="40.4775206" lon="9.5899054"><ele>196.0</ele><time>2026-04-24T10:04:33.848Z</time></trkpt><trkpt lat="40.4774509" lon="9.5898701"><ele>197.0</ele><time>2026-04-24T10:04:35.84Z</time></trkpt><trkpt lat="40.4773848" lon="9.5898191"><ele>197.99999999999997</ele><time>2026-04-24T10:04:37.84Z</time></trkpt><trkpt lat="40.4773168" lon="9.5897732"><ele>199.0</ele><time>2026-04-24T10:04:39.839Z</time></trkpt><trkpt lat="40.4772513" lon="9.5897312"><ele>198.99999999999997</ele><time>2026-04-24T10:04:41.84Z</time></trkpt><trkpt lat="40.4771843" lon="9.5896966"><ele>199.0</ele><time>2026-04-24T10:04:43.84Z</time></trkpt><trkpt lat="40.4771267" lon="9.5896377"><ele>199.0</ele><time>2026-04-24T10:04:45.84Z</time></trkpt><trkpt lat="40.4770655" lon="9.589587"><ele>199.0</ele><time>2026-04-24T10:04:47.842Z</time></trkpt><trkpt lat="40.4769955" lon="9.5895588"><ele>198.99999999999997</ele><time>2026-04-24T10:04:49.753Z</time></trkpt><trkpt lat="40.4769265" lon="9.5894973"><ele>199.0</ele><time>2026-04-24T10:04:51.84Z</time></trkpt><trkpt lat="40.4768571" lon="9.5894459"><ele>200.16666666666666</ele><time>2026-04-24T10:04:53.84Z</time></trkpt><trkpt lat="40.4767835" lon="9.5894018"><ele>201.33333333333331</ele><time>2026-04-24T10:04:55.839Z</time></trkpt><trkpt lat="40.4767193" lon="9.5893377"><ele>202.5</ele><time>2026-04-24T10:04:57.759Z</time></trkpt><trkpt lat="40.4766417" lon="9.5892869"><ele>203.66666666666669</ele><time>2026-04-24T10:04:59.84Z</time></trkpt><trkpt lat="40.4765655" lon="9.5892416"><ele>204.83333333333334</ele><time>2026-04-24T10:05:01.823Z</time></trkpt><trkpt lat="40.476491" lon="9.5891851"><ele>206.0</ele><time>2026-04-24T10:05:03.839Z</time></trkpt><trkpt lat="40.4764172" lon="9.5891382"><ele>206.00000000000003</ele><time>2026-04-24T10:05:05.84Z</time></trkpt><trkpt lat="40.4763524" lon="9.5890833"><ele>206.0</ele><time>2026-04-24T10:05:07.805Z</time></trkpt><trkpt lat="40.4762837" lon="9.5890303"><ele>206.0</ele><time>2026-04-24T10:05:09.795Z</time></trkpt><trkpt lat="40.4762092" lon="9.5889895"><ele>206.0</ele><time>2026-04-24T10:05:11.826Z</time></trkpt><trkpt lat="40.4761406" lon="9.5889423"><ele>206.00000000000003</ele><time>2026-04-24T10:05:13.84Z</time></trkpt><trkpt lat="40.4760716" lon="9.5888968"><ele>206.0</ele><time>2026-04-24T10:05:15.841Z</time></trkpt><trkpt lat="40.4760063" lon="9.5888389"><ele>206.16666666666669</ele><time>2026-04-24T10:05:17.84Z</time></trkpt><trkpt lat="40.4759349" lon="9.5887926"><ele>206.33333333333334</ele><time>2026-04-24T10:05:19.84Z</time></trkpt><trkpt lat="40.4758642" lon="9.5887419"><ele>206.5</ele><time>2026-04-24T10:05:21.84Z</time></trkpt><trkpt lat="40.475793" lon="9.5886791"><ele>206.66666666666669</ele><time>2026-04-24T10:05:23.84Z</time></trkpt><trkpt lat="40.4757176" lon="9.588621"><ele>206.83333333333334</ele><time>2026-04-24T10:05:25.841Z</time></trkpt><trkpt lat="40.4756407" lon="9.5885635"><ele>207.0</ele><time>2026-04-24T10:05:27.84Z</time></trkpt><trkpt lat="40.4755647" lon="9.5884942"><ele>207.0</ele><time>2026-04-24T10:05:29.84Z</time></trkpt><trkpt lat="40.4754854" lon="9.5884308"><ele>207.0</ele><time>2026-04-24T10:05:31.84Z</time></trkpt><trkpt lat="40.4754072" lon="9.588369"><ele>207.0</ele><time>2026-04-24T10:05:33.84Z</time></trkpt><trkpt lat="40.4753273" lon="9.5883005"><ele>207.0</ele><time>2026-04-24T10:05:35.839Z</time></trkpt><trkpt lat="40.4752451" lon="9.5882302"><ele>207.0</ele><time>2026-04-24T10:05:37.84Z</time></trkpt><trkpt lat="40.4751641" lon="9.5881559"><ele>207.8</ele><time>2026-04-24T10:05:39.84Z</time></trkpt><trkpt lat="40.4750809" lon="9.5880887"><ele>208.6</ele><time>2026-04-24T10:05:41.84Z</time></trkpt><trkpt lat="40.4749999" lon="9.5880155"><ele>209.4</ele><time>2026-04-24T10:05:43.84Z</time></trkpt><trkpt lat="40.4749181" lon="9.587941"><ele>210.20000000000002</ele><time>2026-04-24T10:05:45.84Z</time></trkpt><trkpt lat="40.4748381" lon="9.5878651"><ele>211.0</ele><time>2026-04-24T10:05:47.839Z</time></trkpt><trkpt lat="40.4747607" lon="9.5877923"><ele>211.0</ele><time>2026-04-24T10:05:49.84Z</time></trkpt><trkpt lat="40.4746805" lon="9.5877174"><ele>211.0</ele><time>2026-04-24T10:05:51.84Z</time></trkpt><trkpt lat="40.4746017" lon="9.587651"><ele>211.0</ele><time>2026-04-24T10:05:53.841Z</time></trkpt><trkpt lat="40.4745271" lon="9.5875742"><ele>211.0</ele><time>2026-04-24T10:05:55.841Z</time></trkpt><trkpt lat="40.474448" lon="9.5875043"><ele>211.0</ele><time>2026-04-24T10:05:57.839Z</time></trkpt><trkpt lat="40.4743602" lon="9.5874453"><ele>213.0</ele><time>2026-04-24T10:05:59.84Z</time></trkpt><trkpt lat="40.474275" lon="9.5873781"><ele>215.0</ele><time>2026-04-24T10:06:01.84Z</time></trkpt><trkpt lat="40.4742025" lon="9.5872957"><ele>217.00000000000003</ele><time>2026-04-24T10:06:03.84Z</time></trkpt><trkpt lat="40.4741148" lon="9.5872227"><ele>219.0</ele><time>2026-04-24T10:06:05.84Z</time></trkpt><trkpt lat="40.4740363" lon="9.5871484"><ele>221.0</ele><time>2026-04-24T10:06:07.841Z</time></trkpt><trkpt lat="40.4739507" lon="9.5870727"><ele>220.4</ele><time>2026-04-24T10:06:09.839Z</time></trkpt><trkpt lat="40.4738649" lon="9.5869982"><ele>219.8</ele><time>2026-04-24T10:06:11.839Z</time></trkpt><trkpt lat="40.473784" lon="9.5869238"><ele>219.20000000000002</ele><time>2026-04-24T10:06:13.841Z</time></trkpt><trkpt lat="40.4737025" lon="9.5868519"><ele>218.60000000000002</ele><time>2026-04-24T10:06:15.84Z</time></trkpt><trkpt lat="40.4736195" lon="9.5867797"><ele>218.0</ele><time>2026-04-24T10:06:17.84Z</time></trkpt><trkpt lat="40.4735449" lon="9.5867035"><ele>219.8</ele><time>2026-04-24T10:06:19.841Z</time></trkpt><trkpt lat="40.4734596" lon="9.5866223"><ele>221.60000000000002</ele><time>2026-04-24T10:06:21.839Z</time></trkpt><trkpt lat="40.4733822" lon="9.5865503"><ele>223.39999999999998</ele><time>2026-04-24T10:06:23.84Z</time></trkpt><trkpt lat="40.4733008" lon="9.5864765"><ele>225.2</ele><time>2026-04-24T10:06:25.84Z</time></trkpt><trkpt lat="40.4732205" lon="9.5863987"><ele>227.0</ele><time>2026-04-24T10:06:27.84Z</time></trkpt><trkpt lat="40.4731351" lon="9.5863263"><ele>227.0</ele><time>2026-04-24T10:06:29.84Z</time></trkpt><trkpt lat="40.4730487" lon="9.5862501"><ele>227.0</ele><time>2026-04-24T10:06:31.841Z</time></trkpt><trkpt lat="40.4729582" lon="9.5861748"><ele>227.0</ele><time>2026-04-24T10:06:33.839Z</time></trkpt><trkpt lat="40.4728695" lon="9.586093"><ele>227.0</ele><time>2026-04-24T10:06:35.841Z</time></trkpt><trkpt lat="40.4727795" lon="9.586005"><ele>227.0</ele><time>2026-04-24T10:06:37.839Z</time></trkpt><trkpt lat="40.4726889" lon="9.5859254"><ele>227.6</ele><time>2026-04-24T10:06:39.84Z</time></trkpt><trkpt lat="40.4725961" lon="9.5858454"><ele>228.2</ele><time>2026-04-24T10:06:41.839Z</time></trkpt><trkpt lat="40.4725083" lon="9.5857589"><ele>228.8</ele><time>2026-04-24T10:06:43.839Z</time></trkpt><trkpt lat="40.4724165" lon="9.5856754"><ele>229.4</ele><time>2026-04-24T10:06:45.839Z</time></trkpt><trkpt lat="40.4723267" lon="9.585599"><ele>230.0</ele><time>2026-04-24T10:06:47.84Z</time></trkpt><trkpt lat="40.4722429" lon="9.5855224"><ele>230.0</ele><time>2026-04-24T10:06:49.839Z</time></trkpt><trkpt lat="40.4721578" lon="9.5854451"><ele>230.0</ele><time>2026-04-24T10:06:51.84Z</time></trkpt><trkpt lat="40.4720685" lon="9.5853678"><ele>230.0</ele><time>2026-04-24T10:06:53.841Z</time></trkpt><trkpt lat="40.4719777" lon="9.5852793"><ele>230.0</ele><time>2026-04-24T10:06:55.839Z</time></trkpt><trkpt lat="40.4718873" lon="9.5851916"><ele>230.0</ele><time>2026-04-24T10:06:57.84Z</time></trkpt><trkpt lat="40.4717956" lon="9.5851061"><ele>230.6</ele><time>2026-04-24T10:06:59.84Z</time></trkpt><trkpt lat="40.4717029" lon="9.585022"><ele>231.2</ele><time>2026-04-24T10:07:01.84Z</time></trkpt><trkpt lat="40.471611" lon="9.5849339"><ele>231.8</ele><time>2026-04-24T10:07:03.84Z</time></trkpt><trkpt lat="40.471522" lon="9.5848483"><ele>232.4</ele><time>2026-04-24T10:07:05.84Z</time></trkpt><trkpt lat="40.4714341" lon="9.5847648"><ele>233.0</ele><time>2026-04-24T10:07:07.84Z</time></trkpt><trkpt lat="40.4713501" lon="9.5846766"><ele>233.75</ele><time>2026-04-24T10:07:09.839Z</time></trkpt><trkpt lat="40.4712673" lon="9.5845706"><ele>234.5</ele><time>2026-04-24T10:07:11.839Z</time></trkpt><trkpt lat="40.4711821" lon="9.5844652"><ele>235.25</ele><time>2026-04-24T10:07:13.84Z</time></trkpt><trkpt lat="40.4710999" lon="9.5843549"><ele>236.0</ele><time>2026-04-24T10:07:15.839Z</time></trkpt><trkpt lat="40.4710141" lon="9.5842433"><ele>236.00000000000003</ele><time>2026-04-24T10:07:17.84Z</time></trkpt><trkpt lat="40.470926" lon="9.5841247"><ele>236.0</ele><time>2026-04-24T10:07:19.841Z</time></trkpt><trkpt lat="40.4708802" lon="9.5840652"><ele>236.0</ele><time>2026-04-24T10:07:20.84Z</time></trkpt><trkpt lat="40.470796" lon="9.5839435"><ele>236.0</ele><time>2026-04-24T10:07:22.84Z</time></trkpt><trkpt lat="40.4707497" lon="9.5838847"><ele>236.00000000000003</ele><time>2026-04-24T10:07:23.841Z</time></trkpt><trkpt lat="40.4707024" lon="9.5838283"><ele>236.0</ele><time>2026-04-24T10:07:24.841Z</time></trkpt><trkpt lat="40.4706569" lon="9.5837678"><ele>236.0</ele><time>2026-04-24T10:07:25.84Z</time></trkpt><trkpt lat="40.4706105" lon="9.5837056"><ele>236.0</ele><time>2026-04-24T10:07:26.839Z</time></trkpt><trkpt lat="40.4705613" lon="9.5836478"><ele>236.0</ele><time>2026-04-24T10:07:27.839Z</time></trkpt><trkpt lat="40.4705112" lon="9.5835923"><ele>236.0</ele><time>2026-04-24T10:07:28.841Z</time></trkpt><trkpt lat="40.4704592" lon="9.5835373"><ele>236.0</ele><time>2026-04-24T10:07:29.839Z</time></trkpt><trkpt lat="40.4704058" lon="9.5834867"><ele>236.0</ele><time>2026-04-24T10:07:30.84Z</time></trkpt><trkpt lat="40.4703485" lon="9.5834427"><ele>236.0</ele><time>2026-04-24T10:07:31.839Z</time></trkpt><trkpt lat="40.4702887" lon="9.5833922"><ele>235.42857142857142</ele><time>2026-04-24T10:07:32.84Z</time></trkpt><trkpt lat="40.4702272" lon="9.5833402"><ele>234.8571428571429</ele><time>2026-04-24T10:07:33.84Z</time></trkpt><trkpt lat="40.4701646" lon="9.583291"><ele>234.2857142857143</ele><time>2026-04-24T10:07:34.841Z</time></trkpt><trkpt lat="40.4701047" lon="9.5832449"><ele>233.71428571428572</ele><time>2026-04-24T10:07:35.839Z</time></trkpt><trkpt lat="40.4700453" lon="9.5831933"><ele>233.14285714285717</ele><time>2026-04-24T10:07:36.841Z</time></trkpt><trkpt lat="40.4699839" lon="9.5831439"><ele>232.5714285714286</ele><time>2026-04-24T10:07:37.84Z</time></trkpt><trkpt lat="40.4699218" lon="9.5830975"><ele>232.00000000000003</ele><time>2026-04-24T10:07:38.84Z</time></trkpt><trkpt lat="40.4698599" lon="9.5830498"><ele>232.00000000000003</ele><time>2026-04-24T10:07:39.84Z</time></trkpt><trkpt lat="40.4697987" lon="9.5830027"><ele>232.0</ele><time>2026-04-24T10:07:40.839Z</time></trkpt><trkpt lat="40.4697379" lon="9.5829521"><ele>232.00000000000003</ele><time>2026-04-24T10:07:41.839Z</time></trkpt><trkpt lat="40.469677" lon="9.5829069"><ele>232.00000000000003</ele><time>2026-04-24T10:07:42.84Z</time></trkpt><trkpt lat="40.4696157" lon="9.5828637"><ele>232.0</ele><time>2026-04-24T10:07:43.841Z</time></trkpt><trkpt lat="40.469553" lon="9.5828175"><ele>232.00000000000003</ele><time>2026-04-24T10:07:44.84Z</time></trkpt><trkpt lat="40.4694925" lon="9.5827704"><ele>232.00000000000003</ele><time>2026-04-24T10:07:45.84Z</time></trkpt><trkpt lat="40.4694299" lon="9.5827206"><ele>231.42857142857144</ele><time>2026-04-24T10:07:46.839Z</time></trkpt><trkpt lat="40.4693685" lon="9.5826747"><ele>230.85714285714286</ele><time>2026-04-24T10:07:47.839Z</time></trkpt><trkpt lat="40.4693071" lon="9.5826314"><ele>230.28571428571428</ele><time>2026-04-24T10:07:48.84Z</time></trkpt><trkpt lat="40.4692473" lon="9.582586"><ele>229.71428571428572</ele><time>2026-04-24T10:07:49.84Z</time></trkpt><trkpt lat="40.469189" lon="9.5825377"><ele>229.1428571428571</ele><time>2026-04-24T10:07:50.84Z</time></trkpt><trkpt lat="40.4691274" lon="9.5824918"><ele>228.57142857142856</ele><time>2026-04-24T10:07:51.84Z</time></trkpt><trkpt lat="40.4690656" lon="9.5824453"><ele>228.0</ele><time>2026-04-24T10:07:52.84Z</time></trkpt><trkpt lat="40.4690036" lon="9.5824031"><ele>228.0</ele><time>2026-04-24T10:07:53.841Z</time></trkpt><trkpt lat="40.4689425" lon="9.5823615"><ele>228.0</ele><time>2026-04-24T10:07:54.84Z</time></trkpt><trkpt lat="40.468885" lon="9.5823215"><ele>228.0</ele><time>2026-04-24T10:07:55.839Z</time></trkpt><trkpt lat="40.4687851" lon="9.5822419"><ele>228.0</ele><time>2026-04-24T10:07:57.839Z</time></trkpt><trkpt lat="40.4686868" lon="9.5821676"><ele>228.0</ele><time>2026-04-24T10:07:59.839Z</time></trkpt><trkpt lat="40.4685839" lon="9.5820953"><ele>228.33333333333334</ele><time>2026-04-24T10:08:01.84Z</time></trkpt><trkpt lat="40.468481" lon="9.5820033"><ele>228.66666666666669</ele><time>2026-04-24T10:08:03.84Z</time></trkpt><trkpt lat="40.4684288" lon="9.5819562"><ele>229.0</ele><time>2026-04-24T10:08:04.84Z</time></trkpt><trkpt lat="40.4683727" lon="9.5819176"><ele>229.33333333333334</ele><time>2026-04-24T10:08:05.84Z</time></trkpt><trkpt lat="40.4682633" lon="9.5818268"><ele>229.66666666666669</ele><time>2026-04-24T10:08:07.84Z</time></trkpt><trkpt lat="40.4682057" lon="9.5817772"><ele>230.0</ele><time>2026-04-24T10:08:08.839Z</time></trkpt><trkpt lat="40.4681483" lon="9.581729"><ele>230.00000000000003</ele><time>2026-04-24T10:08:09.839Z</time></trkpt><trkpt lat="40.4680869" lon="9.5816801"><ele>230.0</ele><time>2026-04-24T10:08:10.84Z</time></trkpt><trkpt lat="40.4680233" lon="9.5816247"><ele>230.0</ele><time>2026-04-24T10:08:11.839Z</time></trkpt><trkpt lat="40.4679612" lon="9.5815671"><ele>230.0</ele><time>2026-04-24T10:08:12.839Z</time></trkpt><trkpt lat="40.4678964" lon="9.58151"><ele>230.00000000000003</ele><time>2026-04-24T10:08:13.839Z</time></trkpt><trkpt lat="40.4678312" lon="9.5814498"><ele>230.0</ele><time>2026-04-24T10:08:14.839Z</time></trkpt><trkpt lat="40.4677632" lon="9.5813887"><ele>229.33333333333334</ele><time>2026-04-24T10:08:15.84Z</time></trkpt><trkpt lat="40.4676937" lon="9.5813333"><ele>228.66666666666669</ele><time>2026-04-24T10:08:16.841Z</time></trkpt><trkpt lat="40.467625" lon="9.581279"><ele>228.0</ele><time>2026-04-24T10:08:17.839Z</time></trkpt><trkpt lat="40.4675566" lon="9.5812204"><ele>227.33333333333331</ele><time>2026-04-24T10:08:18.841Z</time></trkpt><trkpt lat="40.4674891" lon="9.5811577"><ele>226.66666666666666</ele><time>2026-04-24T10:08:19.84Z</time></trkpt><trkpt lat="40.4674207" lon="9.5810963"><ele>226.0</ele><time>2026-04-24T10:08:20.841Z</time></trkpt><trkpt lat="40.4673547" lon="9.581041"><ele>225.66666666666666</ele><time>2026-04-24T10:08:21.839Z</time></trkpt><trkpt lat="40.4672896" lon="9.5809814"><ele>225.33333333333331</ele><time>2026-04-24T10:08:22.841Z</time></trkpt><trkpt lat="40.4672268" lon="9.5809248"><ele>225.0</ele><time>2026-04-24T10:08:23.839Z</time></trkpt><trkpt lat="40.4671662" lon="9.5808681"><ele>224.66666666666669</ele><time>2026-04-24T10:08:24.84Z</time></trkpt><trkpt lat="40.4671051" lon="9.5808113"><ele>224.33333333333334</ele><time>2026-04-24T10:08:25.839Z</time></trkpt><trkpt lat="40.4670454" lon="9.5807536"><ele>224.0</ele><time>2026-04-24T10:08:26.839Z</time></trkpt><trkpt lat="40.4669852" lon="9.5807"><ele>224.0</ele><time>2026-04-24T10:08:27.84Z</time></trkpt><trkpt lat="40.4669251" lon="9.5806472"><ele>224.0</ele><time>2026-04-24T10:08:28.839Z</time></trkpt><trkpt lat="40.4668662" lon="9.5805971"><ele>224.0</ele><time>2026-04-24T10:08:29.839Z</time></trkpt><trkpt lat="40.4668064" lon="9.5805473"><ele>224.0</ele><time>2026-04-24T10:08:30.839Z</time></trkpt><trkpt lat="40.4667465" lon="9.5804948"><ele>224.0</ele><time>2026-04-24T10:08:31.839Z</time></trkpt><trkpt lat="40.4666866" lon="9.5804391"><ele>224.0</ele><time>2026-04-24T10:08:32.84Z</time></trkpt><trkpt lat="40.4666267" lon="9.5803867"><ele>224.0</ele><time>2026-04-24T10:08:33.839Z</time></trkpt><trkpt lat="40.4665655" lon="9.5803358"><ele>223.14285714285714</ele><time>2026-04-24T10:08:34.84Z</time></trkpt><trkpt lat="40.466505" lon="9.5802832"><ele>222.28571428571428</ele><time>2026-04-24T10:08:35.839Z</time></trkpt><trkpt lat="40.4664443" lon="9.5802272"><ele>221.42857142857144</ele><time>2026-04-24T10:08:36.84Z</time></trkpt><trkpt lat="40.4663838" lon="9.580166"><ele>220.57142857142856</ele><time>2026-04-24T10:08:37.84Z</time></trkpt><trkpt lat="40.4663294" lon="9.580105"><ele>219.71428571428572</ele><time>2026-04-24T10:08:38.839Z</time></trkpt><trkpt lat="40.4662783" lon="9.5800459"><ele>218.85714285714286</ele><time>2026-04-24T10:08:39.839Z</time></trkpt><trkpt lat="40.466234" lon="9.5799867"><ele>218.0</ele><time>2026-04-24T10:08:40.839Z</time></trkpt><trkpt lat="40.4661536" lon="9.579887"><ele>218.0</ele><time>2026-04-24T10:08:42.84Z</time></trkpt><trkpt lat="40.4660768" lon="9.5797919"><ele>218.0</ele><time>2026-04-24T10:08:44.841Z</time></trkpt><trkpt lat="40.4660024" lon="9.5796879"><ele>218.0</ele><time>2026-04-24T10:08:46.839Z</time></trkpt><trkpt lat="40.4659219" lon="9.5795864"><ele>218.0</ele><time>2026-04-24T10:08:48.839Z</time></trkpt><trkpt lat="40.4658418" lon="9.5794717"><ele>218.0</ele><time>2026-04-24T10:08:50.839Z</time></trkpt><trkpt lat="40.4657554" lon="9.5793523"><ele>219.71428571428572</ele><time>2026-04-24T10:08:52.84Z</time></trkpt><trkpt lat="40.4657144" lon="9.5792845"><ele>221.42857142857144</ele><time>2026-04-24T10:08:53.839Z</time></trkpt><trkpt lat="40.465675" lon="9.5792085"><ele>223.1428571428571</ele><time>2026-04-24T10:08:54.84Z</time></trkpt><trkpt lat="40.4656369" lon="9.5791251"><ele>224.85714285714283</ele><time>2026-04-24T10:08:55.84Z</time></trkpt><trkpt lat="40.4655963" lon="9.5790375"><ele>226.57142857142856</ele><time>2026-04-24T10:08:56.84Z</time></trkpt><trkpt lat="40.4655506" lon="9.5789533"><ele>228.28571428571425</ele><time>2026-04-24T10:08:57.84Z</time></trkpt><trkpt lat="40.4655053" lon="9.5788673"><ele>229.99999999999997</ele><time>2026-04-24T10:08:58.841Z</time></trkpt><trkpt lat="40.4654629" lon="9.5787795"><ele>228.33333333333334</ele><time>2026-04-24T10:08:59.839Z</time></trkpt><trkpt lat="40.4654194" lon="9.5786909"><ele>226.66666666666669</ele><time>2026-04-24T10:09:00.84Z</time></trkpt><trkpt lat="40.4653731" lon="9.5786063"><ele>225.0</ele><time>2026-04-24T10:09:01.84Z</time></trkpt><trkpt lat="40.4653319" lon="9.5785234"><ele>223.33333333333331</ele><time>2026-04-24T10:09:02.84Z</time></trkpt><trkpt lat="40.4652923" lon="9.5784434"><ele>221.66666666666666</ele><time>2026-04-24T10:09:03.841Z</time></trkpt><trkpt lat="40.4652505" lon="9.5783665"><ele>220.0</ele><time>2026-04-24T10:09:04.841Z</time></trkpt><trkpt lat="40.465208" lon="9.5782922"><ele>219.28571428571428</ele><time>2026-04-24T10:09:05.839Z</time></trkpt><trkpt lat="40.4651637" lon="9.57822"><ele>218.57142857142856</ele><time>2026-04-24T10:09:06.839Z</time></trkpt><trkpt lat="40.4651159" lon="9.5781471"><ele>217.85714285714283</ele><time>2026-04-24T10:09:07.84Z</time></trkpt><trkpt lat="40.4650626" lon="9.5780829"><ele>217.14285714285714</ele><time>2026-04-24T10:09:08.841Z</time></trkpt><trkpt lat="40.4650118" lon="9.5780163"><ele>216.42857142857144</ele><time>2026-04-24T10:09:09.84Z</time></trkpt><trkpt lat="40.4649638" lon="9.5779459"><ele>215.7142857142857</ele><time>2026-04-24T10:09:10.84Z</time></trkpt><trkpt lat="40.4649184" lon="9.5778667"><ele>215.0</ele><time>2026-04-24T10:09:11.839Z</time></trkpt><trkpt lat="40.4648691" lon="9.5777903"><ele>213.83333333333334</ele><time>2026-04-24T10:09:12.84Z</time></trkpt><trkpt lat="40.4648135" lon="9.5777164"><ele>212.66666666666669</ele><time>2026-04-24T10:09:13.839Z</time></trkpt><trkpt lat="40.4647615" lon="9.5776429"><ele>211.5</ele><time>2026-04-24T10:09:14.84Z</time></trkpt><trkpt lat="40.4647102" lon="9.5775677"><ele>210.33333333333331</ele><time>2026-04-24T10:09:15.839Z</time></trkpt><trkpt lat="40.464659" lon="9.5774844"><ele>209.16666666666666</ele><time>2026-04-24T10:09:16.84Z</time></trkpt><trkpt lat="40.4646061" lon="9.5773982"><ele>208.0</ele><time>2026-04-24T10:09:17.84Z</time></trkpt><trkpt lat="40.4645491" lon="9.5773186"><ele>207.99999999999997</ele><time>2026-04-24T10:09:18.839Z</time></trkpt><trkpt lat="40.4644895" lon="9.5772394"><ele>208.0</ele><time>2026-04-24T10:09:19.84Z</time></trkpt><trkpt lat="40.4644342" lon="9.5771575"><ele>208.0</ele><time>2026-04-24T10:09:20.839Z</time></trkpt><trkpt lat="40.4643829" lon="9.5770714"><ele>208.0</ele><time>2026-04-24T10:09:21.839Z</time></trkpt><trkpt lat="40.4643275" lon="9.5769881"><ele>207.99999999999997</ele><time>2026-04-24T10:09:22.84Z</time></trkpt><trkpt lat="40.4642717" lon="9.5769097"><ele>208.0</ele><time>2026-04-24T10:09:23.839Z</time></trkpt><trkpt lat="40.464219" lon="9.5768313"><ele>208.33333333333331</ele><time>2026-04-24T10:09:24.839Z</time></trkpt><trkpt lat="40.4641663" lon="9.5767538"><ele>208.66666666666666</ele><time>2026-04-24T10:09:25.84Z</time></trkpt><trkpt lat="40.4641221" lon="9.5766742"><ele>209.0</ele><time>2026-04-24T10:09:26.839Z</time></trkpt><trkpt lat="40.4640812" lon="9.576599"><ele>209.33333333333331</ele><time>2026-04-24T10:09:27.84Z</time></trkpt><trkpt lat="40.464037" lon="9.5765238"><ele>209.66666666666666</ele><time>2026-04-24T10:09:28.839Z</time></trkpt><trkpt lat="40.4639955" lon="9.5764574"><ele>210.0</ele><time>2026-04-24T10:09:29.841Z</time></trkpt><trkpt lat="40.4639395" lon="9.5763445"><ele>210.0</ele><time>2026-04-24T10:09:31.84Z</time></trkpt><trkpt lat="40.4639063" lon="9.5762611"><ele>210.0</ele><time>2026-04-24T10:09:33.839Z</time></trkpt><trkpt lat="40.4639044" lon="9.576346"><ele>210.0</ele><time>2026-04-24T10:09:41.839Z</time></trkpt><trkpt lat="40.463946" lon="9.5764121"><ele>210.0</ele><time>2026-04-24T10:09:43.841Z</time></trkpt><trkpt lat="40.4639815" lon="9.5764901"><ele>210.0</ele><time>2026-04-24T10:09:45.839Z</time></trkpt><trkpt lat="40.464028" lon="9.5765687"><ele>210.0</ele><time>2026-04-24T10:09:47.839Z</time></trkpt><trkpt lat="40.4640803" lon="9.5766497"><ele>210.0</ele><time>2026-04-24T10:09:49.84Z</time></trkpt><trkpt lat="40.4641385" lon="9.576729"><ele>210.0</ele><time>2026-04-24T10:09:51.839Z</time></trkpt><trkpt lat="40.4641898" lon="9.5768103"><ele>210.0</ele><time>2026-04-24T10:09:53.841Z</time></trkpt><trkpt lat="40.4642362" lon="9.5768971"><ele>210.0</ele><time>2026-04-24T10:09:55.839Z</time></trkpt><trkpt lat="40.464288" lon="9.5769778"><ele>210.0</ele><time>2026-04-24T10:09:57.839Z</time></trkpt><trkpt lat="40.4643414" lon="9.5770546"><ele>210.0</ele><time>2026-04-24T10:09:59.84Z</time></trkpt><trkpt lat="40.4643958" lon="9.5771381"><ele>210.0</ele><time>2026-04-24T10:10:01.765Z</time></trkpt><trkpt lat="40.4644542" lon="9.5772211"><ele>209.66666666666666</ele><time>2026-04-24T10:10:03.84Z</time></trkpt><trkpt lat="40.4645069" lon="9.5772992"><ele>209.33333333333331</ele><time>2026-04-24T10:10:05.823Z</time></trkpt><trkpt lat="40.4645624" lon="9.5773706"><ele>209.0</ele><time>2026-04-24T10:10:07.823Z</time></trkpt><trkpt lat="40.4646139" lon="9.5774434"><ele>208.66666666666666</ele><time>2026-04-24T10:10:09.839Z</time></trkpt><trkpt lat="40.4646618" lon="9.5775134"><ele>208.33333333333331</ele><time>2026-04-24T10:10:11.752Z</time></trkpt><trkpt lat="40.4647218" lon="9.5775774"><ele>208.0</ele><time>2026-04-24T10:10:13.839Z</time></trkpt><trkpt lat="40.4647656" lon="9.5776585"><ele>209.16666666666666</ele><time>2026-04-24T10:10:15.771Z</time></trkpt><trkpt lat="40.4648046" lon="9.5777509"><ele>210.33333333333331</ele><time>2026-04-24T10:10:17.839Z</time></trkpt><trkpt lat="40.4648612" lon="9.5778285"><ele>211.5</ele><time>2026-04-24T10:10:19.841Z</time></trkpt><trkpt lat="40.464915" lon="9.577912"><ele>212.66666666666669</ele><time>2026-04-24T10:10:21.84Z</time></trkpt><trkpt lat="40.4649712" lon="9.5779931"><ele>213.83333333333334</ele><time>2026-04-24T10:10:23.839Z</time></trkpt><trkpt lat="40.4650309" lon="9.578069"><ele>215.0</ele><time>2026-04-24T10:10:25.802Z</time></trkpt><trkpt lat="40.4650891" lon="9.5781442"><ele>215.00000000000003</ele><time>2026-04-24T10:10:27.839Z</time></trkpt><trkpt lat="40.4651355" lon="9.5782341"><ele>215.0</ele><time>2026-04-24T10:10:29.84Z</time></trkpt><trkpt lat="40.4651868" lon="9.5783203"><ele>215.0</ele><time>2026-04-24T10:10:31.839Z</time></trkpt><trkpt lat="40.4652409" lon="9.5784098"><ele>215.0</ele><time>2026-04-24T10:10:33.84Z</time></trkpt><trkpt lat="40.465299" lon="9.5785027"><ele>215.00000000000003</ele><time>2026-04-24T10:10:35.84Z</time></trkpt><trkpt lat="40.4653573" lon="9.5786085"><ele>215.0</ele><time>2026-04-24T10:10:37.84Z</time></trkpt><trkpt lat="40.465415" lon="9.5787144"><ele>217.50000000000003</ele><time>2026-04-24T10:10:39.84Z</time></trkpt><trkpt lat="40.4654645" lon="9.5788209"><ele>220.0</ele><time>2026-04-24T10:10:41.839Z</time></trkpt><trkpt lat="40.4655181" lon="9.5789273"><ele>222.5</ele><time>2026-04-24T10:10:43.839Z</time></trkpt><trkpt lat="40.4655642" lon="9.5790272"><ele>225.0</ele><time>2026-04-24T10:10:45.839Z</time></trkpt><trkpt lat="40.4656102" lon="9.5791188"><ele>227.50000000000003</ele><time>2026-04-24T10:10:47.839Z</time></trkpt><trkpt lat="40.4656557" lon="9.5792072"><ele>230.0</ele><time>2026-04-24T10:10:49.84Z</time></trkpt><trkpt lat="40.4657076" lon="9.5792929"><ele>230.00000000000003</ele><time>2026-04-24T10:10:51.841Z</time></trkpt><trkpt lat="40.4657642" lon="9.5793708"><ele>230.0</ele><time>2026-04-24T10:10:53.84Z</time></trkpt><trkpt lat="40.465828" lon="9.5794373"><ele>230.0</ele><time>2026-04-24T10:10:55.781Z</time></trkpt><trkpt lat="40.4658827" lon="9.5795038"><ele>230.0</ele><time>2026-04-24T10:10:57.839Z</time></trkpt><trkpt lat="40.4659322" lon="9.5795818"><ele>230.00000000000003</ele><time>2026-04-24T10:10:59.839Z</time></trkpt><trkpt lat="40.4659762" lon="9.5796645"><ele>230.0</ele><time>2026-04-24T10:11:01.84Z</time></trkpt><trkpt lat="40.4660295" lon="9.5797295"><ele>231.66666666666669</ele><time>2026-04-24T10:11:03.839Z</time></trkpt><trkpt lat="40.4660678" lon="9.579815"><ele>233.33333333333334</ele><time>2026-04-24T10:11:05.839Z</time></trkpt><trkpt lat="40.4661229" lon="9.5798852"><ele>235.0</ele><time>2026-04-24T10:11:07.84Z</time></trkpt><trkpt lat="40.4661807" lon="9.5799573"><ele>236.66666666666669</ele><time>2026-04-24T10:11:09.839Z</time></trkpt><trkpt lat="40.4662335" lon="9.5800362"><ele>238.33333333333334</ele><time>2026-04-24T10:11:11.839Z</time></trkpt><trkpt lat="40.4662924" lon="9.5801102"><ele>240.0</ele><time>2026-04-24T10:11:13.839Z</time></trkpt><trkpt lat="40.466356" lon="9.5801729"><ele>240.0</ele><time>2026-04-24T10:11:15.839Z</time></trkpt><trkpt lat="40.4664191" lon="9.5802396"><ele>240.0</ele><time>2026-04-24T10:11:17.84Z</time></trkpt><trkpt lat="40.4664859" lon="9.5803109"><ele>240.0</ele><time>2026-04-24T10:11:19.839Z</time></trkpt><trkpt lat="40.4665538" lon="9.5803807"><ele>240.0</ele><time>2026-04-24T10:11:21.84Z</time></trkpt><trkpt lat="40.4666275" lon="9.5804417"><ele>240.0</ele><time>2026-04-24T10:11:23.839Z</time></trkpt><trkpt lat="40.466701" lon="9.5805012"><ele>240.0</ele><time>2026-04-24T10:11:25.84Z</time></trkpt><trkpt lat="40.4667696" lon="9.5805652"><ele>239.0</ele><time>2026-04-24T10:11:27.839Z</time></trkpt><trkpt lat="40.4668352" lon="9.5806291"><ele>238.0</ele><time>2026-04-24T10:11:29.84Z</time></trkpt><trkpt lat="40.466904" lon="9.5806929"><ele>237.0</ele><time>2026-04-24T10:11:31.84Z</time></trkpt><trkpt lat="40.4669774" lon="9.5807576"><ele>236.0</ele><time>2026-04-24T10:11:33.839Z</time></trkpt><trkpt lat="40.4670522" lon="9.5808131"><ele>235.0</ele><time>2026-04-24T10:11:35.84Z</time></trkpt><trkpt lat="40.4671236" lon="9.5808749"><ele>234.0</ele><time>2026-04-24T10:11:37.84Z</time></trkpt><trkpt lat="40.4671989" lon="9.5809341"><ele>234.0</ele><time>2026-04-24T10:11:39.839Z</time></trkpt><trkpt lat="40.4672722" lon="9.5809977"><ele>234.0</ele><time>2026-04-24T10:11:41.823Z</time></trkpt><trkpt lat="40.467344" lon="9.5810677"><ele>234.0</ele><time>2026-04-24T10:11:43.839Z</time></trkpt><trkpt lat="40.4674166" lon="9.5811343"><ele>234.0</ele><time>2026-04-24T10:11:45.839Z</time></trkpt><trkpt lat="40.4674904" lon="9.5811939"><ele>234.0</ele><time>2026-04-24T10:11:47.839Z</time></trkpt><trkpt lat="40.4675625" lon="9.5812586"><ele>234.0</ele><time>2026-04-24T10:11:49.839Z</time></trkpt><trkpt lat="40.4676453" lon="9.5813349"><ele>233.33333333333334</ele><time>2026-04-24T10:11:52.527Z</time></trkpt><trkpt lat="40.4677087" lon="9.5813706"><ele>232.66666666666669</ele><time>2026-04-24T10:11:53.839Z</time></trkpt><trkpt lat="40.4677816" lon="9.5814412"><ele>232.0</ele><time>2026-04-24T10:11:55.839Z</time></trkpt><trkpt lat="40.4678515" lon="9.5815155"><ele>231.33333333333334</ele><time>2026-04-24T10:11:57.84Z</time></trkpt><trkpt lat="40.4679286" lon="9.5815793"><ele>230.66666666666669</ele><time>2026-04-24T10:11:59.84Z</time></trkpt><trkpt lat="40.4680012" lon="9.5816418"><ele>230.0</ele><time>2026-04-24T10:12:01.84Z</time></trkpt><trkpt lat="40.4680727" lon="9.5817053"><ele>230.00000000000003</ele><time>2026-04-24T10:12:03.84Z</time></trkpt><trkpt lat="40.4681449" lon="9.5817665"><ele>230.0</ele><time>2026-04-24T10:12:05.84Z</time></trkpt><trkpt lat="40.4682158" lon="9.5818219"><ele>230.0</ele><time>2026-04-24T10:12:07.839Z</time></trkpt><trkpt lat="40.4682839" lon="9.58188"><ele>230.0</ele><time>2026-04-24T10:12:09.839Z</time></trkpt><trkpt lat="40.4683552" lon="9.5819366"><ele>230.00000000000003</ele><time>2026-04-24T10:12:11.84Z</time></trkpt><trkpt lat="40.4684272" lon="9.5819923"><ele>230.0</ele><time>2026-04-24T10:12:13.84Z</time></trkpt><trkpt lat="40.4684996" lon="9.5820565"><ele>229.83333333333334</ele><time>2026-04-24T10:12:15.84Z</time></trkpt><trkpt lat="40.4685749" lon="9.5821119"><ele>229.66666666666669</ele><time>2026-04-24T10:12:17.84Z</time></trkpt><trkpt lat="40.4686545" lon="9.5821657"><ele>229.5</ele><time>2026-04-24T10:12:19.839Z</time></trkpt><trkpt lat="40.4687272" lon="9.5822282"><ele>229.33333333333331</ele><time>2026-04-24T10:12:21.839Z</time></trkpt><trkpt lat="40.4687946" lon="9.5822797"><ele>229.16666666666666</ele><time>2026-04-24T10:12:23.839Z</time></trkpt><trkpt lat="40.4688743" lon="9.582249"><ele>229.0</ele><time>2026-04-24T10:12:26.84Z</time></trkpt><trkpt lat="40.46893" lon="9.5822019"><ele>228.85714285714283</ele><time>2026-04-24T10:12:29.839Z</time></trkpt><trkpt lat="40.4689868" lon="9.5821632"><ele>228.71428571428572</ele><time>2026-04-24T10:12:31.84Z</time></trkpt><trkpt lat="40.4690623" lon="9.5821204"><ele>228.57142857142856</ele><time>2026-04-24T10:12:34.839Z</time></trkpt><trkpt lat="40.4691295" lon="9.5820613"><ele>228.42857142857142</ele><time>2026-04-24T10:12:38.84Z</time></trkpt><trkpt lat="40.4690925" lon="9.5820489"><ele>228.28571428571428</ele><time>2026-04-24T10:13:22.84Z</time></trkpt><trkpt lat="40.4690243" lon="9.582109"><ele>228.14285714285714</ele><time>2026-04-24T10:13:25.839Z</time></trkpt><trkpt lat="40.4689307" lon="9.5821485"><ele>228.0</ele><time>2026-04-24T10:13:28.839Z</time></trkpt><trkpt lat="40.4688566" lon="9.5822266"><ele>228.0</ele><time>2026-04-24T10:13:31.705Z</time></trkpt><trkpt lat="40.4688394" lon="9.5823294"><ele>228.0</ele><time>2026-04-24T10:13:34.814Z</time></trkpt><trkpt lat="40.4688916" lon="9.5823813"><ele>228.0</ele><time>2026-04-24T10:13:36.839Z</time></trkpt><trkpt lat="40.4689606" lon="9.5823864"><ele>228.0</ele><time>2026-04-24T10:13:38.839Z</time></trkpt><trkpt lat="40.4690273" lon="9.5824284"><ele>228.0</ele><time>2026-04-24T10:13:40.84Z</time></trkpt><trkpt lat="40.4690949" lon="9.5824877"><ele>228.0</ele><time>2026-04-24T10:13:42.84Z</time></trkpt><trkpt lat="40.4691646" lon="9.5825551"><ele>228.0</ele><time>2026-04-24T10:13:44.839Z</time></trkpt><trkpt lat="40.4692361" lon="9.5826145"><ele>228.0</ele><time>2026-04-24T10:13:46.839Z</time></trkpt><trkpt lat="40.4693097" lon="9.5826745"><ele>228.0</ele><time>2026-04-24T10:13:48.84Z</time></trkpt><trkpt lat="40.4693846" lon="9.5827339"><ele>228.0</ele><time>2026-04-24T10:13:50.812Z</time></trkpt><trkpt lat="40.4694567" lon="9.5827937"><ele>228.0</ele><time>2026-04-24T10:13:52.839Z</time></trkpt><trkpt lat="40.4695268" lon="9.5828442"><ele>228.0</ele><time>2026-04-24T10:13:54.755Z</time></trkpt><trkpt lat="40.4696016" lon="9.5829022"><ele>228.66666666666666</ele><time>2026-04-24T10:13:56.84Z</time></trkpt><trkpt lat="40.4696728" lon="9.5829566"><ele>229.33333333333331</ele><time>2026-04-24T10:13:58.839Z</time></trkpt><trkpt lat="40.4697451" lon="9.5830128"><ele>230.0</ele><time>2026-04-24T10:14:00.84Z</time></trkpt><trkpt lat="40.4698179" lon="9.5830698"><ele>230.66666666666666</ele><time>2026-04-24T10:14:02.839Z</time></trkpt><trkpt lat="40.4698871" lon="9.5831316"><ele>231.33333333333331</ele><time>2026-04-24T10:14:04.839Z</time></trkpt><trkpt lat="40.4699584" lon="9.583182"><ele>232.0</ele><time>2026-04-24T10:14:06.84Z</time></trkpt><trkpt lat="40.4700354" lon="9.5832346"><ele>231.99999999999997</ele><time>2026-04-24T10:14:08.84Z</time></trkpt><trkpt lat="40.4701093" lon="9.583299"><ele>232.0</ele><time>2026-04-24T10:14:10.84Z</time></trkpt><trkpt lat="40.4701898" lon="9.5833503"><ele>232.0</ele><time>2026-04-24T10:14:12.838Z</time></trkpt><trkpt lat="40.4702613" lon="9.5834145"><ele>232.0</ele><time>2026-04-24T10:14:14.839Z</time></trkpt><trkpt lat="40.4703324" lon="9.5834798"><ele>231.99999999999997</ele><time>2026-04-24T10:14:16.838Z</time></trkpt><trkpt lat="40.4704062" lon="9.5835403"><ele>232.0</ele><time>2026-04-24T10:14:18.839Z</time></trkpt><trkpt lat="40.4704784" lon="9.5836038"><ele>232.66666666666666</ele><time>2026-04-24T10:14:20.839Z</time></trkpt><trkpt lat="40.470543" lon="9.5836825"><ele>233.33333333333331</ele><time>2026-04-24T10:14:22.84Z</time></trkpt><trkpt lat="40.4706094" lon="9.5837626"><ele>234.0</ele><time>2026-04-24T10:14:24.84Z</time></trkpt><trkpt lat="40.4706759" lon="9.5838366"><ele>234.66666666666669</ele><time>2026-04-24T10:14:26.839Z</time></trkpt><trkpt lat="40.4707442" lon="9.5839041"><ele>235.33333333333334</ele><time>2026-04-24T10:14:28.774Z</time></trkpt><trkpt lat="40.4708008" lon="9.5839929"><ele>236.0</ele><time>2026-04-24T10:14:30.764Z</time></trkpt><trkpt lat="40.4708655" lon="9.5840821"><ele>236.0</ele><time>2026-04-24T10:14:32.84Z</time></trkpt><trkpt lat="40.4709296" lon="9.5841631"><ele>236.00000000000003</ele><time>2026-04-24T10:14:34.839Z</time></trkpt><trkpt lat="40.4709913" lon="9.584246"><ele>236.00000000000003</ele><time>2026-04-24T10:14:36.84Z</time></trkpt><trkpt lat="40.4710592" lon="9.5843293"><ele>236.0</ele><time>2026-04-24T10:14:38.84Z</time></trkpt><trkpt lat="40.4711285" lon="9.5844152"><ele>236.0</ele><time>2026-04-24T10:14:40.838Z</time></trkpt><trkpt lat="40.4711966" lon="9.5845089"><ele>235.4</ele><time>2026-04-24T10:14:42.838Z</time></trkpt><trkpt lat="40.4712684" lon="9.5846011"><ele>234.8</ele><time>2026-04-24T10:14:44.839Z</time></trkpt><trkpt lat="40.4713492" lon="9.5846919"><ele>234.20000000000002</ele><time>2026-04-24T10:14:46.839Z</time></trkpt><trkpt lat="40.4714252" lon="9.5847919"><ele>233.60000000000002</ele><time>2026-04-24T10:14:48.839Z</time></trkpt><trkpt lat="40.4715081" lon="9.5848828"><ele>233.0</ele><time>2026-04-24T10:14:50.839Z</time></trkpt><trkpt lat="40.4716047" lon="9.5849651"><ele>233.0</ele><time>2026-04-24T10:14:52.839Z</time></trkpt><trkpt lat="40.4717014" lon="9.5850509"><ele>233.0</ele><time>2026-04-24T10:14:54.84Z</time></trkpt><trkpt lat="40.4718004" lon="9.5851361"><ele>233.0</ele><time>2026-04-24T10:14:56.839Z</time></trkpt><trkpt lat="40.4718961" lon="9.5852383"><ele>233.0</ele><time>2026-04-24T10:14:58.84Z</time></trkpt><trkpt lat="40.4719948" lon="9.5853307"><ele>232.25</ele><time>2026-04-24T10:15:00.84Z</time></trkpt><trkpt lat="40.4720927" lon="9.5854113"><ele>231.5</ele><time>2026-04-24T10:15:02.838Z</time></trkpt><trkpt lat="40.4721888" lon="9.5854933"><ele>230.75</ele><time>2026-04-24T10:15:04.839Z</time></trkpt><trkpt lat="40.472276" lon="9.5855872"><ele>230.0</ele><time>2026-04-24T10:15:06.839Z</time></trkpt><trkpt lat="40.4723668" lon="9.5856756"><ele>230.0</ele><time>2026-04-24T10:15:08.84Z</time></trkpt><trkpt lat="40.4724647" lon="9.5857598"><ele>230.0</ele><time>2026-04-24T10:15:10.84Z</time></trkpt><trkpt lat="40.4725563" lon="9.585846"><ele>230.0</ele><time>2026-04-24T10:15:12.839Z</time></trkpt><trkpt lat="40.4726501" lon="9.5859272"><ele>230.0</ele><time>2026-04-24T10:15:14.84Z</time></trkpt><trkpt lat="40.4727441" lon="9.586014"><ele>230.0</ele><time>2026-04-24T10:15:16.839Z</time></trkpt><trkpt lat="40.4728353" lon="9.5861025"><ele>230.0</ele><time>2026-04-24T10:15:18.84Z</time></trkpt><trkpt lat="40.4729293" lon="9.5861853"><ele>230.0</ele><time>2026-04-24T10:15:20.839Z</time></trkpt><trkpt lat="40.4730214" lon="9.5862743"><ele>230.0</ele><time>2026-04-24T10:15:22.84Z</time></trkpt><trkpt lat="40.473118" lon="9.5863536"><ele>229.25</ele><time>2026-04-24T10:15:24.839Z</time></trkpt><trkpt lat="40.4732151" lon="9.5864366"><ele>228.5</ele><time>2026-04-24T10:15:26.84Z</time></trkpt><trkpt lat="40.4733063" lon="9.5865261"><ele>227.75</ele><time>2026-04-24T10:15:28.84Z</time></trkpt><trkpt lat="40.4733981" lon="9.5866161"><ele>227.0</ele><time>2026-04-24T10:15:30.84Z</time></trkpt><trkpt lat="40.4734891" lon="9.5867038"><ele>227.0</ele><time>2026-04-24T10:15:32.84Z</time></trkpt><trkpt lat="40.4735792" lon="9.586785"><ele>227.0</ele><time>2026-04-24T10:15:34.84Z</time></trkpt><trkpt lat="40.4736693" lon="9.586861"><ele>227.0</ele><time>2026-04-24T10:15:36.838Z</time></trkpt><trkpt lat="40.4737598" lon="9.5869409"><ele>227.0</ele><time>2026-04-24T10:15:38.838Z</time></trkpt><trkpt lat="40.4738513" lon="9.58703"><ele>227.0</ele><time>2026-04-24T10:15:40.838Z</time></trkpt><trkpt lat="40.4739502" lon="9.5871058"><ele>225.8</ele><time>2026-04-24T10:15:42.84Z</time></trkpt><trkpt lat="40.4740442" lon="9.5871896"><ele>224.6</ele><time>2026-04-24T10:15:44.84Z</time></trkpt><trkpt lat="40.4741366" lon="9.5872792"><ele>223.40000000000003</ele><time>2026-04-24T10:15:46.839Z</time></trkpt><trkpt lat="40.4742269" lon="9.5873631"><ele>222.20000000000002</ele><time>2026-04-24T10:15:48.839Z</time></trkpt><trkpt lat="40.474317" lon="9.5874382"><ele>221.0</ele><time>2026-04-24T10:15:50.839Z</time></trkpt><trkpt lat="40.474405" lon="9.5875131"><ele>221.0</ele><time>2026-04-24T10:15:52.839Z</time></trkpt><trkpt lat="40.4744891" lon="9.5875986"><ele>221.00000000000003</ele><time>2026-04-24T10:15:54.839Z</time></trkpt><trkpt lat="40.4745763" lon="9.5876738"><ele>221.00000000000003</ele><time>2026-04-24T10:15:56.838Z</time></trkpt><trkpt lat="40.4746624" lon="9.5877442"><ele>221.0</ele><time>2026-04-24T10:15:58.84Z</time></trkpt><trkpt lat="40.4747445" lon="9.5878213"><ele>221.0</ele><time>2026-04-24T10:16:00.839Z</time></trkpt><trkpt lat="40.4748309" lon="9.5878969"><ele>220.20000000000002</ele><time>2026-04-24T10:16:02.839Z</time></trkpt><trkpt lat="40.4749138" lon="9.5879741"><ele>219.40000000000003</ele><time>2026-04-24T10:16:04.84Z</time></trkpt><trkpt lat="40.474995" lon="9.5880487"><ele>218.6</ele><time>2026-04-24T10:16:06.838Z</time></trkpt><trkpt lat="40.4750781" lon="9.5881263"><ele>217.8</ele><time>2026-04-24T10:16:08.84Z</time></trkpt><trkpt lat="40.4751648" lon="9.5882003"><ele>217.0</ele><time>2026-04-24T10:16:10.839Z</time></trkpt><trkpt lat="40.4752516" lon="9.5882734"><ele>217.0</ele><time>2026-04-24T10:16:12.838Z</time></trkpt><trkpt lat="40.4753356" lon="9.5883396"><ele>217.0</ele><time>2026-04-24T10:16:14.839Z</time></trkpt><trkpt lat="40.4754125" lon="9.58841"><ele>217.0</ele><time>2026-04-24T10:16:16.839Z</time></trkpt><trkpt lat="40.4754917" lon="9.5884705"><ele>217.0</ele><time>2026-04-24T10:16:18.839Z</time></trkpt><trkpt lat="40.4755678" lon="9.5885272"><ele>217.0</ele><time>2026-04-24T10:16:20.839Z</time></trkpt><trkpt lat="40.475634" lon="9.588603"><ele>217.39999999999998</ele><time>2026-04-24T10:16:22.839Z</time></trkpt><trkpt lat="40.4757156" lon="9.5886576"><ele>217.79999999999998</ele><time>2026-04-24T10:16:24.839Z</time></trkpt><trkpt lat="40.4757957" lon="9.5887152"><ele>218.2</ele><time>2026-04-24T10:16:26.84Z</time></trkpt><trkpt lat="40.4758678" lon="9.5887875"><ele>218.6</ele><time>2026-04-24T10:16:28.84Z</time></trkpt><trkpt lat="40.4759546" lon="9.58884"><ele>219.0</ele><time>2026-04-24T10:16:30.839Z</time></trkpt><trkpt lat="40.4760395" lon="9.5888931"><ele>219.0</ele><time>2026-04-24T10:16:32.839Z</time></trkpt><trkpt lat="40.476129" lon="9.5889501"><ele>218.99999999999997</ele><time>2026-04-24T10:16:34.838Z</time></trkpt><trkpt lat="40.476218" lon="9.5890272"><ele>218.99999999999997</ele><time>2026-04-24T10:16:36.839Z</time></trkpt><trkpt lat="40.4763172" lon="9.5890995"><ele>219.0</ele><time>2026-04-24T10:16:38.84Z</time></trkpt><trkpt lat="40.4764255" lon="9.5891666"><ele>219.0</ele><time>2026-04-24T10:16:40.838Z</time></trkpt><trkpt lat="40.4765324" lon="9.5892445"><ele>218.57142857142858</ele><time>2026-04-24T10:16:42.839Z</time></trkpt><trkpt lat="40.4765889" lon="9.5892833"><ele>218.14285714285714</ele><time>2026-04-24T10:16:43.84Z</time></trkpt><trkpt lat="40.4766453" lon="9.5893243"><ele>217.71428571428572</ele><time>2026-04-24T10:16:44.839Z</time></trkpt><trkpt lat="40.4767022" lon="9.5893634"><ele>217.28571428571428</ele><time>2026-04-24T10:16:45.838Z</time></trkpt><trkpt lat="40.4767614" lon="9.5894037"><ele>216.85714285714283</ele><time>2026-04-24T10:16:46.839Z</time></trkpt><trkpt lat="40.4768179" lon="9.5894445"><ele>216.42857142857142</ele><time>2026-04-24T10:16:47.839Z</time></trkpt><trkpt lat="40.476875" lon="9.589487"><ele>216.0</ele><time>2026-04-24T10:16:48.839Z</time></trkpt><trkpt lat="40.4769323" lon="9.5895299"><ele>216.0</ele><time>2026-04-24T10:16:49.839Z</time></trkpt><trkpt lat="40.4769914" lon="9.5895719"><ele>216.0</ele><time>2026-04-24T10:16:50.839Z</time></trkpt><trkpt lat="40.4770495" lon="9.5896125"><ele>216.0</ele><time>2026-04-24T10:16:51.84Z</time></trkpt><trkpt lat="40.4771058" lon="9.5896566"><ele>216.0</ele><time>2026-04-24T10:16:52.839Z</time></trkpt><trkpt lat="40.4771627" lon="9.5897031"><ele>216.0</ele><time>2026-04-24T10:16:53.839Z</time></trkpt><trkpt lat="40.4772212" lon="9.5897458"><ele>216.0</ele><time>2026-04-24T10:16:54.839Z</time></trkpt><trkpt lat="40.4772814" lon="9.5897888"><ele>216.0</ele><time>2026-04-24T10:16:55.839Z</time></trkpt><trkpt lat="40.4773414" lon="9.5898329"><ele>213.57142857142856</ele><time>2026-04-24T10:16:56.84Z</time></trkpt><trkpt lat="40.4774035" lon="9.5898746"><ele>211.14285714285714</ele><time>2026-04-24T10:16:57.839Z</time></trkpt><trkpt lat="40.4774655" lon="9.5899128"><ele>208.71428571428572</ele><time>2026-04-24T10:16:58.839Z</time></trkpt><trkpt lat="40.4775288" lon="9.5899533"><ele>206.28571428571428</ele><time>2026-04-24T10:16:59.84Z</time></trkpt><trkpt lat="40.4775903" lon="9.5900019"><ele>203.85714285714286</ele><time>2026-04-24T10:17:00.84Z</time></trkpt><trkpt lat="40.4776485" lon="9.590056"><ele>201.42857142857142</ele><time>2026-04-24T10:17:01.839Z</time></trkpt><trkpt lat="40.4777045" lon="9.5901085"><ele>199.0</ele><time>2026-04-24T10:17:02.838Z</time></trkpt><trkpt lat="40.4777623" lon="9.590149"><ele>199.0</ele><time>2026-04-24T10:17:03.839Z</time></trkpt><trkpt lat="40.477872" lon="9.5902103"><ele>199.0</ele><time>2026-04-24T10:17:05.84Z</time></trkpt><trkpt lat="40.477966" lon="9.5902953"><ele>199.0</ele><time>2026-04-24T10:17:07.838Z</time></trkpt><trkpt lat="40.478063" lon="9.5903901"><ele>199.0</ele><time>2026-04-24T10:17:09.839Z</time></trkpt><trkpt lat="40.4781507" lon="9.5904907"><ele>197.6</ele><time>2026-04-24T10:17:11.839Z</time></trkpt><trkpt lat="40.4782281" lon="9.5905852"><ele>196.2</ele><time>2026-04-24T10:17:13.838Z</time></trkpt><trkpt lat="40.4782975" lon="9.5906758"><ele>194.79999999999998</ele><time>2026-04-24T10:17:15.838Z</time></trkpt><trkpt lat="40.4783528" lon="9.5907563"><ele>193.39999999999998</ele><time>2026-04-24T10:17:17.839Z</time></trkpt><trkpt lat="40.4784101" lon="9.590836"><ele>192.0</ele><time>2026-04-24T10:17:19.84Z</time></trkpt><trkpt lat="40.4784671" lon="9.5909273"><ele>192.0</ele><time>2026-04-24T10:17:21.839Z</time></trkpt><trkpt lat="40.4785409" lon="9.5910148"><ele>192.0</ele><time>2026-04-24T10:17:23.84Z</time></trkpt><trkpt lat="40.4786133" lon="9.5911019"><ele>192.0</ele><time>2026-04-24T10:17:25.838Z</time></trkpt><trkpt lat="40.4786931" lon="9.5911951"><ele>192.0</ele><time>2026-04-24T10:17:27.838Z</time></trkpt><trkpt lat="40.4787754" lon="9.5912893"><ele>192.0</ele><time>2026-04-24T10:17:29.84Z</time></trkpt><trkpt lat="40.4788629" lon="9.5913801"><ele>191.25</ele><time>2026-04-24T10:17:31.84Z</time></trkpt><trkpt lat="40.4789553" lon="9.5914684"><ele>190.5</ele><time>2026-04-24T10:17:33.838Z</time></trkpt><trkpt lat="40.4790466" lon="9.5915609"><ele>189.75</ele><time>2026-04-24T10:17:35.839Z</time></trkpt><trkpt lat="40.4791417" lon="9.5916518"><ele>189.0</ele><time>2026-04-24T10:17:37.839Z</time></trkpt><trkpt lat="40.479239" lon="9.5917386"><ele>189.0</ele><time>2026-04-24T10:17:39.839Z</time></trkpt><trkpt lat="40.4793373" lon="9.5918169"><ele>189.0</ele><time>2026-04-24T10:17:41.838Z</time></trkpt><trkpt lat="40.4794228" lon="9.5919141"><ele>189.0</ele><time>2026-04-24T10:17:43.838Z</time></trkpt><trkpt lat="40.4795131" lon="9.5919976"><ele>189.0</ele><time>2026-04-24T10:17:45.839Z</time></trkpt><trkpt lat="40.4796037" lon="9.5920678"><ele>189.0</ele><time>2026-04-24T10:17:47.838Z</time></trkpt><trkpt lat="40.4796872" lon="9.5921429"><ele>189.39999999999998</ele><time>2026-04-24T10:17:49.839Z</time></trkpt><trkpt lat="40.4797826" lon="9.5921795"><ele>189.8</ele><time>2026-04-24T10:17:51.839Z</time></trkpt><trkpt lat="40.4798787" lon="9.5921988"><ele>190.2</ele><time>2026-04-24T10:17:53.839Z</time></trkpt><trkpt lat="40.4799733" lon="9.5922516"><ele>190.60000000000002</ele><time>2026-04-24T10:17:55.839Z</time></trkpt><trkpt lat="40.480066" lon="9.5923103"><ele>191.0</ele><time>2026-04-24T10:17:57.838Z</time></trkpt><trkpt lat="40.4801613" lon="9.5923589"><ele>191.0</ele><time>2026-04-24T10:17:59.839Z</time></trkpt><trkpt lat="40.4802548" lon="9.5924276"><ele>191.0</ele><time>2026-04-24T10:18:01.84Z</time></trkpt><trkpt lat="40.4803435" lon="9.5925002"><ele>191.0</ele><time>2026-04-24T10:18:03.84Z</time></trkpt><trkpt lat="40.4804246" lon="9.5925789"><ele>191.0</ele><time>2026-04-24T10:18:05.839Z</time></trkpt><trkpt lat="40.4805042" lon="9.5926634"><ele>191.0</ele><time>2026-04-24T10:18:07.839Z</time></trkpt><trkpt lat="40.4805745" lon="9.5927576"><ele>190.4</ele><time>2026-04-24T10:18:09.84Z</time></trkpt><trkpt lat="40.4806496" lon="9.592846"><ele>189.8</ele><time>2026-04-24T10:18:11.838Z</time></trkpt><trkpt lat="40.4807274" lon="9.5929414"><ele>189.20000000000002</ele><time>2026-04-24T10:18:13.839Z</time></trkpt><trkpt lat="40.4807997" lon="9.5930338"><ele>188.60000000000002</ele><time>2026-04-24T10:18:15.838Z</time></trkpt><trkpt lat="40.4808798" lon="9.5931118"><ele>188.0</ele><time>2026-04-24T10:18:17.839Z</time></trkpt><trkpt lat="40.4809505" lon="9.5931985"><ele>188.0</ele><time>2026-04-24T10:18:19.839Z</time></trkpt><trkpt lat="40.4810157" lon="9.5932856"><ele>188.0</ele><time>2026-04-24T10:18:21.839Z</time></trkpt><trkpt lat="40.4810808" lon="9.593374"><ele>188.0</ele><time>2026-04-24T10:18:23.839Z</time></trkpt><trkpt lat="40.4811446" lon="9.5934631"><ele>188.0</ele><time>2026-04-24T10:18:25.839Z</time></trkpt><trkpt lat="40.4812149" lon="9.5935441"><ele>188.0</ele><time>2026-04-24T10:18:27.84Z</time></trkpt><trkpt lat="40.4812803" lon="9.5936301"><ele>187.33333333333331</ele><time>2026-04-24T10:18:29.838Z</time></trkpt><trkpt lat="40.4813474" lon="9.5937109"><ele>186.66666666666666</ele><time>2026-04-24T10:18:31.838Z</time></trkpt><trkpt lat="40.4814104" lon="9.593795"><ele>186.0</ele><time>2026-04-24T10:18:33.839Z</time></trkpt><trkpt lat="40.4814761" lon="9.5938805"><ele>185.33333333333334</ele><time>2026-04-24T10:18:35.84Z</time></trkpt><trkpt lat="40.4815269" lon="9.5939681"><ele>184.66666666666669</ele><time>2026-04-24T10:18:37.838Z</time></trkpt><trkpt lat="40.4815895" lon="9.5940509"><ele>184.0</ele><time>2026-04-24T10:18:39.839Z</time></trkpt><trkpt lat="40.4816576" lon="9.5941347"><ele>184.0</ele><time>2026-04-24T10:18:41.838Z</time></trkpt><trkpt lat="40.4817279" lon="9.5942122"><ele>184.0</ele><time>2026-04-24T10:18:43.84Z</time></trkpt><trkpt lat="40.4817914" lon="9.5942911"><ele>184.0</ele><time>2026-04-24T10:18:45.84Z</time></trkpt><trkpt lat="40.4818463" lon="9.5943789"><ele>184.0</ele><time>2026-04-24T10:18:47.84Z</time></trkpt><trkpt lat="40.4819127" lon="9.5944686"><ele>184.0</ele><time>2026-04-24T10:18:49.839Z</time></trkpt><trkpt lat="40.481978" lon="9.5945562"><ele>183.2</ele><time>2026-04-24T10:18:51.839Z</time></trkpt><trkpt lat="40.4820458" lon="9.594637"><ele>182.39999999999998</ele><time>2026-04-24T10:18:53.838Z</time></trkpt><trkpt lat="40.4821166" lon="9.5947186"><ele>181.6</ele><time>2026-04-24T10:18:55.839Z</time></trkpt><trkpt lat="40.482188" lon="9.5948013"><ele>180.8</ele><time>2026-04-24T10:18:57.838Z</time></trkpt><trkpt lat="40.4822512" lon="9.594886"><ele>180.0</ele><time>2026-04-24T10:18:59.838Z</time></trkpt><trkpt lat="40.4823137" lon="9.5949741"><ele>180.0</ele><time>2026-04-24T10:19:01.839Z</time></trkpt><trkpt lat="40.4823724" lon="9.5950633"><ele>180.0</ele><time>2026-04-24T10:19:03.84Z</time></trkpt><trkpt lat="40.4824397" lon="9.5951444"><ele>180.0</ele><time>2026-04-24T10:19:05.84Z</time></trkpt><trkpt lat="40.4825117" lon="9.5952329"><ele>180.0</ele><time>2026-04-24T10:19:07.839Z</time></trkpt><trkpt lat="40.4825842" lon="9.5953283"><ele>180.0</ele><time>2026-04-24T10:19:09.839Z</time></trkpt><trkpt lat="40.4826441" lon="9.5954269"><ele>179.6</ele><time>2026-04-24T10:19:11.838Z</time></trkpt><trkpt lat="40.482716" lon="9.5955143"><ele>179.2</ele><time>2026-04-24T10:19:13.84Z</time></trkpt><trkpt lat="40.482781" lon="9.5955977"><ele>178.8</ele><time>2026-04-24T10:19:15.839Z</time></trkpt><trkpt lat="40.4828411" lon="9.5956814"><ele>178.4</ele><time>2026-04-24T10:19:17.838Z</time></trkpt><trkpt lat="40.4829005" lon="9.5957728"><ele>178.0</ele><time>2026-04-24T10:19:19.838Z</time></trkpt><trkpt lat="40.4829599" lon="9.5958531"><ele>178.0</ele><time>2026-04-24T10:19:21.839Z</time></trkpt><trkpt lat="40.483018" lon="9.5959238"><ele>178.0</ele><time>2026-04-24T10:19:23.84Z</time></trkpt><trkpt lat="40.4830729" lon="9.5959939"><ele>178.0</ele><time>2026-04-24T10:19:25.84Z</time></trkpt><trkpt lat="40.4831318" lon="9.5960611"><ele>178.0</ele><time>2026-04-24T10:19:27.839Z</time></trkpt><trkpt lat="40.483188" lon="9.5961307"><ele>178.0</ele><time>2026-04-24T10:19:29.84Z</time></trkpt><trkpt lat="40.4832454" lon="9.5962056"><ele>178.0</ele><time>2026-04-24T10:19:31.839Z</time></trkpt><trkpt lat="40.4833005" lon="9.5962889"><ele>179.0</ele><time>2026-04-24T10:19:33.839Z</time></trkpt><trkpt lat="40.4833625" lon="9.5963693"><ele>180.0</ele><time>2026-04-24T10:19:35.839Z</time></trkpt><trkpt lat="40.4834241" lon="9.5964528"><ele>181.0</ele><time>2026-04-24T10:19:37.838Z</time></trkpt><trkpt lat="40.4834896" lon="9.5965419"><ele>182.0</ele><time>2026-04-24T10:19:39.839Z</time></trkpt><trkpt lat="40.4835578" lon="9.5966281"><ele>183.0</ele><time>2026-04-24T10:19:41.838Z</time></trkpt><trkpt lat="40.4836271" lon="9.5967116"><ele>183.0</ele><time>2026-04-24T10:19:43.84Z</time></trkpt><trkpt lat="40.4836972" lon="9.5967903"><ele>183.0</ele><time>2026-04-24T10:19:45.838Z</time></trkpt><trkpt lat="40.4837793" lon="9.5968577"><ele>183.0</ele><time>2026-04-24T10:19:47.839Z</time></trkpt><trkpt lat="40.4838684" lon="9.5969189"><ele>183.0</ele><time>2026-04-24T10:19:49.839Z</time></trkpt><trkpt lat="40.4839696" lon="9.5969727"><ele>183.0</ele><time>2026-04-24T10:19:51.839Z</time></trkpt><trkpt lat="40.4840753" lon="9.5970203"><ele>181.25</ele><time>2026-04-24T10:19:53.839Z</time></trkpt><trkpt lat="40.484186" lon="9.5970508"><ele>179.5</ele><time>2026-04-24T10:19:55.84Z</time></trkpt><trkpt lat="40.4842939" lon="9.5971105"><ele>177.75</ele><time>2026-04-24T10:19:57.839Z</time></trkpt><trkpt lat="40.4843929" lon="9.597183"><ele>176.0</ele><time>2026-04-24T10:19:59.838Z</time></trkpt><trkpt lat="40.4844787" lon="9.5972671"><ele>176.0</ele><time>2026-04-24T10:20:01.839Z</time></trkpt><trkpt lat="40.4845475" lon="9.5973569"><ele>176.0</ele><time>2026-04-24T10:20:03.839Z</time></trkpt><trkpt lat="40.4845982" lon="9.5974492"><ele>176.0</ele><time>2026-04-24T10:20:05.839Z</time></trkpt><trkpt lat="40.4846572" lon="9.5975388"><ele>176.0</ele><time>2026-04-24T10:20:07.84Z</time></trkpt><trkpt lat="40.4847053" lon="9.597625"><ele>176.0</ele><time>2026-04-24T10:20:09.838Z</time></trkpt><trkpt lat="40.4847616" lon="9.5977127"><ele>176.0</ele><time>2026-04-24T10:20:11.839Z</time></trkpt><trkpt lat="40.4848232" lon="9.5977959"><ele>175.16666666666666</ele><time>2026-04-24T10:20:13.838Z</time></trkpt><trkpt lat="40.4848721" lon="9.5978834"><ele>174.33333333333331</ele><time>2026-04-24T10:20:15.838Z</time></trkpt><trkpt lat="40.4849273" lon="9.5979686"><ele>173.5</ele><time>2026-04-24T10:20:17.838Z</time></trkpt><trkpt lat="40.4849763" lon="9.5980646"><ele>172.66666666666666</ele><time>2026-04-24T10:20:19.838Z</time></trkpt><trkpt lat="40.4850432" lon="9.5981421"><ele>171.83333333333334</ele><time>2026-04-24T10:20:21.839Z</time></trkpt><trkpt lat="40.4851062" lon="9.5982213"><ele>171.0</ele><time>2026-04-24T10:20:23.839Z</time></trkpt><trkpt lat="40.4851711" lon="9.5982986"><ele>171.0</ele><time>2026-04-24T10:20:25.84Z</time></trkpt><trkpt lat="40.4852309" lon="9.598389"><ele>171.0</ele><time>2026-04-24T10:20:27.838Z</time></trkpt><trkpt lat="40.4852978" lon="9.5984715"><ele>171.0</ele><time>2026-04-24T10:20:29.839Z</time></trkpt><trkpt lat="40.4853651" lon="9.5985509"><ele>171.0</ele><time>2026-04-24T10:20:31.84Z</time></trkpt><trkpt lat="40.4854345" lon="9.5986342"><ele>171.0</ele><time>2026-04-24T10:20:33.838Z</time></trkpt><trkpt lat="40.4855061" lon="9.5987128"><ele>170.83333333333334</ele><time>2026-04-24T10:20:35.838Z</time></trkpt><trkpt lat="40.4855751" lon="9.5987903"><ele>170.66666666666666</ele><time>2026-04-24T10:20:37.839Z</time></trkpt><trkpt lat="40.4856358" lon="9.5988713"><ele>170.5</ele><time>2026-04-24T10:20:39.839Z</time></trkpt><trkpt lat="40.4857032" lon="9.5989487"><ele>170.33333333333331</ele><time>2026-04-24T10:20:41.839Z</time></trkpt><trkpt lat="40.4857727" lon="9.5990249"><ele>170.16666666666666</ele><time>2026-04-24T10:20:43.839Z</time></trkpt><trkpt lat="40.4858298" lon="9.5991065"><ele>170.0</ele><time>2026-04-24T10:20:45.839Z</time></trkpt><trkpt lat="40.4858884" lon="9.5991853"><ele>170.0</ele><time>2026-04-24T10:20:47.84Z</time></trkpt><trkpt lat="40.4859527" lon="9.5992619"><ele>170.0</ele><time>2026-04-24T10:20:49.839Z</time></trkpt><trkpt lat="40.4860157" lon="9.5993393"><ele>170.0</ele><time>2026-04-24T10:20:51.839Z</time></trkpt><trkpt lat="40.4860816" lon="9.5994271"><ele>170.0</ele><time>2026-04-24T10:20:53.839Z</time></trkpt><trkpt lat="40.48615" lon="9.5995075"><ele>170.0</ele><time>2026-04-24T10:20:55.84Z</time></trkpt><trkpt lat="40.4862169" lon="9.5995894"><ele>169.0</ele><time>2026-04-24T10:20:57.839Z</time></trkpt><trkpt lat="40.4862822" lon="9.5996739"><ele>168.0</ele><time>2026-04-24T10:20:59.838Z</time></trkpt><trkpt lat="40.486355" lon="9.5997527"><ele>167.0</ele><time>2026-04-24T10:21:01.839Z</time></trkpt><trkpt lat="40.4864262" lon="9.5998364"><ele>166.0</ele><time>2026-04-24T10:21:03.838Z</time></trkpt><trkpt lat="40.4864949" lon="9.5999159"><ele>165.0</ele><time>2026-04-24T10:21:05.839Z</time></trkpt><trkpt lat="40.4865633" lon="9.6000014"><ele>165.0</ele><time>2026-04-24T10:21:07.839Z</time></trkpt><trkpt lat="40.4866342" lon="9.6000904"><ele>165.0</ele><time>2026-04-24T10:21:09.84Z</time></trkpt><trkpt lat="40.4867085" lon="9.6001795"><ele>165.0</ele><time>2026-04-24T10:21:11.839Z</time></trkpt><trkpt lat="40.4867826" lon="9.6002666"><ele>165.0</ele><time>2026-04-24T10:21:13.839Z</time></trkpt><trkpt lat="40.486853" lon="9.6003589"><ele>165.0</ele><time>2026-04-24T10:21:15.838Z</time></trkpt><trkpt lat="40.4869173" lon="9.6004516"><ele>165.33333333333334</ele><time>2026-04-24T10:21:17.839Z</time></trkpt><trkpt lat="40.4869744" lon="9.6005431"><ele>165.66666666666666</ele><time>2026-04-24T10:21:19.838Z</time></trkpt><trkpt lat="40.4870298" lon="9.6006325"><ele>166.0</ele><time>2026-04-24T10:21:21.84Z</time></trkpt><trkpt lat="40.4870704" lon="9.6007219"><ele>166.33333333333331</ele><time>2026-04-24T10:21:23.838Z</time></trkpt><trkpt lat="40.487116" lon="9.6008092"><ele>166.66666666666666</ele><time>2026-04-24T10:21:25.839Z</time></trkpt><trkpt lat="40.4871635" lon="9.6008946"><ele>167.0</ele><time>2026-04-24T10:21:27.838Z</time></trkpt><trkpt lat="40.4872053" lon="9.6009878"><ele>166.83333333333331</ele><time>2026-04-24T10:21:29.84Z</time></trkpt><trkpt lat="40.487246" lon="9.6010796"><ele>166.66666666666666</ele><time>2026-04-24T10:21:31.839Z</time></trkpt><trkpt lat="40.4872899" lon="9.6011677"><ele>166.5</ele><time>2026-04-24T10:21:33.84Z</time></trkpt><trkpt lat="40.4873334" lon="9.6012637"><ele>166.33333333333334</ele><time>2026-04-24T10:21:35.839Z</time></trkpt><trkpt lat="40.4873808" lon="9.6013565"><ele>166.16666666666669</ele><time>2026-04-24T10:21:37.839Z</time></trkpt><trkpt lat="40.4874178" lon="9.6014571"><ele>166.0</ele><time>2026-04-24T10:21:39.839Z</time></trkpt><trkpt lat="40.4874649" lon="9.6015491"><ele>166.0</ele><time>2026-04-24T10:21:41.838Z</time></trkpt><trkpt lat="40.4875116" lon="9.60164"><ele>166.0</ele><time>2026-04-24T10:21:43.838Z</time></trkpt><trkpt lat="40.4875559" lon="9.6017369"><ele>166.0</ele><time>2026-04-24T10:21:45.839Z</time></trkpt><trkpt lat="40.4875971" lon="9.6018371"><ele>166.0</ele><time>2026-04-24T10:21:47.84Z</time></trkpt><trkpt lat="40.487643" lon="9.6019362"><ele>166.0</ele><time>2026-04-24T10:21:49.838Z</time></trkpt><trkpt lat="40.4876866" lon="9.6020337"><ele>166.0</ele><time>2026-04-24T10:21:51.838Z</time></trkpt><trkpt lat="40.4877295" lon="9.6021281"><ele>166.5</ele><time>2026-04-24T10:21:53.839Z</time></trkpt><trkpt lat="40.4877775" lon="9.6022215"><ele>167.0</ele><time>2026-04-24T10:21:55.838Z</time></trkpt><trkpt lat="40.4878277" lon="9.6023185"><ele>167.5</ele><time>2026-04-24T10:21:57.838Z</time></trkpt><trkpt lat="40.4878668" lon="9.6024175"><ele>168.0</ele><time>2026-04-24T10:21:59.84Z</time></trkpt><trkpt lat="40.487912" lon="9.6025085"><ele>168.5</ele><time>2026-04-24T10:22:01.839Z</time></trkpt><trkpt lat="40.4879557" lon="9.6025996"><ele>169.0</ele><time>2026-04-24T10:22:03.839Z</time></trkpt><trkpt lat="40.4879969" lon="9.6026909"><ele>169.0</ele><time>2026-04-24T10:22:05.838Z</time></trkpt><trkpt lat="40.4880369" lon="9.6027781"><ele>169.0</ele><time>2026-04-24T10:22:07.839Z</time></trkpt><trkpt lat="40.4880755" lon="9.6028519"><ele>169.0</ele><time>2026-04-24T10:22:20.838Z</time></trkpt><trkpt lat="40.4881313" lon="9.6029384"><ele>169.0</ele><time>2026-04-24T10:22:24.838Z</time></trkpt><trkpt lat="40.4881746" lon="9.603023"><ele>169.0</ele><time>2026-04-24T10:22:26.838Z</time></trkpt><trkpt lat="40.4882345" lon="9.6031134"><ele>169.0</ele><time>2026-04-24T10:22:28.838Z</time></trkpt><trkpt lat="40.4883102" lon="9.6031978"><ele>169.5</ele><time>2026-04-24T10:22:30.839Z</time></trkpt><trkpt lat="40.4883946" lon="9.6032798"><ele>170.0</ele><time>2026-04-24T10:22:32.84Z</time></trkpt><trkpt lat="40.4884845" lon="9.6033701"><ele>170.5</ele><time>2026-04-24T10:22:34.838Z</time></trkpt><trkpt lat="40.4885732" lon="9.6034682"><ele>171.0</ele><time>2026-04-24T10:22:36.838Z</time></trkpt><trkpt lat="40.4886703" lon="9.6035637"><ele>170.60000000000002</ele><time>2026-04-24T10:22:38.839Z</time></trkpt><trkpt lat="40.4887716" lon="9.6036592"><ele>170.2</ele><time>2026-04-24T10:22:40.838Z</time></trkpt><trkpt lat="40.4888713" lon="9.6037546"><ele>169.8</ele><time>2026-04-24T10:22:42.838Z</time></trkpt><trkpt lat="40.4889241" lon="9.6038062"><ele>169.39999999999998</ele><time>2026-04-24T10:22:43.839Z</time></trkpt><trkpt lat="40.4890212" lon="9.6039146"><ele>169.0</ele><time>2026-04-24T10:22:45.838Z</time></trkpt><trkpt lat="40.4890712" lon="9.6039697"><ele>169.0</ele><time>2026-04-24T10:22:46.838Z</time></trkpt><trkpt lat="40.489119" lon="9.6040265"><ele>169.0</ele><time>2026-04-24T10:22:47.839Z</time></trkpt><trkpt lat="40.4891639" lon="9.6040847"><ele>169.0</ele><time>2026-04-24T10:22:48.838Z</time></trkpt><trkpt lat="40.4892472" lon="9.6042026"><ele>169.0</ele><time>2026-04-24T10:22:50.838Z</time></trkpt><trkpt lat="40.4893278" lon="9.6043276"><ele>169.0</ele><time>2026-04-24T10:22:52.838Z</time></trkpt><trkpt lat="40.4893719" lon="9.6043886"><ele>169.0</ele><time>2026-04-24T10:22:53.839Z</time></trkpt><trkpt lat="40.4894166" lon="9.6044495"><ele>168.6</ele><time>2026-04-24T10:22:54.839Z</time></trkpt><trkpt lat="40.4894618" lon="9.6045086"><ele>168.2</ele><time>2026-04-24T10:22:55.838Z</time></trkpt><trkpt lat="40.48954" lon="9.6046375"><ele>167.79999999999998</ele><time>2026-04-24T10:22:57.838Z</time></trkpt><trkpt lat="40.4896115" lon="9.6047742"><ele>167.39999999999998</ele><time>2026-04-24T10:22:59.839Z</time></trkpt><trkpt lat="40.4896948" lon="9.6048987"><ele>167.0</ele><time>2026-04-24T10:23:01.839Z</time></trkpt><trkpt lat="40.4897389" lon="9.6049601"><ele>167.0</ele><time>2026-04-24T10:23:02.839Z</time></trkpt><trkpt lat="40.4898278" lon="9.6050735"><ele>167.0</ele><time>2026-04-24T10:23:04.838Z</time></trkpt><trkpt lat="40.4899094" lon="9.6051956"><ele>167.0</ele><time>2026-04-24T10:23:06.839Z</time></trkpt><trkpt lat="40.4899837" lon="9.6053284"><ele>167.0</ele><time>2026-04-24T10:23:08.838Z</time></trkpt><trkpt lat="40.4900641" lon="9.6054534"><ele>167.0</ele><time>2026-04-24T10:23:10.839Z</time></trkpt><trkpt lat="40.4901505" lon="9.6055717"><ele>167.0</ele><time>2026-04-24T10:23:12.839Z</time></trkpt><trkpt lat="40.4901914" lon="9.6056379"><ele>167.0</ele><time>2026-04-24T10:23:13.839Z</time></trkpt><trkpt lat="40.4902342" lon="9.6057006"><ele>167.0</ele><time>2026-04-24T10:23:14.84Z</time></trkpt><trkpt lat="40.4902781" lon="9.6057637"><ele>167.0</ele><time>2026-04-24T10:23:15.838Z</time></trkpt><trkpt lat="40.4903236" lon="9.6058262"><ele>167.0</ele><time>2026-04-24T10:23:16.84Z</time></trkpt><trkpt lat="40.4903639" lon="9.6058931"><ele>167.0</ele><time>2026-04-24T10:23:17.838Z</time></trkpt><trkpt lat="40.4904055" lon="9.6059587"><ele>166.28571428571428</ele><time>2026-04-24T10:23:18.839Z</time></trkpt><trkpt lat="40.4904514" lon="9.6060245"><ele>165.57142857142858</ele><time>2026-04-24T10:23:19.839Z</time></trkpt><trkpt lat="40.4904949" lon="9.6060889"><ele>164.85714285714286</ele><time>2026-04-24T10:23:20.838Z</time></trkpt><trkpt lat="40.4905378" lon="9.6061563"><ele>164.14285714285714</ele><time>2026-04-24T10:23:21.84Z</time></trkpt><trkpt lat="40.4905813" lon="9.6062238"><ele>163.42857142857142</ele><time>2026-04-24T10:23:22.839Z</time></trkpt><trkpt lat="40.4906249" lon="9.6062921"><ele>162.71428571428572</ele><time>2026-04-24T10:23:23.838Z</time></trkpt><trkpt lat="40.49067" lon="9.6063602"><ele>162.0</ele><time>2026-04-24T10:23:24.84Z</time></trkpt><trkpt lat="40.4907157" lon="9.6064285"><ele>161.85714285714286</ele><time>2026-04-24T10:23:25.839Z</time></trkpt><trkpt lat="40.4907648" lon="9.6064979"><ele>161.71428571428572</ele><time>2026-04-24T10:23:26.839Z</time></trkpt><trkpt lat="40.4908128" lon="9.6065674"><ele>161.57142857142856</ele><time>2026-04-24T10:23:27.839Z</time></trkpt><trkpt lat="40.4908602" lon="9.6066404"><ele>161.42857142857144</ele><time>2026-04-24T10:23:28.84Z</time></trkpt><trkpt lat="40.4909095" lon="9.6067154"><ele>161.28571428571428</ele><time>2026-04-24T10:23:29.838Z</time></trkpt><trkpt lat="40.4909577" lon="9.606789"><ele>161.14285714285714</ele><time>2026-04-24T10:23:30.839Z</time></trkpt><trkpt lat="40.4910083" lon="9.606863"><ele>161.0</ele><time>2026-04-24T10:23:31.84Z</time></trkpt><trkpt lat="40.4910589" lon="9.606941"><ele>160.5</ele><time>2026-04-24T10:23:32.839Z</time></trkpt><trkpt lat="40.4911071" lon="9.6070236"><ele>160.0</ele><time>2026-04-24T10:23:33.839Z</time></trkpt><trkpt lat="40.491151" lon="9.6071102"><ele>159.5</ele><time>2026-04-24T10:23:34.838Z</time></trkpt><trkpt lat="40.4911879" lon="9.6072038"><ele>159.0</ele><time>2026-04-24T10:23:35.838Z</time></trkpt><trkpt lat="40.4912165" lon="9.6073037"><ele>158.5</ele><time>2026-04-24T10:23:36.839Z</time></trkpt><trkpt lat="40.4912381" lon="9.6074117"><ele>158.0</ele><time>2026-04-24T10:23:37.839Z</time></trkpt><trkpt lat="40.4912546" lon="9.6075177"><ele>157.66666666666666</ele><time>2026-04-24T10:23:38.838Z</time></trkpt><trkpt lat="40.4912716" lon="9.6076202"><ele>157.33333333333331</ele><time>2026-04-24T10:23:39.838Z</time></trkpt><trkpt lat="40.4912928" lon="9.6077228"><ele>157.0</ele><time>2026-04-24T10:23:40.839Z</time></trkpt><trkpt lat="40.4913159" lon="9.6078218"><ele>156.66666666666666</ele><time>2026-04-24T10:23:41.839Z</time></trkpt><trkpt lat="40.49135" lon="9.6079146"><ele>156.33333333333334</ele><time>2026-04-24T10:23:42.839Z</time></trkpt><trkpt lat="40.4913978" lon="9.6079957"><ele>156.0</ele><time>2026-04-24T10:23:43.839Z</time></trkpt><trkpt lat="40.491445" lon="9.6080742"><ele>155.57142857142858</ele><time>2026-04-24T10:23:44.838Z</time></trkpt><trkpt lat="40.4914924" lon="9.6081509"><ele>155.14285714285714</ele><time>2026-04-24T10:23:45.839Z</time></trkpt><trkpt lat="40.4915403" lon="9.6082246"><ele>154.71428571428572</ele><time>2026-04-24T10:23:46.839Z</time></trkpt><trkpt lat="40.4915898" lon="9.6082981"><ele>154.28571428571428</ele><time>2026-04-24T10:23:47.84Z</time></trkpt><trkpt lat="40.4916389" lon="9.6083703"><ele>153.85714285714286</ele><time>2026-04-24T10:23:48.838Z</time></trkpt><trkpt lat="40.4916874" lon="9.6084461"><ele>153.42857142857142</ele><time>2026-04-24T10:23:49.839Z</time></trkpt><trkpt lat="40.4917327" lon="9.6085232"><ele>153.0</ele><time>2026-04-24T10:23:50.839Z</time></trkpt><trkpt lat="40.4917803" lon="9.6085998"><ele>153.0</ele><time>2026-04-24T10:23:51.838Z</time></trkpt><trkpt lat="40.4918311" lon="9.6086741"><ele>153.0</ele><time>2026-04-24T10:23:52.84Z</time></trkpt><trkpt lat="40.4918831" lon="9.6087498"><ele>153.0</ele><time>2026-04-24T10:23:53.84Z</time></trkpt><trkpt lat="40.4919364" lon="9.6088244"><ele>153.0</ele><time>2026-04-24T10:23:54.838Z</time></trkpt><trkpt lat="40.4919925" lon="9.6088988"><ele>153.0</ele><time>2026-04-24T10:23:55.839Z</time></trkpt><trkpt lat="40.4920475" lon="9.6089712"><ele>153.0</ele><time>2026-04-24T10:23:56.839Z</time></trkpt><trkpt lat="40.4921003" lon="9.6090419"><ele>151.66666666666666</ele><time>2026-04-24T10:23:57.839Z</time></trkpt><trkpt lat="40.4921558" lon="9.6091167"><ele>150.33333333333334</ele><time>2026-04-24T10:23:58.84Z</time></trkpt><trkpt lat="40.4922162" lon="9.609188"><ele>149.0</ele><time>2026-04-24T10:23:59.838Z</time></trkpt><trkpt lat="40.4922743" lon="9.6092606"><ele>147.66666666666669</ele><time>2026-04-24T10:24:00.838Z</time></trkpt><trkpt lat="40.4923308" lon="9.6093394"><ele>146.33333333333334</ele><time>2026-04-24T10:24:01.838Z</time></trkpt><trkpt lat="40.4923874" lon="9.6094167"><ele>145.0</ele><time>2026-04-24T10:24:02.838Z</time></trkpt><trkpt lat="40.4924446" lon="9.6094906"><ele>145.33333333333334</ele><time>2026-04-24T10:24:03.839Z</time></trkpt><trkpt lat="40.4925038" lon="9.6095619"><ele>145.66666666666669</ele><time>2026-04-24T10:24:04.838Z</time></trkpt><trkpt lat="40.4925636" lon="9.6096355"><ele>146.0</ele><time>2026-04-24T10:24:05.838Z</time></trkpt><trkpt lat="40.4926221" lon="9.6097107"><ele>146.33333333333334</ele><time>2026-04-24T10:24:06.838Z</time></trkpt><trkpt lat="40.4926816" lon="9.6097843"><ele>146.66666666666666</ele><time>2026-04-24T10:24:07.838Z</time></trkpt><trkpt lat="40.4927415" lon="9.6098584"><ele>147.0</ele><time>2026-04-24T10:24:08.839Z</time></trkpt><trkpt lat="40.4928002" lon="9.6099309"><ele>147.0</ele><time>2026-04-24T10:24:09.838Z</time></trkpt><trkpt lat="40.4928578" lon="9.6100017"><ele>147.0</ele><time>2026-04-24T10:24:10.838Z</time></trkpt><trkpt lat="40.4929178" lon="9.6100692"><ele>147.0</ele><time>2026-04-24T10:24:11.839Z</time></trkpt><trkpt lat="40.4929799" lon="9.6101331"><ele>147.0</ele><time>2026-04-24T10:24:12.838Z</time></trkpt><trkpt lat="40.4930394" lon="9.6101983"><ele>147.0</ele><time>2026-04-24T10:24:13.839Z</time></trkpt><trkpt lat="40.4930977" lon="9.6102617"><ele>147.0</ele><time>2026-04-24T10:24:14.839Z</time></trkpt><trkpt lat="40.493158" lon="9.610326"><ele>146.57142857142858</ele><time>2026-04-24T10:24:15.839Z</time></trkpt><trkpt lat="40.4932146" lon="9.610384"><ele>146.14285714285714</ele><time>2026-04-24T10:24:16.838Z</time></trkpt><trkpt lat="40.4932718" lon="9.6104395"><ele>145.71428571428572</ele><time>2026-04-24T10:24:17.838Z</time></trkpt><trkpt lat="40.4933326" lon="9.6104943"><ele>145.28571428571428</ele><time>2026-04-24T10:24:18.839Z</time></trkpt><trkpt lat="40.4933903" lon="9.6105457"><ele>144.85714285714286</ele><time>2026-04-24T10:24:19.838Z</time></trkpt><trkpt lat="40.4934539" lon="9.6105871"><ele>144.42857142857144</ele><time>2026-04-24T10:24:20.839Z</time></trkpt><trkpt lat="40.4935181" lon="9.610611"><ele>144.0</ele><time>2026-04-24T10:24:21.839Z</time></trkpt><trkpt lat="40.4935871" lon="9.6106132"><ele>144.00000000000003</ele><time>2026-04-24T10:24:22.839Z</time></trkpt><trkpt lat="40.4936562" lon="9.610601"><ele>144.0</ele><time>2026-04-24T10:24:23.838Z</time></trkpt><trkpt lat="40.4937184" lon="9.6105693"><ele>144.0</ele><time>2026-04-24T10:24:24.84Z</time></trkpt><trkpt lat="40.4937809" lon="9.6105282"><ele>144.0</ele><time>2026-04-24T10:24:25.839Z</time></trkpt><trkpt lat="40.4938422" lon="9.610487"><ele>144.0</ele><time>2026-04-24T10:24:26.838Z</time></trkpt><trkpt lat="40.4939008" lon="9.6104502"><ele>144.00000000000003</ele><time>2026-04-24T10:24:27.839Z</time></trkpt><trkpt lat="40.4939598" lon="9.6104155"><ele>144.0</ele><time>2026-04-24T10:24:28.84Z</time></trkpt><trkpt lat="40.4940176" lon="9.610379"><ele>143.16666666666666</ele><time>2026-04-24T10:24:29.838Z</time></trkpt><trkpt lat="40.4941321" lon="9.6103125"><ele>142.33333333333334</ele><time>2026-04-24T10:24:31.838Z</time></trkpt><trkpt lat="40.4941942" lon="9.610288"><ele>141.5</ele><time>2026-04-24T10:24:32.84Z</time></trkpt><trkpt lat="40.4943175" lon="9.6102658"><ele>140.66666666666669</ele><time>2026-04-24T10:24:34.839Z</time></trkpt><trkpt lat="40.4943821" lon="9.6102603"><ele>139.83333333333334</ele><time>2026-04-24T10:24:35.839Z</time></trkpt><trkpt lat="40.4944458" lon="9.6102659"><ele>139.0</ele><time>2026-04-24T10:24:36.838Z</time></trkpt><trkpt lat="40.4945083" lon="9.6102786"><ele>139.16666666666669</ele><time>2026-04-24T10:24:37.84Z</time></trkpt><trkpt lat="40.4946296" lon="9.6103184"><ele>139.33333333333334</ele><time>2026-04-24T10:24:39.838Z</time></trkpt><trkpt lat="40.4946909" lon="9.6103431"><ele>139.5</ele><time>2026-04-24T10:24:40.839Z</time></trkpt><trkpt lat="40.4948117" lon="9.6103877"><ele>139.66666666666666</ele><time>2026-04-24T10:24:42.838Z</time></trkpt><trkpt lat="40.4948725" lon="9.6104152"><ele>139.83333333333331</ele><time>2026-04-24T10:24:43.839Z</time></trkpt><trkpt lat="40.4949377" lon="9.6104423"><ele>140.0</ele><time>2026-04-24T10:24:44.839Z</time></trkpt><trkpt lat="40.4950019" lon="9.6104695"><ele>140.0</ele><time>2026-04-24T10:24:45.838Z</time></trkpt><trkpt lat="40.4950629" lon="9.6105053"><ele>140.0</ele><time>2026-04-24T10:24:46.838Z</time></trkpt><trkpt lat="40.4951235" lon="9.6105516"><ele>140.0</ele><time>2026-04-24T10:24:47.838Z</time></trkpt><trkpt lat="40.495181" lon="9.6106113"><ele>140.0</ele><time>2026-04-24T10:24:48.838Z</time></trkpt><trkpt lat="40.4952367" lon="9.6106757"><ele>140.0</ele><time>2026-04-24T10:24:49.839Z</time></trkpt><trkpt lat="40.4952906" lon="9.6107502"><ele>140.0</ele><time>2026-04-24T10:24:50.838Z</time></trkpt><trkpt lat="40.4953369" lon="9.6108315"><ele>140.0</ele><time>2026-04-24T10:24:51.838Z</time></trkpt><trkpt lat="40.4953719" lon="9.6109171"><ele>140.0</ele><time>2026-04-24T10:24:52.839Z</time></trkpt><trkpt lat="40.4954022" lon="9.6110034"><ele>140.0</ele><time>2026-04-24T10:24:53.839Z</time></trkpt><trkpt lat="40.4954264" lon="9.611093"><ele>140.0</ele><time>2026-04-24T10:24:54.838Z</time></trkpt><trkpt lat="40.4954545" lon="9.6111812"><ele>140.0</ele><time>2026-04-24T10:24:55.838Z</time></trkpt><trkpt lat="40.4954813" lon="9.611272"><ele>140.0</ele><time>2026-04-24T10:24:56.838Z</time></trkpt><trkpt lat="40.495505" lon="9.6113637"><ele>140.0</ele><time>2026-04-24T10:24:57.839Z</time></trkpt><trkpt lat="40.4955279" lon="9.611454"><ele>140.0</ele><time>2026-04-24T10:24:58.838Z</time></trkpt><trkpt lat="40.4955522" lon="9.6115429"><ele>139.28571428571428</ele><time>2026-04-24T10:24:59.838Z</time></trkpt><trkpt lat="40.4955787" lon="9.6116325"><ele>138.57142857142856</ele><time>2026-04-24T10:25:00.839Z</time></trkpt><trkpt lat="40.4956095" lon="9.6117196"><ele>137.85714285714286</ele><time>2026-04-24T10:25:01.839Z</time></trkpt><trkpt lat="40.4956437" lon="9.6118036"><ele>137.14285714285714</ele><time>2026-04-24T10:25:02.838Z</time></trkpt><trkpt lat="40.4956753" lon="9.6118874"><ele>136.42857142857142</ele><time>2026-04-24T10:25:03.839Z</time></trkpt><trkpt lat="40.4957031" lon="9.6119716"><ele>135.71428571428572</ele><time>2026-04-24T10:25:04.839Z</time></trkpt><trkpt lat="40.4957321" lon="9.612052"><ele>135.0</ele><time>2026-04-24T10:25:05.839Z</time></trkpt><trkpt lat="40.4957627" lon="9.6121299"><ele>134.4</ele><time>2026-04-24T10:25:06.838Z</time></trkpt><trkpt lat="40.4957931" lon="9.6122055"><ele>133.8</ele><time>2026-04-24T10:25:07.839Z</time></trkpt><trkpt lat="40.4958544" lon="9.6123481"><ele>133.2</ele><time>2026-04-24T10:25:09.839Z</time></trkpt><trkpt lat="40.4959065" lon="9.6124872"><ele>132.6</ele><time>2026-04-24T10:25:11.839Z</time></trkpt><trkpt lat="40.4959496" lon="9.6126271"><ele>132.0</ele><time>2026-04-24T10:25:13.839Z</time></trkpt><trkpt lat="40.4960101" lon="9.6127529"><ele>132.0</ele><time>2026-04-24T10:25:15.838Z</time></trkpt><trkpt lat="40.4960663" lon="9.6128857"><ele>132.0</ele><time>2026-04-24T10:25:17.838Z</time></trkpt><trkpt lat="40.496115" lon="9.6130167"><ele>132.0</ele><time>2026-04-24T10:25:19.838Z</time></trkpt><trkpt lat="40.4961818" lon="9.6131262"><ele>132.0</ele><time>2026-04-24T10:25:21.838Z</time></trkpt><trkpt lat="40.4962644" lon="9.6132225"><ele>132.0</ele><time>2026-04-24T10:25:23.838Z</time></trkpt><trkpt lat="40.4963657" lon="9.6132997"><ele>132.6</ele><time>2026-04-24T10:25:25.838Z</time></trkpt><trkpt lat="40.4964657" lon="9.6133717"><ele>133.2</ele><time>2026-04-24T10:25:27.838Z</time></trkpt><trkpt lat="40.4965698" lon="9.6134292"><ele>133.8</ele><time>2026-04-24T10:25:29.839Z</time></trkpt><trkpt lat="40.4966703" lon="9.6134814"><ele>134.4</ele><time>2026-04-24T10:25:31.838Z</time></trkpt><trkpt lat="40.4967737" lon="9.613529"><ele>135.0</ele><time>2026-04-24T10:25:33.84Z</time></trkpt><trkpt lat="40.4968747" lon="9.6135779"><ele>135.0</ele><time>2026-04-24T10:25:35.839Z</time></trkpt><trkpt lat="40.4969721" lon="9.6136272"><ele>135.0</ele><time>2026-04-24T10:25:37.838Z</time></trkpt><trkpt lat="40.4970713" lon="9.6136723"><ele>135.0</ele><time>2026-04-24T10:25:39.838Z</time></trkpt><trkpt lat="40.4971676" lon="9.6137228"><ele>135.0</ele><time>2026-04-24T10:25:41.839Z</time></trkpt><trkpt lat="40.4972664" lon="9.613786"><ele>135.0</ele><time>2026-04-24T10:25:43.838Z</time></trkpt><trkpt lat="40.4973641" lon="9.6138453"><ele>133.4</ele><time>2026-04-24T10:25:45.839Z</time></trkpt><trkpt lat="40.4974699" lon="9.6138855"><ele>131.8</ele><time>2026-04-24T10:25:47.838Z</time></trkpt><trkpt lat="40.4975716" lon="9.6139483"><ele>130.2</ele><time>2026-04-24T10:25:49.838Z</time></trkpt><trkpt lat="40.4976708" lon="9.6140075"><ele>128.6</ele><time>2026-04-24T10:25:51.838Z</time></trkpt><trkpt lat="40.4977722" lon="9.6140808"><ele>127.0</ele><time>2026-04-24T10:25:53.838Z</time></trkpt><trkpt lat="40.4978693" lon="9.6141623"><ele>127.8</ele><time>2026-04-24T10:25:55.838Z</time></trkpt><trkpt lat="40.4979712" lon="9.6142377"><ele>128.6</ele><time>2026-04-24T10:25:57.84Z</time></trkpt><trkpt lat="40.4980768" lon="9.6143224"><ele>129.39999999999998</ele><time>2026-04-24T10:25:59.838Z</time></trkpt><trkpt lat="40.4981313" lon="9.6143681"><ele>130.2</ele><time>2026-04-24T10:26:00.838Z</time></trkpt><trkpt lat="40.4982382" lon="9.6144545"><ele>131.0</ele><time>2026-04-24T10:26:02.839Z</time></trkpt><trkpt lat="40.4982945" lon="9.6144938"><ele>129.71428571428572</ele><time>2026-04-24T10:26:03.839Z</time></trkpt><trkpt lat="40.498351" lon="9.6145376"><ele>128.42857142857144</ele><time>2026-04-24T10:26:04.838Z</time></trkpt><trkpt lat="40.4984084" lon="9.6145786"><ele>127.14285714285714</ele><time>2026-04-24T10:26:05.84Z</time></trkpt><trkpt lat="40.4984642" lon="9.6146203"><ele>125.85714285714286</ele><time>2026-04-24T10:26:06.838Z</time></trkpt><trkpt lat="40.4985198" lon="9.6146625"><ele>124.57142857142857</ele><time>2026-04-24T10:26:07.839Z</time></trkpt><trkpt lat="40.4985782" lon="9.6146981"><ele>123.28571428571428</ele><time>2026-04-24T10:26:08.839Z</time></trkpt><trkpt lat="40.4986369" lon="9.6147309"><ele>121.99999999999999</ele><time>2026-04-24T10:26:09.838Z</time></trkpt><trkpt lat="40.4987542" lon="9.6147945"><ele>121.99999999999999</ele><time>2026-04-24T10:26:11.838Z</time></trkpt><trkpt lat="40.4988138" lon="9.6148277"><ele>122.0</ele><time>2026-04-24T10:26:12.838Z</time></trkpt><trkpt lat="40.498935" lon="9.6148764"><ele>122.0</ele><time>2026-04-24T10:26:14.839Z</time></trkpt><trkpt lat="40.4989959" lon="9.6149052"><ele>122.0</ele><time>2026-04-24T10:26:15.839Z</time></trkpt><trkpt lat="40.4990576" lon="9.6149384"><ele>121.99999999999999</ele><time>2026-04-24T10:26:16.839Z</time></trkpt><trkpt lat="40.4991203" lon="9.6149683"><ele>122.0</ele><time>2026-04-24T10:26:17.839Z</time></trkpt><trkpt lat="40.4991822" lon="9.6149936"><ele>121.99999999999999</ele><time>2026-04-24T10:26:18.839Z</time></trkpt><trkpt lat="40.4992459" lon="9.615014"><ele>122.0</ele><time>2026-04-24T10:26:19.839Z</time></trkpt><trkpt lat="40.4993079" lon="9.6150369"><ele>121.99999999999999</ele><time>2026-04-24T10:26:20.839Z</time></trkpt><trkpt lat="40.4993685" lon="9.6150668"><ele>121.99999999999999</ele><time>2026-04-24T10:26:21.838Z</time></trkpt><trkpt lat="40.4994277" lon="9.6151088"><ele>122.0</ele><time>2026-04-24T10:26:22.838Z</time></trkpt><trkpt lat="40.4994814" lon="9.6151631"><ele>121.99999999999999</ele><time>2026-04-24T10:26:23.84Z</time></trkpt><trkpt lat="40.4995333" lon="9.6152226"><ele>121.99999999999999</ele><time>2026-04-24T10:26:24.838Z</time></trkpt><trkpt lat="40.4995775" lon="9.6152883"><ele>121.14285714285712</ele><time>2026-04-24T10:26:25.839Z</time></trkpt><trkpt lat="40.4996157" lon="9.6153585"><ele>120.28571428571428</ele><time>2026-04-24T10:26:26.838Z</time></trkpt><trkpt lat="40.4996477" lon="9.6154328"><ele>119.42857142857143</ele><time>2026-04-24T10:26:27.838Z</time></trkpt><trkpt lat="40.4996803" lon="9.6155112"><ele>118.57142857142857</ele><time>2026-04-24T10:26:28.838Z</time></trkpt><trkpt lat="40.4997095" lon="9.615592"><ele>117.71428571428572</ele><time>2026-04-24T10:26:29.838Z</time></trkpt><trkpt lat="40.4997385" lon="9.6156734"><ele>116.85714285714288</ele><time>2026-04-24T10:26:30.838Z</time></trkpt><trkpt lat="40.4997695" lon="9.6157551"><ele>116.00000000000001</ele><time>2026-04-24T10:26:31.838Z</time></trkpt><trkpt lat="40.4997972" lon="9.6158357"><ele>116.00000000000001</ele><time>2026-04-24T10:26:32.839Z</time></trkpt><trkpt lat="40.4998209" lon="9.6159185"><ele>116.0</ele><time>2026-04-24T10:26:33.838Z</time></trkpt><trkpt lat="40.4998409" lon="9.6160025"><ele>116.00000000000001</ele><time>2026-04-24T10:26:34.838Z</time></trkpt><trkpt lat="40.4998666" lon="9.6160836"><ele>116.00000000000001</ele><time>2026-04-24T10:26:35.839Z</time></trkpt><trkpt lat="40.4998949" lon="9.6161627"><ele>116.0</ele><time>2026-04-24T10:26:36.839Z</time></trkpt><trkpt lat="40.4999201" lon="9.616239"><ele>116.00000000000001</ele><time>2026-04-24T10:26:37.838Z</time></trkpt><trkpt lat="40.4999418" lon="9.6163177"><ele>116.00000000000001</ele><time>2026-04-24T10:26:38.838Z</time></trkpt><trkpt lat="40.4999645" lon="9.6163965"><ele>116.00000000000001</ele><time>2026-04-24T10:26:39.839Z</time></trkpt><trkpt lat="40.499985" lon="9.6164763"><ele>116.0</ele><time>2026-04-24T10:26:40.838Z</time></trkpt><trkpt lat="40.5000061" lon="9.6165579"><ele>116.00000000000001</ele><time>2026-04-24T10:26:41.838Z</time></trkpt><trkpt lat="40.5000302" lon="9.6166373"><ele>116.00000000000001</ele><time>2026-04-24T10:26:42.838Z</time></trkpt><trkpt lat="40.5000557" lon="9.6167145"><ele>116.0</ele><time>2026-04-24T10:26:43.838Z</time></trkpt><trkpt lat="40.50008" lon="9.6167914"><ele>116.00000000000001</ele><time>2026-04-24T10:26:44.839Z</time></trkpt><trkpt lat="40.5001049" lon="9.6168709"><ele>116.00000000000001</ele><time>2026-04-24T10:26:45.838Z</time></trkpt><trkpt lat="40.5001285" lon="9.6169492"><ele>115.875</ele><time>2026-04-24T10:26:46.838Z</time></trkpt><trkpt lat="40.5001551" lon="9.6170249"><ele>115.75</ele><time>2026-04-24T10:26:47.839Z</time></trkpt><trkpt lat="40.500184" lon="9.6171008"><ele>115.625</ele><time>2026-04-24T10:26:48.838Z</time></trkpt><trkpt lat="40.5002136" lon="9.6171778"><ele>115.5</ele><time>2026-04-24T10:26:49.838Z</time></trkpt><trkpt lat="40.5002469" lon="9.6172481"><ele>115.375</ele><time>2026-04-24T10:26:50.839Z</time></trkpt><trkpt lat="40.5002802" lon="9.6173188"><ele>115.25</ele><time>2026-04-24T10:26:51.838Z</time></trkpt><trkpt lat="40.5003182" lon="9.6173877"><ele>115.125</ele><time>2026-04-24T10:26:52.839Z</time></trkpt><trkpt lat="40.5003561" lon="9.6174559"><ele>115.0</ele><time>2026-04-24T10:26:53.838Z</time></trkpt><trkpt lat="40.5003996" lon="9.6175187"><ele>114.2</ele><time>2026-04-24T10:26:54.839Z</time></trkpt><trkpt lat="40.5004459" lon="9.6175795"><ele>113.4</ele><time>2026-04-24T10:26:55.838Z</time></trkpt><trkpt lat="40.5004896" lon="9.6176394"><ele>112.6</ele><time>2026-04-24T10:26:56.838Z</time></trkpt><trkpt lat="40.5005794" lon="9.6177473"><ele>111.8</ele><time>2026-04-24T10:26:58.838Z</time></trkpt><trkpt lat="40.5006629" lon="9.6178621"><ele>111.0</ele><time>2026-04-24T10:27:00.838Z</time></trkpt><trkpt lat="40.5007417" lon="9.6179772"><ele>110.8</ele><time>2026-04-24T10:27:02.838Z</time></trkpt><trkpt lat="40.500819" lon="9.6180982"><ele>110.6</ele><time>2026-04-24T10:27:04.838Z</time></trkpt><trkpt lat="40.5008624" lon="9.6181615"><ele>110.4</ele><time>2026-04-24T10:27:05.839Z</time></trkpt><trkpt lat="40.5009377" lon="9.6182942"><ele>110.2</ele><time>2026-04-24T10:27:07.839Z</time></trkpt><trkpt lat="40.50097" lon="9.6184494"><ele>110.0</ele><time>2026-04-24T10:27:09.838Z</time></trkpt><trkpt lat="40.5009519" lon="9.6186146"><ele>110.6</ele><time>2026-04-24T10:27:11.839Z</time></trkpt><trkpt lat="40.5009248" lon="9.6186909"><ele>111.2</ele><time>2026-04-24T10:27:12.838Z</time></trkpt><trkpt lat="40.5008883" lon="9.6187603"><ele>111.80000000000001</ele><time>2026-04-24T10:27:13.838Z</time></trkpt><trkpt lat="40.5008181" lon="9.6188772"><ele>112.4</ele><time>2026-04-24T10:27:15.839Z</time></trkpt><trkpt lat="40.5007433" lon="9.6189987"><ele>113.0</ele><time>2026-04-24T10:27:17.839Z</time></trkpt><trkpt lat="40.5006715" lon="9.6191223"><ele>113.0</ele><time>2026-04-24T10:27:19.838Z</time></trkpt><trkpt lat="40.5006178" lon="9.6192481"><ele>113.00000000000001</ele><time>2026-04-24T10:27:21.838Z</time></trkpt><trkpt lat="40.5006017" lon="9.6193758"><ele>113.00000000000001</ele><time>2026-04-24T10:27:23.838Z</time></trkpt><trkpt lat="40.5006084" lon="9.6195057"><ele>113.0</ele><time>2026-04-24T10:27:25.838Z</time></trkpt><trkpt lat="40.5006351" lon="9.6196364"><ele>113.0</ele><time>2026-04-24T10:27:27.838Z</time></trkpt><trkpt lat="40.5006879" lon="9.6197427"><ele>114.4</ele><time>2026-04-24T10:27:29.839Z</time></trkpt><trkpt lat="40.5007574" lon="9.6198262"><ele>115.80000000000001</ele><time>2026-04-24T10:27:31.839Z</time></trkpt><trkpt lat="40.500843" lon="9.6198859"><ele>117.2</ele><time>2026-04-24T10:27:33.838Z</time></trkpt><trkpt lat="40.5009307" lon="9.6199404"><ele>118.6</ele><time>2026-04-24T10:27:35.838Z</time></trkpt><trkpt lat="40.5010197" lon="9.6200011"><ele>120.0</ele><time>2026-04-24T10:27:37.838Z</time></trkpt><trkpt lat="40.5011138" lon="9.620058"><ele>120.0</ele><time>2026-04-24T10:27:39.839Z</time></trkpt><trkpt lat="40.5012104" lon="9.6201017"><ele>120.0</ele><time>2026-04-24T10:27:41.838Z</time></trkpt><trkpt lat="40.5013018" lon="9.6201561"><ele>120.0</ele><time>2026-04-24T10:27:43.839Z</time></trkpt><trkpt lat="40.5013885" lon="9.6202186"><ele>120.0</ele><time>2026-04-24T10:27:45.838Z</time></trkpt><trkpt lat="40.5014817" lon="9.6202744"><ele>120.0</ele><time>2026-04-24T10:27:47.838Z</time></trkpt><trkpt lat="40.5015757" lon="9.620331"><ele>119.2</ele><time>2026-04-24T10:27:49.839Z</time></trkpt><trkpt lat="40.5016631" lon="9.6204025"><ele>118.4</ele><time>2026-04-24T10:27:51.839Z</time></trkpt><trkpt lat="40.5017567" lon="9.6204612"><ele>117.6</ele><time>2026-04-24T10:27:53.838Z</time></trkpt><trkpt lat="40.5018461" lon="9.6205312"><ele>116.8</ele><time>2026-04-24T10:27:55.838Z</time></trkpt><trkpt lat="40.5019331" lon="9.6206064"><ele>116.0</ele><time>2026-04-24T10:27:57.839Z</time></trkpt><trkpt lat="40.5020229" lon="9.6206744"><ele>115.0</ele><time>2026-04-24T10:27:59.838Z</time></trkpt><trkpt lat="40.5021097" lon="9.6207514"><ele>114.0</ele><time>2026-04-24T10:28:01.838Z</time></trkpt><trkpt lat="40.502202" lon="9.6208271"><ele>113.0</ele><time>2026-04-24T10:28:03.838Z</time></trkpt><trkpt lat="40.5022947" lon="9.6209023"><ele>112.0</ele><time>2026-04-24T10:28:05.839Z</time></trkpt><trkpt lat="40.5023891" lon="9.6209798"><ele>111.0</ele><time>2026-04-24T10:28:07.838Z</time></trkpt><trkpt lat="40.5024816" lon="9.6210512"><ele>111.0</ele><time>2026-04-24T10:28:09.839Z</time></trkpt><trkpt lat="40.5025686" lon="9.6211357"><ele>111.0</ele><time>2026-04-24T10:28:11.838Z</time></trkpt><trkpt lat="40.5026669" lon="9.6212039"><ele>111.0</ele><time>2026-04-24T10:28:13.839Z</time></trkpt><trkpt lat="40.5027584" lon="9.6212766"><ele>111.0</ele><time>2026-04-24T10:28:15.838Z</time></trkpt><trkpt lat="40.5028509" lon="9.621351"><ele>111.0</ele><time>2026-04-24T10:28:17.839Z</time></trkpt><trkpt lat="40.5029465" lon="9.6214212"><ele>111.0</ele><time>2026-04-24T10:28:19.838Z</time></trkpt><trkpt lat="40.5030432" lon="9.6215009"><ele>111.0</ele><time>2026-04-24T10:28:21.839Z</time></trkpt><trkpt lat="40.5031286" lon="9.6215836"><ele>111.0</ele><time>2026-04-24T10:28:23.838Z</time></trkpt><trkpt lat="40.5032135" lon="9.6216651"><ele>111.0</ele><time>2026-04-24T10:28:25.838Z</time></trkpt><trkpt lat="40.5032943" lon="9.6217557"><ele>111.0</ele><time>2026-04-24T10:28:27.838Z</time></trkpt><trkpt lat="40.5033729" lon="9.6218537"><ele>111.0</ele><time>2026-04-24T10:28:29.839Z</time></trkpt><trkpt lat="40.5034496" lon="9.6219483"><ele>111.0</ele><time>2026-04-24T10:28:31.838Z</time></trkpt><trkpt lat="40.5035266" lon="9.6220539"><ele>111.0</ele><time>2026-04-24T10:28:33.838Z</time></trkpt><trkpt lat="40.5036039" lon="9.6221595"><ele>111.0</ele><time>2026-04-24T10:28:35.838Z</time></trkpt><trkpt lat="40.5036788" lon="9.6222663"><ele>111.0</ele><time>2026-04-24T10:28:37.838Z</time></trkpt><trkpt lat="40.5037518" lon="9.6223786"><ele>109.5</ele><time>2026-04-24T10:28:39.838Z</time></trkpt><trkpt lat="40.503831" lon="9.6224853"><ele>108.0</ele><time>2026-04-24T10:28:41.839Z</time></trkpt><trkpt lat="40.5039128" lon="9.6225964"><ele>106.5</ele><time>2026-04-24T10:28:43.838Z</time></trkpt><trkpt lat="40.5039959" lon="9.6227114"><ele>105.0</ele><time>2026-04-24T10:28:45.839Z</time></trkpt><trkpt lat="40.5040769" lon="9.6228282"><ele>105.0</ele><time>2026-04-24T10:28:47.838Z</time></trkpt><trkpt lat="40.5041221" lon="9.6228869"><ele>105.0</ele><time>2026-04-24T10:28:48.838Z</time></trkpt><trkpt lat="40.5041675" lon="9.6229445"><ele>105.0</ele><time>2026-04-24T10:28:49.839Z</time></trkpt><trkpt lat="40.5042126" lon="9.6230035"><ele>105.0</ele><time>2026-04-24T10:28:50.838Z</time></trkpt><trkpt lat="40.5042948" lon="9.6231244"><ele>105.0</ele><time>2026-04-24T10:28:52.838Z</time></trkpt><trkpt lat="40.5043761" lon="9.6232448"><ele>105.0</ele><time>2026-04-24T10:28:54.838Z</time></trkpt><trkpt lat="40.5044565" lon="9.623367"><ele>105.0</ele><time>2026-04-24T10:28:56.838Z</time></trkpt><trkpt lat="40.5045387" lon="9.6234757"><ele>105.0</ele><time>2026-04-24T10:28:58.838Z</time></trkpt><trkpt lat="40.5046172" lon="9.6235847"><ele>105.0</ele><time>2026-04-24T10:29:00.839Z</time></trkpt><trkpt lat="40.5046959" lon="9.6236991"><ele>105.0</ele><time>2026-04-24T10:29:02.838Z</time></trkpt><trkpt lat="40.5047776" lon="9.6238063"><ele>104.0</ele><time>2026-04-24T10:29:04.839Z</time></trkpt><trkpt lat="40.5048493" lon="9.6239213"><ele>103.0</ele><time>2026-04-24T10:29:06.838Z</time></trkpt><trkpt lat="40.504921" lon="9.624026"><ele>102.0</ele><time>2026-04-24T10:29:08.838Z</time></trkpt><trkpt lat="40.5049934" lon="9.6241343"><ele>101.0</ele><time>2026-04-24T10:29:10.838Z</time></trkpt><trkpt lat="40.505067" lon="9.6242302"><ele>100.0</ele><time>2026-04-24T10:29:12.838Z</time></trkpt><trkpt lat="40.5051398" lon="9.6243273"><ele>100.0</ele><time>2026-04-24T10:29:14.838Z</time></trkpt><trkpt lat="40.5052156" lon="9.6244235"><ele>100.0</ele><time>2026-04-24T10:29:16.838Z</time></trkpt><trkpt lat="40.5052926" lon="9.6245265"><ele>100.0</ele><time>2026-04-24T10:29:18.838Z</time></trkpt><trkpt lat="40.5053709" lon="9.6246352"><ele>100.0</ele><time>2026-04-24T10:29:20.838Z</time></trkpt><trkpt lat="40.5054543" lon="9.6247532"><ele>99.16666666666667</ele><time>2026-04-24T10:29:22.838Z</time></trkpt><trkpt lat="40.5055398" lon="9.6248729"><ele>98.33333333333334</ele><time>2026-04-24T10:29:24.838Z</time></trkpt><trkpt lat="40.5055856" lon="9.6249324"><ele>97.5</ele><time>2026-04-24T10:29:25.839Z</time></trkpt><trkpt lat="40.5056291" lon="9.6249939"><ele>96.66666666666667</ele><time>2026-04-24T10:29:26.838Z</time></trkpt><trkpt lat="40.5057149" lon="9.6251139"><ele>95.83333333333334</ele><time>2026-04-24T10:29:28.838Z</time></trkpt><trkpt lat="40.5057581" lon="9.6251748"><ele>95.0</ele><time>2026-04-24T10:29:29.838Z</time></trkpt><trkpt lat="40.5058438" lon="9.6252895"><ele>94.25</ele><time>2026-04-24T10:29:31.838Z</time></trkpt><trkpt lat="40.5059272" lon="9.6254043"><ele>93.5</ele><time>2026-04-24T10:29:33.838Z</time></trkpt><trkpt lat="40.5060147" lon="9.6255213"><ele>92.75</ele><time>2026-04-24T10:29:35.838Z</time></trkpt><trkpt lat="40.5061006" lon="9.6256339"><ele>92.0</ele><time>2026-04-24T10:29:37.839Z</time></trkpt><trkpt lat="40.5061841" lon="9.6257428"><ele>91.8</ele><time>2026-04-24T10:29:39.839Z</time></trkpt><trkpt lat="40.5062589" lon="9.6258458"><ele>91.6</ele><time>2026-04-24T10:29:41.838Z</time></trkpt><trkpt lat="40.5063351" lon="9.6259536"><ele>91.39999999999999</ele><time>2026-04-24T10:29:43.838Z</time></trkpt><trkpt lat="40.5064108" lon="9.6260616"><ele>91.19999999999999</ele><time>2026-04-24T10:29:45.838Z</time></trkpt><trkpt lat="40.5064867" lon="9.6261717"><ele>91.0</ele><time>2026-04-24T10:29:47.838Z</time></trkpt><trkpt lat="40.506565" lon="9.6262795"><ele>91.0</ele><time>2026-04-24T10:29:49.838Z</time></trkpt><trkpt lat="40.50665" lon="9.6263777"><ele>91.0</ele><time>2026-04-24T10:29:51.839Z</time></trkpt><trkpt lat="40.5067255" lon="9.6264843"><ele>91.0</ele><time>2026-04-24T10:29:53.838Z</time></trkpt><trkpt lat="40.5067957" lon="9.626593"><ele>91.0</ele><time>2026-04-24T10:29:55.839Z</time></trkpt><trkpt lat="40.5068676" lon="9.6267036"><ele>91.0</ele><time>2026-04-24T10:29:57.839Z</time></trkpt><trkpt lat="40.5069364" lon="9.6268114"><ele>91.0</ele><time>2026-04-24T10:29:59.839Z</time></trkpt><trkpt lat="40.5070122" lon="9.626908"><ele>91.0</ele><time>2026-04-24T10:30:01.837Z</time></trkpt><trkpt lat="40.5070847" lon="9.6270121"><ele>91.0</ele><time>2026-04-24T10:30:03.839Z</time></trkpt><trkpt lat="40.5071608" lon="9.6271145"><ele>91.0</ele><time>2026-04-24T10:30:05.838Z</time></trkpt><trkpt lat="40.5072348" lon="9.6272183"><ele>91.0</ele><time>2026-04-24T10:30:07.839Z</time></trkpt><trkpt lat="40.5073123" lon="9.6273294"><ele>91.19999999999999</ele><time>2026-04-24T10:30:09.838Z</time></trkpt><trkpt lat="40.507392" lon="9.6274355"><ele>91.39999999999999</ele><time>2026-04-24T10:30:11.838Z</time></trkpt><trkpt lat="40.507468" lon="9.627536"><ele>91.6</ele><time>2026-04-24T10:30:13.838Z</time></trkpt><trkpt lat="40.5075436" lon="9.6276366"><ele>91.8</ele><time>2026-04-24T10:30:15.838Z</time></trkpt><trkpt lat="40.5076178" lon="9.6277453"><ele>92.0</ele><time>2026-04-24T10:30:17.838Z</time></trkpt><trkpt lat="40.5076955" lon="9.6278519"><ele>92.0</ele><time>2026-04-24T10:30:19.839Z</time></trkpt><trkpt lat="40.5077713" lon="9.6279569"><ele>92.0</ele><time>2026-04-24T10:30:21.838Z</time></trkpt><trkpt lat="40.5078425" lon="9.6280607"><ele>92.0</ele><time>2026-04-24T10:30:23.837Z</time></trkpt><trkpt lat="40.5079208" lon="9.6281663"><ele>92.0</ele><time>2026-04-24T10:30:25.839Z</time></trkpt><trkpt lat="40.5080002" lon="9.6282744"><ele>92.0</ele><time>2026-04-24T10:30:27.837Z</time></trkpt><trkpt lat="40.5080724" lon="9.6283804"><ele>91.8</ele><time>2026-04-24T10:30:29.839Z</time></trkpt><trkpt lat="40.5081478" lon="9.6284735"><ele>91.6</ele><time>2026-04-24T10:30:31.839Z</time></trkpt><trkpt lat="40.5082108" lon="9.6285704"><ele>91.39999999999999</ele><time>2026-04-24T10:30:33.837Z</time></trkpt><trkpt lat="40.5082734" lon="9.6286642"><ele>91.19999999999999</ele><time>2026-04-24T10:30:35.839Z</time></trkpt><trkpt lat="40.5083376" lon="9.6287529"><ele>91.0</ele><time>2026-04-24T10:30:37.839Z</time></trkpt><trkpt lat="40.5083964" lon="9.6288487"><ele>91.0</ele><time>2026-04-24T10:30:39.839Z</time></trkpt><trkpt lat="40.508464" lon="9.6289268"><ele>91.0</ele><time>2026-04-24T10:30:41.838Z</time></trkpt><trkpt lat="40.5085309" lon="9.6289966"><ele>91.0</ele><time>2026-04-24T10:30:43.839Z</time></trkpt><trkpt lat="40.5086039" lon="9.629055"><ele>91.0</ele><time>2026-04-24T10:30:45.838Z</time></trkpt><trkpt lat="40.5086827" lon="9.6291148"><ele>91.0</ele><time>2026-04-24T10:30:47.838Z</time></trkpt><trkpt lat="40.5087728" lon="9.6291539"><ele>91.0</ele><time>2026-04-24T10:30:49.838Z</time></trkpt><trkpt lat="40.5088593" lon="9.6291947"><ele>90.33333333333333</ele><time>2026-04-24T10:30:51.837Z</time></trkpt><trkpt lat="40.5089451" lon="9.6292282"><ele>89.66666666666666</ele><time>2026-04-24T10:30:53.838Z</time></trkpt><trkpt lat="40.5090337" lon="9.6292452"><ele>89.0</ele><time>2026-04-24T10:30:55.838Z</time></trkpt><trkpt lat="40.5091231" lon="9.6292689"><ele>88.33333333333333</ele><time>2026-04-24T10:30:57.838Z</time></trkpt><trkpt lat="40.5092092" lon="9.6292942"><ele>87.66666666666667</ele><time>2026-04-24T10:30:59.838Z</time></trkpt><trkpt lat="40.5092918" lon="9.62932"><ele>87.0</ele><time>2026-04-24T10:31:01.838Z</time></trkpt><trkpt lat="40.5093742" lon="9.6293455"><ele>87.0</ele><time>2026-04-24T10:31:03.838Z</time></trkpt><trkpt lat="40.5094608" lon="9.6293635"><ele>87.0</ele><time>2026-04-24T10:31:05.839Z</time></trkpt><trkpt lat="40.5095524" lon="9.6293766"><ele>87.0</ele><time>2026-04-24T10:31:07.839Z</time></trkpt><trkpt lat="40.5096405" lon="9.6294045"><ele>87.0</ele><time>2026-04-24T10:31:09.838Z</time></trkpt><trkpt lat="40.5097323" lon="9.629429"><ele>87.0</ele><time>2026-04-24T10:31:11.839Z</time></trkpt><trkpt lat="40.5098249" lon="9.6294488"><ele>86.8</ele><time>2026-04-24T10:31:13.839Z</time></trkpt><trkpt lat="40.5099182" lon="9.6294639"><ele>86.6</ele><time>2026-04-24T10:31:15.838Z</time></trkpt><trkpt lat="40.5100171" lon="9.6294974"><ele>86.39999999999999</ele><time>2026-04-24T10:31:17.839Z</time></trkpt><trkpt lat="40.5101181" lon="9.6295231"><ele>86.19999999999999</ele><time>2026-04-24T10:31:19.839Z</time></trkpt><trkpt lat="40.5102225" lon="9.6295473"><ele>86.0</ele><time>2026-04-24T10:31:21.838Z</time></trkpt><trkpt lat="40.5103246" lon="9.6295824"><ele>86.0</ele><time>2026-04-24T10:31:23.839Z</time></trkpt><trkpt lat="40.5104293" lon="9.629607"><ele>86.0</ele><time>2026-04-24T10:31:25.839Z</time></trkpt><trkpt lat="40.5105343" lon="9.6296308"><ele>86.0</ele><time>2026-04-24T10:31:27.839Z</time></trkpt><trkpt lat="40.510634" lon="9.6296599"><ele>86.0</ele><time>2026-04-24T10:31:29.838Z</time></trkpt><trkpt lat="40.5107389" lon="9.6296879"><ele>86.0</ele><time>2026-04-24T10:31:31.839Z</time></trkpt><trkpt lat="40.5108366" lon="9.6297188"><ele>86.0</ele><time>2026-04-24T10:31:33.839Z</time></trkpt><trkpt lat="40.5109242" lon="9.6297586"><ele>86.0</ele><time>2026-04-24T10:31:35.837Z</time></trkpt><trkpt lat="40.5110087" lon="9.6298039"><ele>86.0</ele><time>2026-04-24T10:31:37.838Z</time></trkpt><trkpt lat="40.5110977" lon="9.6298515"><ele>86.0</ele><time>2026-04-24T10:31:39.838Z</time></trkpt><trkpt lat="40.5111882" lon="9.629903"><ele>86.0</ele><time>2026-04-24T10:31:41.838Z</time></trkpt><trkpt lat="40.5112763" lon="9.6299621"><ele>85.0</ele><time>2026-04-24T10:31:43.838Z</time></trkpt><trkpt lat="40.5113676" lon="9.6300075"><ele>84.0</ele><time>2026-04-24T10:31:45.839Z</time></trkpt><trkpt lat="40.5114561" lon="9.630053"><ele>83.0</ele><time>2026-04-24T10:31:47.839Z</time></trkpt><trkpt lat="40.5115409" lon="9.630108"><ele>82.0</ele><time>2026-04-24T10:31:49.839Z</time></trkpt><trkpt lat="40.5116338" lon="9.6301596"><ele>81.0</ele><time>2026-04-24T10:31:51.838Z</time></trkpt><trkpt lat="40.5117307" lon="9.6302019"><ele>81.0</ele><time>2026-04-24T10:31:53.838Z</time></trkpt><trkpt lat="40.5118203" lon="9.6302664"><ele>81.0</ele><time>2026-04-24T10:31:55.838Z</time></trkpt><trkpt lat="40.5119134" lon="9.6303202"><ele>81.0</ele><time>2026-04-24T10:31:57.838Z</time></trkpt><trkpt lat="40.5120089" lon="9.6303715"><ele>81.0</ele><time>2026-04-24T10:31:59.838Z</time></trkpt><trkpt lat="40.5120964" lon="9.6304316"><ele>81.0</ele><time>2026-04-24T10:32:01.839Z</time></trkpt><trkpt lat="40.5121866" lon="9.6304818"><ele>81.8</ele><time>2026-04-24T10:32:03.839Z</time></trkpt><trkpt lat="40.5122812" lon="9.6305258"><ele>82.6</ele><time>2026-04-24T10:32:05.839Z</time></trkpt><trkpt lat="40.512377" lon="9.6305553"><ele>83.4</ele><time>2026-04-24T10:32:07.837Z</time></trkpt><trkpt lat="40.5124743" lon="9.6305892"><ele>84.2</ele><time>2026-04-24T10:32:09.838Z</time></trkpt><trkpt lat="40.5125732" lon="9.6306123"><ele>85.0</ele><time>2026-04-24T10:32:11.838Z</time></trkpt><trkpt lat="40.5126768" lon="9.6306329"><ele>85.0</ele><time>2026-04-24T10:32:13.838Z</time></trkpt><trkpt lat="40.5127845" lon="9.6306435"><ele>85.0</ele><time>2026-04-24T10:32:15.837Z</time></trkpt><trkpt lat="40.5128943" lon="9.6306577"><ele>85.0</ele><time>2026-04-24T10:32:17.838Z</time></trkpt><trkpt lat="40.513006" lon="9.6306662"><ele>85.0</ele><time>2026-04-24T10:32:19.838Z</time></trkpt><trkpt lat="40.5131198" lon="9.6306777"><ele>85.0</ele><time>2026-04-24T10:32:21.838Z</time></trkpt><trkpt lat="40.5132265" lon="9.6306889"><ele>84.6</ele><time>2026-04-24T10:32:23.839Z</time></trkpt><trkpt lat="40.513332" lon="9.6306917"><ele>84.2</ele><time>2026-04-24T10:32:25.837Z</time></trkpt><trkpt lat="40.5134351" lon="9.6307001"><ele>83.80000000000001</ele><time>2026-04-24T10:32:27.838Z</time></trkpt><trkpt lat="40.5135351" lon="9.6307057"><ele>83.4</ele><time>2026-04-24T10:32:29.838Z</time></trkpt><trkpt lat="40.5136287" lon="9.6307114"><ele>83.0</ele><time>2026-04-24T10:32:31.838Z</time></trkpt><trkpt lat="40.5137199" lon="9.6307334"><ele>82.60000000000001</ele><time>2026-04-24T10:32:33.838Z</time></trkpt><trkpt lat="40.5138124" lon="9.630737"><ele>82.2</ele><time>2026-04-24T10:32:35.839Z</time></trkpt><trkpt lat="40.513905" lon="9.6307341"><ele>81.8</ele><time>2026-04-24T10:32:37.838Z</time></trkpt><trkpt lat="40.5139933" lon="9.6307549"><ele>81.4</ele><time>2026-04-24T10:32:39.838Z</time></trkpt><trkpt lat="40.5140839" lon="9.6307662"><ele>81.0</ele><time>2026-04-24T10:32:41.839Z</time></trkpt><trkpt lat="40.5141715" lon="9.6307717"><ele>81.0</ele><time>2026-04-24T10:32:43.837Z</time></trkpt><trkpt lat="40.5142581" lon="9.6307726"><ele>81.0</ele><time>2026-04-24T10:32:45.839Z</time></trkpt><trkpt lat="40.5143433" lon="9.630783"><ele>81.0</ele><time>2026-04-24T10:32:47.837Z</time></trkpt><trkpt lat="40.5144336" lon="9.6307918"><ele>81.0</ele><time>2026-04-24T10:32:49.839Z</time></trkpt><trkpt lat="40.5145215" lon="9.6307848"><ele>81.0</ele><time>2026-04-24T10:32:51.839Z</time></trkpt><trkpt lat="40.5146036" lon="9.6307875"><ele>81.0</ele><time>2026-04-24T10:32:53.838Z</time></trkpt><trkpt lat="40.5146829" lon="9.630794"><ele>81.16666666666667</ele><time>2026-04-24T10:32:55.837Z</time></trkpt><trkpt lat="40.514762" lon="9.6308025"><ele>81.33333333333333</ele><time>2026-04-24T10:32:57.838Z</time></trkpt><trkpt lat="40.5148393" lon="9.6308232"><ele>81.5</ele><time>2026-04-24T10:32:59.839Z</time></trkpt><trkpt lat="40.5149201" lon="9.6308408"><ele>81.66666666666666</ele><time>2026-04-24T10:33:01.839Z</time></trkpt><trkpt lat="40.5150025" lon="9.6308466"><ele>81.83333333333333</ele><time>2026-04-24T10:33:03.839Z</time></trkpt><trkpt lat="40.5150844" lon="9.6308624"><ele>82.0</ele><time>2026-04-24T10:33:05.839Z</time></trkpt><trkpt lat="40.5151657" lon="9.6308642"><ele>82.0</ele><time>2026-04-24T10:33:07.839Z</time></trkpt><trkpt lat="40.5152485" lon="9.630885"><ele>82.0</ele><time>2026-04-24T10:33:09.838Z</time></trkpt><trkpt lat="40.5153263" lon="9.6308967"><ele>82.0</ele><time>2026-04-24T10:33:11.838Z</time></trkpt><trkpt lat="40.5154024" lon="9.6309"><ele>82.0</ele><time>2026-04-24T10:33:13.838Z</time></trkpt><trkpt lat="40.5154723" lon="9.6309197"><ele>82.0</ele><time>2026-04-24T10:33:15.743Z</time></trkpt><trkpt lat="40.5155518" lon="9.6309183"><ele>82.0</ele><time>2026-04-24T10:33:17.839Z</time></trkpt><trkpt lat="40.5156285" lon="9.6309213"><ele>81.83333333333333</ele><time>2026-04-24T10:33:19.839Z</time></trkpt><trkpt lat="40.5157035" lon="9.6309323"><ele>81.66666666666666</ele><time>2026-04-24T10:33:21.839Z</time></trkpt><trkpt lat="40.5157803" lon="9.6309279"><ele>81.5</ele><time>2026-04-24T10:33:23.838Z</time></trkpt><trkpt lat="40.5158622" lon="9.6309216"><ele>81.33333333333333</ele><time>2026-04-24T10:33:25.839Z</time></trkpt><trkpt lat="40.515945" lon="9.6309219"><ele>81.16666666666667</ele><time>2026-04-24T10:33:27.839Z</time></trkpt><trkpt lat="40.5160244" lon="9.6309119"><ele>81.0</ele><time>2026-04-24T10:33:29.763Z</time></trkpt><trkpt lat="40.5161173" lon="9.6309021"><ele>81.0</ele><time>2026-04-24T10:33:31.839Z</time></trkpt><trkpt lat="40.5162082" lon="9.6308924"><ele>81.0</ele><time>2026-04-24T10:33:33.839Z</time></trkpt><trkpt lat="40.5162992" lon="9.6308808"><ele>81.0</ele><time>2026-04-24T10:33:35.838Z</time></trkpt><trkpt lat="40.516389" lon="9.6308695"><ele>81.0</ele><time>2026-04-24T10:33:37.838Z</time></trkpt><trkpt lat="40.5164784" lon="9.6308613"><ele>81.0</ele><time>2026-04-24T10:33:39.837Z</time></trkpt><trkpt lat="40.5165684" lon="9.6308499"><ele>80.39999999999999</ele><time>2026-04-24T10:33:41.839Z</time></trkpt><trkpt lat="40.516662" lon="9.6308358"><ele>79.8</ele><time>2026-04-24T10:33:43.838Z</time></trkpt><trkpt lat="40.5167578" lon="9.6308256"><ele>79.19999999999999</ele><time>2026-04-24T10:33:45.837Z</time></trkpt><trkpt lat="40.5168567" lon="9.6308171"><ele>78.6</ele><time>2026-04-24T10:33:47.839Z</time></trkpt><trkpt lat="40.5169575" lon="9.6307997"><ele>78.0</ele><time>2026-04-24T10:33:49.838Z</time></trkpt><trkpt lat="40.5170595" lon="9.6307886"><ele>77.6</ele><time>2026-04-24T10:33:51.838Z</time></trkpt><trkpt lat="40.517161" lon="9.6307819"><ele>77.19999999999999</ele><time>2026-04-24T10:33:53.837Z</time></trkpt><trkpt lat="40.5172645" lon="9.6307691"><ele>76.8</ele><time>2026-04-24T10:33:55.838Z</time></trkpt><trkpt lat="40.517367" lon="9.6307565"><ele>76.39999999999999</ele><time>2026-04-24T10:33:57.838Z</time></trkpt><trkpt lat="40.5174664" lon="9.6307353"><ele>76.0</ele><time>2026-04-24T10:33:59.838Z</time></trkpt><trkpt lat="40.5175602" lon="9.6307281"><ele>76.0</ele><time>2026-04-24T10:34:01.838Z</time></trkpt><trkpt lat="40.5176509" lon="9.6307154"><ele>76.0</ele><time>2026-04-24T10:34:03.838Z</time></trkpt><trkpt lat="40.517747" lon="9.6307002"><ele>76.0</ele><time>2026-04-24T10:34:05.838Z</time></trkpt><trkpt lat="40.5178383" lon="9.6306881"><ele>76.0</ele><time>2026-04-24T10:34:07.838Z</time></trkpt><trkpt lat="40.517933" lon="9.6306776"><ele>76.0</ele><time>2026-04-24T10:34:09.839Z</time></trkpt><trkpt lat="40.5180293" lon="9.6306679"><ele>75.6</ele><time>2026-04-24T10:34:11.838Z</time></trkpt><trkpt lat="40.5181265" lon="9.6306498"><ele>75.19999999999999</ele><time>2026-04-24T10:34:13.838Z</time></trkpt><trkpt lat="40.5182254" lon="9.6306352"><ele>74.80000000000001</ele><time>2026-04-24T10:34:15.837Z</time></trkpt><trkpt lat="40.5183318" lon="9.6306329"><ele>74.4</ele><time>2026-04-24T10:34:17.838Z</time></trkpt><trkpt lat="40.5184374" lon="9.6306191"><ele>74.0</ele><time>2026-04-24T10:34:19.838Z</time></trkpt><trkpt lat="40.5185481" lon="9.630611"><ele>74.0</ele><time>2026-04-24T10:34:21.837Z</time></trkpt><trkpt lat="40.5186552" lon="9.6305928"><ele>74.0</ele><time>2026-04-24T10:34:23.837Z</time></trkpt><trkpt lat="40.5187633" lon="9.6305824"><ele>74.0</ele><time>2026-04-24T10:34:25.838Z</time></trkpt><trkpt lat="40.518872" lon="9.6305665"><ele>74.0</ele><time>2026-04-24T10:34:27.837Z</time></trkpt><trkpt lat="40.518982" lon="9.6305515"><ele>74.0</ele><time>2026-04-24T10:34:29.838Z</time></trkpt><trkpt lat="40.5190863" lon="9.6305393"><ele>73.60000000000001</ele><time>2026-04-24T10:34:31.838Z</time></trkpt><trkpt lat="40.5191848" lon="9.630524"><ele>73.2</ele><time>2026-04-24T10:34:33.838Z</time></trkpt><trkpt lat="40.5192746" lon="9.6305217"><ele>72.80000000000001</ele><time>2026-04-24T10:34:35.838Z</time></trkpt><trkpt lat="40.5193619" lon="9.6305408"><ele>72.4</ele><time>2026-04-24T10:34:37.837Z</time></trkpt><trkpt lat="40.5194461" lon="9.6305767"><ele>72.0</ele><time>2026-04-24T10:34:39.838Z</time></trkpt><trkpt lat="40.5195278" lon="9.6306256"><ele>72.5</ele><time>2026-04-24T10:34:41.838Z</time></trkpt><trkpt lat="40.5196086" lon="9.6306696"><ele>73.0</ele><time>2026-04-24T10:34:43.838Z</time></trkpt><trkpt lat="40.5196882" lon="9.6307123"><ele>73.5</ele><time>2026-04-24T10:34:45.838Z</time></trkpt><trkpt lat="40.5197663" lon="9.630758"><ele>74.0</ele><time>2026-04-24T10:34:47.838Z</time></trkpt><trkpt lat="40.5198478" lon="9.6307985"><ele>74.5</ele><time>2026-04-24T10:34:49.837Z</time></trkpt><trkpt lat="40.5199282" lon="9.6308421"><ele>75.0</ele><time>2026-04-24T10:34:51.839Z</time></trkpt><trkpt lat="40.5200081" lon="9.6308824"><ele>75.0</ele><time>2026-04-24T10:34:53.838Z</time></trkpt><trkpt lat="40.5200858" lon="9.630932"><ele>75.0</ele><time>2026-04-24T10:34:55.838Z</time></trkpt><trkpt lat="40.520164" lon="9.6309718"><ele>75.0</ele><time>2026-04-24T10:34:57.839Z</time></trkpt><trkpt lat="40.5202441" lon="9.6310213"><ele>75.0</ele><time>2026-04-24T10:34:59.837Z</time></trkpt><trkpt lat="40.5203244" lon="9.6310711"><ele>75.0</ele><time>2026-04-24T10:35:01.838Z</time></trkpt><trkpt lat="40.5204139" lon="9.6311153"><ele>75.0</ele><time>2026-04-24T10:35:03.838Z</time></trkpt><trkpt lat="40.5204966" lon="9.6311658"><ele>74.33333333333333</ele><time>2026-04-24T10:35:05.838Z</time></trkpt><trkpt lat="40.5205744" lon="9.6312127"><ele>73.66666666666667</ele><time>2026-04-24T10:35:07.838Z</time></trkpt><trkpt lat="40.5206543" lon="9.6312581"><ele>73.0</ele><time>2026-04-24T10:35:09.838Z</time></trkpt><trkpt lat="40.5207323" lon="9.6313008"><ele>72.33333333333334</ele><time>2026-04-24T10:35:11.839Z</time></trkpt><trkpt lat="40.5208114" lon="9.6313526"><ele>71.66666666666667</ele><time>2026-04-24T10:35:13.837Z</time></trkpt><trkpt lat="40.5208881" lon="9.6314033"><ele>71.0</ele><time>2026-04-24T10:35:15.838Z</time></trkpt><trkpt lat="40.5209704" lon="9.6314411"><ele>71.0</ele><time>2026-04-24T10:35:17.839Z</time></trkpt><trkpt lat="40.5210484" lon="9.6314968"><ele>71.0</ele><time>2026-04-24T10:35:19.837Z</time></trkpt><trkpt lat="40.52113" lon="9.6315536"><ele>71.0</ele><time>2026-04-24T10:35:21.837Z</time></trkpt><trkpt lat="40.5212109" lon="9.6316106"><ele>71.0</ele><time>2026-04-24T10:35:23.837Z</time></trkpt><trkpt lat="40.5212907" lon="9.6316757"><ele>71.0</ele><time>2026-04-24T10:35:25.838Z</time></trkpt><trkpt lat="40.521369" lon="9.6317332"><ele>70.2</ele><time>2026-04-24T10:35:27.837Z</time></trkpt><trkpt lat="40.5214446" lon="9.6317914"><ele>69.39999999999999</ele><time>2026-04-24T10:35:29.837Z</time></trkpt><trkpt lat="40.521525" lon="9.631853"><ele>68.6</ele><time>2026-04-24T10:35:31.838Z</time></trkpt><trkpt lat="40.5216057" lon="9.6319239"><ele>67.8</ele><time>2026-04-24T10:35:33.839Z</time></trkpt><trkpt lat="40.5216843" lon="9.6319946"><ele>67.0</ele><time>2026-04-24T10:35:35.839Z</time></trkpt><trkpt lat="40.5217538" lon="9.6320626"><ele>67.0</ele><time>2026-04-24T10:35:37.837Z</time></trkpt><trkpt lat="40.5218241" lon="9.6321333"><ele>67.0</ele><time>2026-04-24T10:35:39.837Z</time></trkpt><trkpt lat="40.521899" lon="9.6322031"><ele>67.0</ele><time>2026-04-24T10:35:41.838Z</time></trkpt><trkpt lat="40.5219816" lon="9.6322675"><ele>67.0</ele><time>2026-04-24T10:35:43.838Z</time></trkpt><trkpt lat="40.5220534" lon="9.6323436"><ele>67.0</ele><time>2026-04-24T10:35:45.839Z</time></trkpt><trkpt lat="40.522121" lon="9.6324256"><ele>67.6</ele><time>2026-04-24T10:35:47.838Z</time></trkpt><trkpt lat="40.5221918" lon="9.6324998"><ele>68.2</ele><time>2026-04-24T10:35:49.839Z</time></trkpt><trkpt lat="40.5222644" lon="9.6325777"><ele>68.8</ele><time>2026-04-24T10:35:51.837Z</time></trkpt><trkpt lat="40.5223348" lon="9.6326566"><ele>69.4</ele><time>2026-04-24T10:35:53.837Z</time></trkpt><trkpt lat="40.5224085" lon="9.6327251"><ele>70.0</ele><time>2026-04-24T10:35:55.837Z</time></trkpt><trkpt lat="40.5224824" lon="9.6328"><ele>69.8</ele><time>2026-04-24T10:35:57.837Z</time></trkpt><trkpt lat="40.5225586" lon="9.632874"><ele>69.6</ele><time>2026-04-24T10:35:59.837Z</time></trkpt><trkpt lat="40.5226344" lon="9.6329523"><ele>69.4</ele><time>2026-04-24T10:36:01.837Z</time></trkpt><trkpt lat="40.5227109" lon="9.6330239"><ele>69.2</ele><time>2026-04-24T10:36:03.838Z</time></trkpt><trkpt lat="40.522788" lon="9.6330994"><ele>69.0</ele><time>2026-04-24T10:36:05.838Z</time></trkpt><trkpt lat="40.5228631" lon="9.6331785"><ele>69.2</ele><time>2026-04-24T10:36:07.837Z</time></trkpt><trkpt lat="40.5229401" lon="9.6332646"><ele>69.4</ele><time>2026-04-24T10:36:09.838Z</time></trkpt><trkpt lat="40.5230172" lon="9.6333513"><ele>69.6</ele><time>2026-04-24T10:36:11.838Z</time></trkpt><trkpt lat="40.5230928" lon="9.6334293"><ele>69.8</ele><time>2026-04-24T10:36:13.839Z</time></trkpt><trkpt lat="40.5231715" lon="9.6335033"><ele>70.0</ele><time>2026-04-24T10:36:15.837Z</time></trkpt><trkpt lat="40.5232447" lon="9.6335735"><ele>69.5</ele><time>2026-04-24T10:36:17.837Z</time></trkpt><trkpt lat="40.5233128" lon="9.63364"><ele>69.0</ele><time>2026-04-24T10:36:19.838Z</time></trkpt><trkpt lat="40.5233779" lon="9.6337027"><ele>68.5</ele><time>2026-04-24T10:36:21.837Z</time></trkpt><trkpt lat="40.5234377" lon="9.6337699"><ele>68.0</ele><time>2026-04-24T10:36:23.838Z</time></trkpt><trkpt lat="40.523505" lon="9.6338339"><ele>67.5</ele><time>2026-04-24T10:36:25.838Z</time></trkpt><trkpt lat="40.5235771" lon="9.6339022"><ele>67.0</ele><time>2026-04-24T10:36:27.838Z</time></trkpt><trkpt lat="40.5236477" lon="9.6339723"><ele>67.0</ele><time>2026-04-24T10:36:29.837Z</time></trkpt><trkpt lat="40.5237174" lon="9.6340479"><ele>67.0</ele><time>2026-04-24T10:36:31.837Z</time></trkpt><trkpt lat="40.523794" lon="9.6341192"><ele>67.0</ele><time>2026-04-24T10:36:33.837Z</time></trkpt><trkpt lat="40.5238684" lon="9.6341923"><ele>67.0</ele><time>2026-04-24T10:36:35.839Z</time></trkpt><trkpt lat="40.5239377" lon="9.6342668"><ele>67.0</ele><time>2026-04-24T10:36:37.837Z</time></trkpt><trkpt lat="40.5240086" lon="9.6343396"><ele>66.8</ele><time>2026-04-24T10:36:39.837Z</time></trkpt><trkpt lat="40.5240783" lon="9.6344096"><ele>66.6</ele><time>2026-04-24T10:36:41.837Z</time></trkpt><trkpt lat="40.5241479" lon="9.6344784"><ele>66.39999999999999</ele><time>2026-04-24T10:36:43.837Z</time></trkpt><trkpt lat="40.5242215" lon="9.6345497"><ele>66.2</ele><time>2026-04-24T10:36:45.838Z</time></trkpt><trkpt lat="40.5243006" lon="9.6346208"><ele>66.0</ele><time>2026-04-24T10:36:47.838Z</time></trkpt><trkpt lat="40.5243733" lon="9.6346922"><ele>66.0</ele><time>2026-04-24T10:36:49.839Z</time></trkpt><trkpt lat="40.5244451" lon="9.6347588"><ele>66.0</ele><time>2026-04-24T10:36:51.837Z</time></trkpt><trkpt lat="40.5245147" lon="9.6348312"><ele>66.0</ele><time>2026-04-24T10:36:53.838Z</time></trkpt><trkpt lat="40.5245862" lon="9.6349094"><ele>66.0</ele><time>2026-04-24T10:36:55.837Z</time></trkpt><trkpt lat="40.524658" lon="9.6349838"><ele>66.0</ele><time>2026-04-24T10:36:57.838Z</time></trkpt><trkpt lat="40.5247324" lon="9.6350551"><ele>66.0</ele><time>2026-04-24T10:36:59.839Z</time></trkpt><trkpt lat="40.5248087" lon="9.6351246"><ele>66.0</ele><time>2026-04-24T10:37:01.838Z</time></trkpt><trkpt lat="40.5248816" lon="9.6351938"><ele>66.0</ele><time>2026-04-24T10:37:03.837Z</time></trkpt><trkpt lat="40.524955" lon="9.6352629"><ele>66.0</ele><time>2026-04-24T10:37:05.837Z</time></trkpt><trkpt lat="40.5250275" lon="9.6353353"><ele>66.0</ele><time>2026-04-24T10:37:07.838Z</time></trkpt><trkpt lat="40.5251055" lon="9.6353982"><ele>66.0</ele><time>2026-04-24T10:37:09.837Z</time></trkpt><trkpt lat="40.5251775" lon="9.6354723"><ele>66.0</ele><time>2026-04-24T10:37:11.838Z</time></trkpt><trkpt lat="40.5252471" lon="9.6355508"><ele>66.0</ele><time>2026-04-24T10:37:13.837Z</time></trkpt><trkpt lat="40.5253204" lon="9.6356184"><ele>66.0</ele><time>2026-04-24T10:37:15.838Z</time></trkpt><trkpt lat="40.5253857" lon="9.6356943"><ele>66.0</ele><time>2026-04-24T10:37:17.838Z</time></trkpt><trkpt lat="40.5254541" lon="9.6357676"><ele>66.0</ele><time>2026-04-24T10:37:19.838Z</time></trkpt><trkpt lat="40.5255286" lon="9.6358345"><ele>65.8</ele><time>2026-04-24T10:37:21.839Z</time></trkpt><trkpt lat="40.5256036" lon="9.6359058"><ele>65.6</ele><time>2026-04-24T10:37:23.837Z</time></trkpt><trkpt lat="40.5256767" lon="9.6359848"><ele>65.4</ele><time>2026-04-24T10:37:25.837Z</time></trkpt><trkpt lat="40.5257541" lon="9.6360579"><ele>65.2</ele><time>2026-04-24T10:37:27.838Z</time></trkpt><trkpt lat="40.5258288" lon="9.6361304"><ele>65.0</ele><time>2026-04-24T10:37:29.838Z</time></trkpt><trkpt lat="40.525904" lon="9.6362087"><ele>65.0</ele><time>2026-04-24T10:37:31.838Z</time></trkpt><trkpt lat="40.5259702" lon="9.636286"><ele>65.0</ele><time>2026-04-24T10:37:33.837Z</time></trkpt><trkpt lat="40.5260479" lon="9.6363591"><ele>65.0</ele><time>2026-04-24T10:37:35.838Z</time></trkpt><trkpt lat="40.5261265" lon="9.6364321"><ele>65.0</ele><time>2026-04-24T10:37:37.839Z</time></trkpt><trkpt lat="40.5261984" lon="9.6365107"><ele>65.0</ele><time>2026-04-24T10:37:39.838Z</time></trkpt><trkpt lat="40.5262697" lon="9.6365824"><ele>64.2</ele><time>2026-04-24T10:37:41.837Z</time></trkpt><trkpt lat="40.5263422" lon="9.6366571"><ele>63.4</ele><time>2026-04-24T10:37:43.838Z</time></trkpt><trkpt lat="40.5264174" lon="9.6367231"><ele>62.599999999999994</ele><time>2026-04-24T10:37:45.838Z</time></trkpt><trkpt lat="40.5264854" lon="9.6368001"><ele>61.8</ele><time>2026-04-24T10:37:47.837Z</time></trkpt><trkpt lat="40.5265541" lon="9.6368723"><ele>61.0</ele><time>2026-04-24T10:37:49.837Z</time></trkpt><trkpt lat="40.526626" lon="9.6369461"><ele>61.0</ele><time>2026-04-24T10:37:51.838Z</time></trkpt><trkpt lat="40.5266945" lon="9.6370196"><ele>60.99999999999999</ele><time>2026-04-24T10:37:53.837Z</time></trkpt><trkpt lat="40.5267689" lon="9.6370923"><ele>60.99999999999999</ele><time>2026-04-24T10:37:55.837Z</time></trkpt><trkpt lat="40.5268431" lon="9.63716"><ele>61.0</ele><time>2026-04-24T10:37:57.837Z</time></trkpt><trkpt lat="40.5269101" lon="9.6372288"><ele>61.0</ele><time>2026-04-24T10:37:59.837Z</time></trkpt><trkpt lat="40.5269882" lon="9.6372966"><ele>61.0</ele><time>2026-04-24T10:38:01.837Z</time></trkpt><trkpt lat="40.5270595" lon="9.6373754"><ele>60.99999999999999</ele><time>2026-04-24T10:38:03.838Z</time></trkpt><trkpt lat="40.5271292" lon="9.6374477"><ele>60.99999999999999</ele><time>2026-04-24T10:38:05.838Z</time></trkpt><trkpt lat="40.5272031" lon="9.6375196"><ele>61.0</ele><time>2026-04-24T10:38:07.837Z</time></trkpt><trkpt lat="40.5272782" lon="9.637593"><ele>61.0</ele><time>2026-04-24T10:38:09.837Z</time></trkpt><trkpt lat="40.5273539" lon="9.6376636"><ele>60.599999999999994</ele><time>2026-04-24T10:38:11.837Z</time></trkpt><trkpt lat="40.5274268" lon="9.6377378"><ele>60.199999999999996</ele><time>2026-04-24T10:38:13.837Z</time></trkpt><trkpt lat="40.5274996" lon="9.6378117"><ele>59.800000000000004</ele><time>2026-04-24T10:38:15.838Z</time></trkpt><trkpt lat="40.5275756" lon="9.6378796"><ele>59.400000000000006</ele><time>2026-04-24T10:38:17.838Z</time></trkpt><trkpt lat="40.5276494" lon="9.6379599"><ele>59.0</ele><time>2026-04-24T10:38:19.837Z</time></trkpt><trkpt lat="40.5277187" lon="9.638033"><ele>59.00000000000001</ele><time>2026-04-24T10:38:21.837Z</time></trkpt><trkpt lat="40.5277916" lon="9.6381013"><ele>59.0</ele><time>2026-04-24T10:38:23.838Z</time></trkpt><trkpt lat="40.5278612" lon="9.6381745"><ele>59.0</ele><time>2026-04-24T10:38:25.838Z</time></trkpt><trkpt lat="40.5279344" lon="9.6382438"><ele>59.0</ele><time>2026-04-24T10:38:27.837Z</time></trkpt><trkpt lat="40.5280073" lon="9.6383129"><ele>59.00000000000001</ele><time>2026-04-24T10:38:29.837Z</time></trkpt><trkpt lat="40.5280729" lon="9.6383883"><ele>59.0</ele><time>2026-04-24T10:38:31.838Z</time></trkpt><trkpt lat="40.5281407" lon="9.6384636"><ele>58.833333333333336</ele><time>2026-04-24T10:38:33.838Z</time></trkpt><trkpt lat="40.5282118" lon="9.6385321"><ele>58.66666666666667</ele><time>2026-04-24T10:38:35.838Z</time></trkpt><trkpt lat="40.528283" lon="9.6385949"><ele>58.5</ele><time>2026-04-24T10:38:37.838Z</time></trkpt><trkpt lat="40.5283517" lon="9.6386695"><ele>58.33333333333333</ele><time>2026-04-24T10:38:39.838Z</time></trkpt><trkpt lat="40.5284195" lon="9.6387374"><ele>58.166666666666664</ele><time>2026-04-24T10:38:41.838Z</time></trkpt><trkpt lat="40.5284909" lon="9.6388087"><ele>58.0</ele><time>2026-04-24T10:38:43.837Z</time></trkpt><trkpt lat="40.5285605" lon="9.6388796"><ele>58.0</ele><time>2026-04-24T10:38:45.837Z</time></trkpt><trkpt lat="40.5286321" lon="9.6389496"><ele>58.0</ele><time>2026-04-24T10:38:47.838Z</time></trkpt><trkpt lat="40.5287056" lon="9.6390197"><ele>58.0</ele><time>2026-04-24T10:38:49.837Z</time></trkpt><trkpt lat="40.5287774" lon="9.6390916"><ele>58.0</ele><time>2026-04-24T10:38:51.837Z</time></trkpt><trkpt lat="40.528851" lon="9.6391697"><ele>58.0</ele><time>2026-04-24T10:38:53.838Z</time></trkpt><trkpt lat="40.5289271" lon="9.6392426"><ele>58.0</ele><time>2026-04-24T10:38:55.838Z</time></trkpt><trkpt lat="40.5290038" lon="9.6393187"><ele>58.0</ele><time>2026-04-24T10:38:57.837Z</time></trkpt><trkpt lat="40.5290829" lon="9.6394071"><ele>58.0</ele><time>2026-04-24T10:38:59.837Z</time></trkpt><trkpt lat="40.5291545" lon="9.6395017"><ele>58.0</ele><time>2026-04-24T10:39:01.837Z</time></trkpt><trkpt lat="40.5292293" lon="9.6396006"><ele>58.0</ele><time>2026-04-24T10:39:03.837Z</time></trkpt><trkpt lat="40.5292922" lon="9.6397021"><ele>57.4</ele><time>2026-04-24T10:39:05.837Z</time></trkpt><trkpt lat="40.5293494" lon="9.6398059"><ele>56.8</ele><time>2026-04-24T10:39:07.838Z</time></trkpt><trkpt lat="40.5294072" lon="9.6399081"><ele>56.2</ele><time>2026-04-24T10:39:09.837Z</time></trkpt><trkpt lat="40.5294659" lon="9.640009"><ele>55.6</ele><time>2026-04-24T10:39:11.837Z</time></trkpt><trkpt lat="40.5295176" lon="9.6401123"><ele>55.0</ele><time>2026-04-24T10:39:13.837Z</time></trkpt><trkpt lat="40.5295685" lon="9.6402127"><ele>56.6</ele><time>2026-04-24T10:39:15.838Z</time></trkpt><trkpt lat="40.529629" lon="9.6403094"><ele>58.2</ele><time>2026-04-24T10:39:17.837Z</time></trkpt><trkpt lat="40.5296794" lon="9.6404122"><ele>59.8</ele><time>2026-04-24T10:39:19.838Z</time></trkpt><trkpt lat="40.5297394" lon="9.6405096"><ele>61.4</ele><time>2026-04-24T10:39:21.837Z</time></trkpt><trkpt lat="40.5297939" lon="9.6406059"><ele>63.0</ele><time>2026-04-24T10:39:23.837Z</time></trkpt><trkpt lat="40.5298461" lon="9.6407018"><ele>63.0</ele><time>2026-04-24T10:39:25.837Z</time></trkpt><trkpt lat="40.5299002" lon="9.6407964"><ele>63.0</ele><time>2026-04-24T10:39:27.838Z</time></trkpt><trkpt lat="40.5299555" lon="9.6408826"><ele>63.0</ele><time>2026-04-24T10:39:29.837Z</time></trkpt><trkpt lat="40.5300002" lon="9.6409762"><ele>63.0</ele><time>2026-04-24T10:39:31.838Z</time></trkpt><trkpt lat="40.5300491" lon="9.6410656"><ele>63.0</ele><time>2026-04-24T10:39:33.838Z</time></trkpt><trkpt lat="40.5301102" lon="9.6411561"><ele>63.0</ele><time>2026-04-24T10:39:35.836Z</time></trkpt><trkpt lat="40.5301656" lon="9.6412677"><ele>63.2</ele><time>2026-04-24T10:39:37.838Z</time></trkpt><trkpt lat="40.5302265" lon="9.6413735"><ele>63.4</ele><time>2026-04-24T10:39:39.837Z</time></trkpt><trkpt lat="40.5302873" lon="9.6414806"><ele>63.60000000000001</ele><time>2026-04-24T10:39:41.838Z</time></trkpt><trkpt lat="40.5303498" lon="9.6415866"><ele>63.800000000000004</ele><time>2026-04-24T10:39:43.838Z</time></trkpt><trkpt lat="40.5304074" lon="9.6416998"><ele>64.0</ele><time>2026-04-24T10:39:45.837Z</time></trkpt><trkpt lat="40.5304669" lon="9.6418019"><ele>64.0</ele><time>2026-04-24T10:39:47.837Z</time></trkpt><trkpt lat="40.5305305" lon="9.6419071"><ele>64.0</ele><time>2026-04-24T10:39:49.837Z</time></trkpt><trkpt lat="40.5305965" lon="9.6420222"><ele>64.0</ele><time>2026-04-24T10:39:51.837Z</time></trkpt><trkpt lat="40.5306603" lon="9.6421315"><ele>64.0</ele><time>2026-04-24T10:39:53.838Z</time></trkpt><trkpt lat="40.5307294" lon="9.6422512"><ele>64.0</ele><time>2026-04-24T10:39:55.837Z</time></trkpt><trkpt lat="40.530799" lon="9.6423637"><ele>63.6</ele><time>2026-04-24T10:39:57.837Z</time></trkpt><trkpt lat="40.5308553" lon="9.6424785"><ele>63.2</ele><time>2026-04-24T10:39:59.837Z</time></trkpt><trkpt lat="40.5309202" lon="9.6425879"><ele>62.800000000000004</ele><time>2026-04-24T10:40:01.838Z</time></trkpt><trkpt lat="40.5309814" lon="9.6426999"><ele>62.400000000000006</ele><time>2026-04-24T10:40:03.837Z</time></trkpt><trkpt lat="40.5310474" lon="9.6428076"><ele>62.0</ele><time>2026-04-24T10:40:05.837Z</time></trkpt><trkpt lat="40.5311168" lon="9.6429147"><ele>62.0</ele><time>2026-04-24T10:40:07.837Z</time></trkpt><trkpt lat="40.5311848" lon="9.6430264"><ele>62.0</ele><time>2026-04-24T10:40:09.837Z</time></trkpt><trkpt lat="40.5312469" lon="9.6431419"><ele>62.0</ele><time>2026-04-24T10:40:11.837Z</time></trkpt><trkpt lat="40.5313074" lon="9.6432625"><ele>62.0</ele><time>2026-04-24T10:40:13.837Z</time></trkpt><trkpt lat="40.5313675" lon="9.6433663"><ele>62.0</ele><time>2026-04-24T10:40:15.838Z</time></trkpt><trkpt lat="40.5314292" lon="9.6434623"><ele>62.00000000000001</ele><time>2026-04-24T10:40:17.837Z</time></trkpt><trkpt lat="40.5314791" lon="9.6435645"><ele>62.0</ele><time>2026-04-24T10:40:19.838Z</time></trkpt><trkpt lat="40.5315293" lon="9.6436516"><ele>62.0</ele><time>2026-04-24T10:40:21.838Z</time></trkpt><trkpt lat="40.531581" lon="9.643738"><ele>62.0</ele><time>2026-04-24T10:40:23.837Z</time></trkpt><trkpt lat="40.53163" lon="9.643822"><ele>62.00000000000001</ele><time>2026-04-24T10:40:25.837Z</time></trkpt><trkpt lat="40.5316829" lon="9.6439049"><ele>62.0</ele><time>2026-04-24T10:40:27.837Z</time></trkpt><trkpt lat="40.5317346" lon="9.6439999"><ele>61.25</ele><time>2026-04-24T10:40:29.837Z</time></trkpt><trkpt lat="40.5317953" lon="9.644114"><ele>60.5</ele><time>2026-04-24T10:40:31.837Z</time></trkpt><trkpt lat="40.5318607" lon="9.644228"><ele>59.75</ele><time>2026-04-24T10:40:33.838Z</time></trkpt><trkpt lat="40.5319337" lon="9.6443539"><ele>59.0</ele><time>2026-04-24T10:40:35.837Z</time></trkpt><trkpt lat="40.5320018" lon="9.6444822"><ele>59.25</ele><time>2026-04-24T10:40:37.837Z</time></trkpt><trkpt lat="40.5320737" lon="9.6446104"><ele>59.5</ele><time>2026-04-24T10:40:39.838Z</time></trkpt><trkpt lat="40.5321541" lon="9.6447314"><ele>59.75</ele><time>2026-04-24T10:40:41.838Z</time></trkpt><trkpt lat="40.5322304" lon="9.6448576"><ele>60.0</ele><time>2026-04-24T10:40:43.837Z</time></trkpt><trkpt lat="40.5322932" lon="9.6449799"><ele>60.0</ele><time>2026-04-24T10:40:45.837Z</time></trkpt><trkpt lat="40.5323633" lon="9.6451046"><ele>60.0</ele><time>2026-04-24T10:40:47.837Z</time></trkpt><trkpt lat="40.5324276" lon="9.6452235"><ele>60.0</ele><time>2026-04-24T10:40:49.837Z</time></trkpt><trkpt lat="40.5324961" lon="9.6453357"><ele>60.0</ele><time>2026-04-24T10:40:51.837Z</time></trkpt><trkpt lat="40.5325616" lon="9.6454499"><ele>60.0</ele><time>2026-04-24T10:40:53.837Z</time></trkpt><trkpt lat="40.5326228" lon="9.6455677"><ele>60.4</ele><time>2026-04-24T10:40:55.837Z</time></trkpt><trkpt lat="40.5326842" lon="9.6456821"><ele>60.8</ele><time>2026-04-24T10:40:57.837Z</time></trkpt><trkpt lat="40.5327516" lon="9.6457971"><ele>61.2</ele><time>2026-04-24T10:40:59.837Z</time></trkpt><trkpt lat="40.5328205" lon="9.6459098"><ele>61.6</ele><time>2026-04-24T10:41:01.838Z</time></trkpt><trkpt lat="40.5328879" lon="9.6460247"><ele>62.0</ele><time>2026-04-24T10:41:03.837Z</time></trkpt><trkpt lat="40.5329548" lon="9.6461417"><ele>62.0</ele><time>2026-04-24T10:41:05.837Z</time></trkpt><trkpt lat="40.5330171" lon="9.6462547"><ele>62.0</ele><time>2026-04-24T10:41:07.836Z</time></trkpt><trkpt lat="40.5330797" lon="9.6463694"><ele>62.0</ele><time>2026-04-24T10:41:09.838Z</time></trkpt><trkpt lat="40.5331441" lon="9.6464876"><ele>62.0</ele><time>2026-04-24T10:41:11.838Z</time></trkpt><trkpt lat="40.5332109" lon="9.6465992"><ele>62.0</ele><time>2026-04-24T10:41:13.837Z</time></trkpt><trkpt lat="40.5332769" lon="9.6467136"><ele>62.0</ele><time>2026-04-24T10:41:15.838Z</time></trkpt><trkpt lat="40.5333407" lon="9.6468258"><ele>62.0</ele><time>2026-04-24T10:41:17.838Z</time></trkpt><trkpt lat="40.5334052" lon="9.6469417"><ele>62.0</ele><time>2026-04-24T10:41:19.837Z</time></trkpt><trkpt lat="40.5334641" lon="9.6470531"><ele>62.0</ele><time>2026-04-24T10:41:21.837Z</time></trkpt><trkpt lat="40.5335253" lon="9.6471593"><ele>62.0</ele><time>2026-04-24T10:41:23.838Z</time></trkpt><trkpt lat="40.533586" lon="9.6472712"><ele>62.6</ele><time>2026-04-24T10:41:25.837Z</time></trkpt><trkpt lat="40.5336518" lon="9.6473775"><ele>63.2</ele><time>2026-04-24T10:41:27.838Z</time></trkpt><trkpt lat="40.5337107" lon="9.6474883"><ele>63.8</ele><time>2026-04-24T10:41:29.837Z</time></trkpt><trkpt lat="40.5337765" lon="9.6475993"><ele>64.4</ele><time>2026-04-24T10:41:31.837Z</time></trkpt><trkpt lat="40.533846" lon="9.6476985"><ele>65.0</ele><time>2026-04-24T10:41:33.837Z</time></trkpt><trkpt lat="40.5339059" lon="9.6478117"><ele>63.8</ele><time>2026-04-24T10:41:35.837Z</time></trkpt><trkpt lat="40.5339638" lon="9.6479245"><ele>62.6</ele><time>2026-04-24T10:41:37.837Z</time></trkpt><trkpt lat="40.5340295" lon="9.6480358"><ele>61.400000000000006</ele><time>2026-04-24T10:41:39.838Z</time></trkpt><trkpt lat="40.5340965" lon="9.6481434"><ele>60.2</ele><time>2026-04-24T10:41:41.838Z</time></trkpt><trkpt lat="40.5341564" lon="9.648258"><ele>59.0</ele><time>2026-04-24T10:41:43.838Z</time></trkpt><trkpt lat="40.5342194" lon="9.6483664"><ele>59.0</ele><time>2026-04-24T10:41:45.837Z</time></trkpt><trkpt lat="40.5342749" lon="9.6484784"><ele>59.00000000000001</ele><time>2026-04-24T10:41:47.837Z</time></trkpt><trkpt lat="40.5343352" lon="9.6485864"><ele>59.00000000000001</ele><time>2026-04-24T10:41:49.838Z</time></trkpt><trkpt lat="40.5343996" lon="9.6486951"><ele>59.0</ele><time>2026-04-24T10:41:51.837Z</time></trkpt><trkpt lat="40.5344621" lon="9.6488062"><ele>59.0</ele><time>2026-04-24T10:41:53.838Z</time></trkpt><trkpt lat="40.534526" lon="9.6489134"><ele>59.2</ele><time>2026-04-24T10:41:55.837Z</time></trkpt><trkpt lat="40.5345906" lon="9.6490234"><ele>59.400000000000006</ele><time>2026-04-24T10:41:57.838Z</time></trkpt><trkpt lat="40.5346466" lon="9.6491382"><ele>59.6</ele><time>2026-04-24T10:41:59.838Z</time></trkpt><trkpt lat="40.5347101" lon="9.6492477"><ele>59.8</ele><time>2026-04-24T10:42:01.837Z</time></trkpt><trkpt lat="40.5347744" lon="9.6493574"><ele>60.0</ele><time>2026-04-24T10:42:03.837Z</time></trkpt><trkpt lat="40.5348346" lon="9.6494698"><ele>60.0</ele><time>2026-04-24T10:42:05.837Z</time></trkpt><trkpt lat="40.5348969" lon="9.6495778"><ele>60.0</ele><time>2026-04-24T10:42:07.838Z</time></trkpt><trkpt lat="40.5349588" lon="9.6496823"><ele>60.0</ele><time>2026-04-24T10:42:09.838Z</time></trkpt><trkpt lat="40.5350224" lon="9.649794"><ele>60.0</ele><time>2026-04-24T10:42:11.837Z</time></trkpt><trkpt lat="40.5350839" lon="9.6499126"><ele>60.0</ele><time>2026-04-24T10:42:13.837Z</time></trkpt><trkpt lat="40.5351515" lon="9.6500275"><ele>60.0</ele><time>2026-04-24T10:42:15.837Z</time></trkpt><trkpt lat="40.5352176" lon="9.6501371"><ele>60.0</ele><time>2026-04-24T10:42:17.838Z</time></trkpt><trkpt lat="40.5352805" lon="9.6502451"><ele>60.0</ele><time>2026-04-24T10:42:19.837Z</time></trkpt><trkpt lat="40.5353447" lon="9.6503513"><ele>60.0</ele><time>2026-04-24T10:42:21.836Z</time></trkpt><trkpt lat="40.5354059" lon="9.6504576"><ele>60.0</ele><time>2026-04-24T10:42:23.838Z</time></trkpt><trkpt lat="40.5354679" lon="9.6505654"><ele>60.6</ele><time>2026-04-24T10:42:25.837Z</time></trkpt><trkpt lat="40.5355274" lon="9.6506758"><ele>61.2</ele><time>2026-04-24T10:42:27.838Z</time></trkpt><trkpt lat="40.5355957" lon="9.6507778"><ele>61.8</ele><time>2026-04-24T10:42:29.838Z</time></trkpt><trkpt lat="40.5356545" lon="9.6508864"><ele>62.4</ele><time>2026-04-24T10:42:31.837Z</time></trkpt><trkpt lat="40.5357116" lon="9.6509944"><ele>63.0</ele><time>2026-04-24T10:42:33.836Z</time></trkpt><trkpt lat="40.5357644" lon="9.6511012"><ele>61.4</ele><time>2026-04-24T10:42:35.836Z</time></trkpt><trkpt lat="40.5358432" lon="9.6512259"><ele>59.8</ele><time>2026-04-24T10:44:02.837Z</time></trkpt><trkpt lat="40.5358985" lon="9.6513275"><ele>58.2</ele><time>2026-04-24T10:44:05.837Z</time></trkpt><trkpt lat="40.5359368" lon="9.6514141"><ele>56.6</ele><time>2026-04-24T10:44:07.837Z</time></trkpt><trkpt lat="40.5359909" lon="9.6514941"><ele>55.0</ele><time>2026-04-24T10:44:09.837Z</time></trkpt><trkpt lat="40.5360412" lon="9.6515858"><ele>55.0</ele><time>2026-04-24T10:44:11.837Z</time></trkpt><trkpt lat="40.5360919" lon="9.6516878"><ele>55.0</ele><time>2026-04-24T10:44:13.836Z</time></trkpt><trkpt lat="40.5361472" lon="9.6517857"><ele>55.0</ele><time>2026-04-24T10:44:15.838Z</time></trkpt><trkpt lat="40.5362055" lon="9.6518813"><ele>55.0</ele><time>2026-04-24T10:44:17.837Z</time></trkpt><trkpt lat="40.5362678" lon="9.6519667"><ele>55.0</ele><time>2026-04-24T10:44:19.837Z</time></trkpt><trkpt lat="40.5363193" lon="9.6520618"><ele>55.8</ele><time>2026-04-24T10:44:21.837Z</time></trkpt><trkpt lat="40.5363675" lon="9.652162"><ele>56.6</ele><time>2026-04-24T10:44:23.838Z</time></trkpt><trkpt lat="40.536421" lon="9.6522603"><ele>57.400000000000006</ele><time>2026-04-24T10:44:25.838Z</time></trkpt><trkpt lat="40.5364805" lon="9.6523565"><ele>58.2</ele><time>2026-04-24T10:44:27.836Z</time></trkpt><trkpt lat="40.5365391" lon="9.6524551"><ele>59.0</ele><time>2026-04-24T10:44:29.837Z</time></trkpt><trkpt lat="40.5365909" lon="9.6525595"><ele>59.0</ele><time>2026-04-24T10:44:31.837Z</time></trkpt><trkpt lat="40.5366446" lon="9.6526563"><ele>59.0</ele><time>2026-04-24T10:44:33.838Z</time></trkpt><trkpt lat="40.5366829" lon="9.6527305"><ele>59.0</ele><time>2026-04-24T10:44:35.837Z</time></trkpt><trkpt lat="40.5367275" lon="9.6527904"><ele>59.0</ele><time>2026-04-24T10:45:20.837Z</time></trkpt><trkpt lat="40.5367663" lon="9.6528624"><ele>59.0</ele><time>2026-04-24T10:45:22.837Z</time></trkpt><trkpt lat="40.5368104" lon="9.6529393"><ele>59.0</ele><time>2026-04-24T10:45:24.836Z</time></trkpt><trkpt lat="40.5368573" lon="9.6530276"><ele>59.0</ele><time>2026-04-24T10:45:26.837Z</time></trkpt><trkpt lat="40.5369109" lon="9.6531175"><ele>58.6</ele><time>2026-04-24T10:45:28.838Z</time></trkpt><trkpt lat="40.5369634" lon="9.653211"><ele>58.2</ele><time>2026-04-24T10:45:30.837Z</time></trkpt><trkpt lat="40.5370175" lon="9.6533013"><ele>57.800000000000004</ele><time>2026-04-24T10:45:32.837Z</time></trkpt><trkpt lat="40.5370717" lon="9.6534205"><ele>57.400000000000006</ele><time>2026-04-24T10:45:35.836Z</time></trkpt><trkpt lat="40.5371396" lon="9.6535211"><ele>57.0</ele><time>2026-04-24T10:45:37.836Z</time></trkpt><trkpt lat="40.5371987" lon="9.6536305"><ele>57.0</ele><time>2026-04-24T10:45:39.837Z</time></trkpt><trkpt lat="40.5372549" lon="9.6537313"><ele>57.0</ele><time>2026-04-24T10:45:41.837Z</time></trkpt><trkpt lat="40.5373085" lon="9.6538286"><ele>57.0</ele><time>2026-04-24T10:45:43.837Z</time></trkpt><trkpt lat="40.537366" lon="9.6539292"><ele>57.0</ele><time>2026-04-24T10:45:45.837Z</time></trkpt><trkpt lat="40.5374232" lon="9.6540337"><ele>57.0</ele><time>2026-04-24T10:45:47.838Z</time></trkpt><trkpt lat="40.5374795" lon="9.6541369"><ele>57.0</ele><time>2026-04-24T10:45:49.837Z</time></trkpt><trkpt lat="40.5375393" lon="9.6542375"><ele>57.0</ele><time>2026-04-24T10:45:51.836Z</time></trkpt><trkpt lat="40.5375967" lon="9.6543427"><ele>57.0</ele><time>2026-04-24T10:45:53.838Z</time></trkpt><trkpt lat="40.5376556" lon="9.6544475"><ele>57.0</ele><time>2026-04-24T10:45:55.837Z</time></trkpt><trkpt lat="40.537715" lon="9.6545517"><ele>57.0</ele><time>2026-04-24T10:45:57.836Z</time></trkpt><trkpt lat="40.5377768" lon="9.6546503"><ele>57.400000000000006</ele><time>2026-04-24T10:45:59.837Z</time></trkpt><trkpt lat="40.5378391" lon="9.6547469"><ele>57.800000000000004</ele><time>2026-04-24T10:46:01.837Z</time></trkpt><trkpt lat="40.5378898" lon="9.6548515"><ele>58.2</ele><time>2026-04-24T10:46:03.836Z</time></trkpt><trkpt lat="40.5379491" lon="9.6549528"><ele>58.6</ele><time>2026-04-24T10:46:05.837Z</time></trkpt><trkpt lat="40.5380027" lon="9.6550548"><ele>59.0</ele><time>2026-04-24T10:46:07.836Z</time></trkpt><trkpt lat="40.5380579" lon="9.655156"><ele>59.0</ele><time>2026-04-24T10:46:09.836Z</time></trkpt><trkpt lat="40.5381178" lon="9.6552617"><ele>59.00000000000001</ele><time>2026-04-24T10:46:11.837Z</time></trkpt><trkpt lat="40.5381776" lon="9.655368"><ele>59.00000000000001</ele><time>2026-04-24T10:46:13.836Z</time></trkpt><trkpt lat="40.5382363" lon="9.6554798"><ele>59.0</ele><time>2026-04-24T10:46:15.836Z</time></trkpt><trkpt lat="40.5383015" lon="9.6555924"><ele>59.0</ele><time>2026-04-24T10:46:17.838Z</time></trkpt><trkpt lat="40.5383689" lon="9.6557061"><ele>58.6</ele><time>2026-04-24T10:46:19.837Z</time></trkpt><trkpt lat="40.5384359" lon="9.6558142"><ele>58.2</ele><time>2026-04-24T10:46:21.837Z</time></trkpt><trkpt lat="40.5384985" lon="9.6559354"><ele>57.800000000000004</ele><time>2026-04-24T10:46:23.836Z</time></trkpt><trkpt lat="40.5385675" lon="9.6560577"><ele>57.400000000000006</ele><time>2026-04-24T10:46:25.836Z</time></trkpt><trkpt lat="40.5386405" lon="9.6561749"><ele>57.0</ele><time>2026-04-24T10:46:27.838Z</time></trkpt><trkpt lat="40.5387132" lon="9.6562934"><ele>57.2</ele><time>2026-04-24T10:46:29.837Z</time></trkpt><trkpt lat="40.5387836" lon="9.6564101"><ele>57.400000000000006</ele><time>2026-04-24T10:46:31.837Z</time></trkpt><trkpt lat="40.5388498" lon="9.6565287"><ele>57.599999999999994</ele><time>2026-04-24T10:46:33.837Z</time></trkpt><trkpt lat="40.5389166" lon="9.6566421"><ele>57.8</ele><time>2026-04-24T10:46:35.837Z</time></trkpt><trkpt lat="40.5389761" lon="9.6567689"><ele>58.0</ele><time>2026-04-24T10:46:37.838Z</time></trkpt><trkpt lat="40.5390433" lon="9.6568897"><ele>57.4</ele><time>2026-04-24T10:46:39.837Z</time></trkpt><trkpt lat="40.5391119" lon="9.6570093"><ele>56.8</ele><time>2026-04-24T10:46:41.836Z</time></trkpt><trkpt lat="40.5391801" lon="9.6571208"><ele>56.2</ele><time>2026-04-24T10:46:43.836Z</time></trkpt><trkpt lat="40.5392465" lon="9.6572351"><ele>55.6</ele><time>2026-04-24T10:46:45.838Z</time></trkpt><trkpt lat="40.5393076" lon="9.6573451"><ele>55.0</ele><time>2026-04-24T10:46:47.836Z</time></trkpt><trkpt lat="40.5393712" lon="9.6574581"><ele>55.0</ele><time>2026-04-24T10:46:49.838Z</time></trkpt><trkpt lat="40.5394419" lon="9.6575653"><ele>55.0</ele><time>2026-04-24T10:46:51.837Z</time></trkpt><trkpt lat="40.5395033" lon="9.6576764"><ele>55.0</ele><time>2026-04-24T10:46:53.836Z</time></trkpt><trkpt lat="40.539568" lon="9.657781"><ele>55.0</ele><time>2026-04-24T10:46:55.838Z</time></trkpt><trkpt lat="40.5396247" lon="9.657886"><ele>55.0</ele><time>2026-04-24T10:46:57.837Z</time></trkpt><trkpt lat="40.5396776" lon="9.6579936"><ele>56.2</ele><time>2026-04-24T10:46:59.836Z</time></trkpt><trkpt lat="40.539739" lon="9.6580958"><ele>57.4</ele><time>2026-04-24T10:47:01.838Z</time></trkpt><trkpt lat="40.5398032" lon="9.6582025"><ele>58.599999999999994</ele><time>2026-04-24T10:47:03.837Z</time></trkpt><trkpt lat="40.5398614" lon="9.6583082"><ele>59.8</ele><time>2026-04-24T10:47:05.837Z</time></trkpt><trkpt lat="40.5399189" lon="9.6584149"><ele>61.0</ele><time>2026-04-24T10:47:07.836Z</time></trkpt><trkpt lat="40.5399778" lon="9.6585191"><ele>60.199999999999996</ele><time>2026-04-24T10:47:09.837Z</time></trkpt><trkpt lat="40.5400374" lon="9.6586236"><ele>59.39999999999999</ele><time>2026-04-24T10:47:11.837Z</time></trkpt><trkpt lat="40.5400987" lon="9.6587292"><ele>58.6</ele><time>2026-04-24T10:47:13.836Z</time></trkpt><trkpt lat="40.5401607" lon="9.6588308"><ele>57.8</ele><time>2026-04-24T10:47:15.836Z</time></trkpt><trkpt lat="40.5402232" lon="9.6589327"><ele>57.0</ele><time>2026-04-24T10:47:17.838Z</time></trkpt><trkpt lat="40.5402744" lon="9.6590458"><ele>57.0</ele><time>2026-04-24T10:47:19.838Z</time></trkpt><trkpt lat="40.5403364" lon="9.6591436"><ele>57.0</ele><time>2026-04-24T10:47:21.837Z</time></trkpt><trkpt lat="40.5403987" lon="9.6592465"><ele>57.0</ele><time>2026-04-24T10:47:23.837Z</time></trkpt><trkpt lat="40.5404522" lon="9.659353"><ele>57.0</ele><time>2026-04-24T10:47:25.836Z</time></trkpt><trkpt lat="40.5405081" lon="9.6594577"><ele>57.0</ele><time>2026-04-24T10:47:27.837Z</time></trkpt><trkpt lat="40.540569" lon="9.6595544"><ele>58.0</ele><time>2026-04-24T10:47:29.837Z</time></trkpt><trkpt lat="40.5406302" lon="9.659656"><ele>59.0</ele><time>2026-04-24T10:47:31.838Z</time></trkpt><trkpt lat="40.5406916" lon="9.6597575"><ele>60.0</ele><time>2026-04-24T10:47:33.836Z</time></trkpt><trkpt lat="40.5407504" lon="9.6598676"><ele>61.0</ele><time>2026-04-24T10:47:35.837Z</time></trkpt><trkpt lat="40.5408127" lon="9.65998"><ele>62.0</ele><time>2026-04-24T10:47:37.837Z</time></trkpt><trkpt lat="40.5408774" lon="9.6600877"><ele>62.0</ele><time>2026-04-24T10:47:39.836Z</time></trkpt><trkpt lat="40.5409393" lon="9.6602012"><ele>62.0</ele><time>2026-04-24T10:47:41.838Z</time></trkpt><trkpt lat="40.5410076" lon="9.6603186"><ele>62.0</ele><time>2026-04-24T10:47:43.837Z</time></trkpt><trkpt lat="40.5410782" lon="9.6604326"><ele>62.0</ele><time>2026-04-24T10:47:45.836Z</time></trkpt><trkpt lat="40.5411446" lon="9.6605459"><ele>62.0</ele><time>2026-04-24T10:47:47.837Z</time></trkpt><trkpt lat="40.5412092" lon="9.6606526"><ele>62.400000000000006</ele><time>2026-04-24T10:47:49.836Z</time></trkpt><trkpt lat="40.5412709" lon="9.6607635"><ele>62.800000000000004</ele><time>2026-04-24T10:47:51.837Z</time></trkpt><trkpt lat="40.5413293" lon="9.660873"><ele>63.2</ele><time>2026-04-24T10:47:53.836Z</time></trkpt><trkpt lat="40.5413899" lon="9.6609751"><ele>63.6</ele><time>2026-04-24T10:47:55.836Z</time></trkpt><trkpt lat="40.5414466" lon="9.6610778"><ele>64.0</ele><time>2026-04-24T10:47:57.838Z</time></trkpt><trkpt lat="40.5415086" lon="9.6611797"><ele>62.800000000000004</ele><time>2026-04-24T10:47:59.836Z</time></trkpt><trkpt lat="40.5415691" lon="9.6612774"><ele>61.60000000000001</ele><time>2026-04-24T10:48:01.836Z</time></trkpt><trkpt lat="40.5416286" lon="9.6613762"><ele>60.4</ele><time>2026-04-24T10:48:03.836Z</time></trkpt><trkpt lat="40.5416851" lon="9.6614828"><ele>59.2</ele><time>2026-04-24T10:48:05.837Z</time></trkpt><trkpt lat="40.5417392" lon="9.6615924"><ele>58.0</ele><time>2026-04-24T10:48:07.837Z</time></trkpt><trkpt lat="40.541801" lon="9.6616879"><ele>58.0</ele><time>2026-04-24T10:48:09.836Z</time></trkpt><trkpt lat="40.541856" lon="9.6617838"><ele>58.0</ele><time>2026-04-24T10:48:11.836Z</time></trkpt><trkpt lat="40.5419068" lon="9.6618781"><ele>58.0</ele><time>2026-04-24T10:48:13.836Z</time></trkpt><trkpt lat="40.5419621" lon="9.6619753"><ele>58.0</ele><time>2026-04-24T10:48:15.836Z</time></trkpt><trkpt lat="40.5420181" lon="9.6620716"><ele>58.0</ele><time>2026-04-24T10:48:17.837Z</time></trkpt><trkpt lat="40.5420747" lon="9.6621712"><ele>58.2</ele><time>2026-04-24T10:48:19.836Z</time></trkpt><trkpt lat="40.5421295" lon="9.6622695"><ele>58.4</ele><time>2026-04-24T10:48:21.837Z</time></trkpt><trkpt lat="40.5421789" lon="9.66237"><ele>58.60000000000001</ele><time>2026-04-24T10:48:23.837Z</time></trkpt><trkpt lat="40.5422378" lon="9.6624673"><ele>58.800000000000004</ele><time>2026-04-24T10:48:25.838Z</time></trkpt><trkpt lat="40.5422954" lon="9.6625665"><ele>59.0</ele><time>2026-04-24T10:48:27.836Z</time></trkpt><trkpt lat="40.5423539" lon="9.6626692"><ele>59.0</ele><time>2026-04-24T10:48:29.837Z</time></trkpt><trkpt lat="40.5424132" lon="9.6627732"><ele>59.00000000000001</ele><time>2026-04-24T10:48:31.838Z</time></trkpt><trkpt lat="40.5424805" lon="9.662881"><ele>59.00000000000001</ele><time>2026-04-24T10:48:33.836Z</time></trkpt><trkpt lat="40.5425499" lon="9.6629909"><ele>59.0</ele><time>2026-04-24T10:48:35.836Z</time></trkpt><trkpt lat="40.5426093" lon="9.6631075"><ele>59.0</ele><time>2026-04-24T10:48:37.836Z</time></trkpt><trkpt lat="40.5426703" lon="9.6632217"><ele>58.6</ele><time>2026-04-24T10:48:39.837Z</time></trkpt><trkpt lat="40.542733" lon="9.6633253"><ele>58.2</ele><time>2026-04-24T10:48:41.837Z</time></trkpt><trkpt lat="40.5427874" lon="9.6634317"><ele>57.800000000000004</ele><time>2026-04-24T10:48:43.838Z</time></trkpt><trkpt lat="40.5428458" lon="9.6635341"><ele>57.400000000000006</ele><time>2026-04-24T10:48:45.836Z</time></trkpt><trkpt lat="40.5428959" lon="9.663639"><ele>57.0</ele><time>2026-04-24T10:48:47.836Z</time></trkpt><trkpt lat="40.5429374" lon="9.6637453"><ele>56.400000000000006</ele><time>2026-04-24T10:48:49.836Z</time></trkpt><trkpt lat="40.5429903" lon="9.6638492"><ele>55.800000000000004</ele><time>2026-04-24T10:48:51.836Z</time></trkpt><trkpt lat="40.5430448" lon="9.6639431"><ele>55.2</ele><time>2026-04-24T10:48:53.836Z</time></trkpt><trkpt lat="40.5430883" lon="9.664048"><ele>54.6</ele><time>2026-04-24T10:48:55.836Z</time></trkpt><trkpt lat="40.5431209" lon="9.6641596"><ele>54.0</ele><time>2026-04-24T10:48:57.836Z</time></trkpt><trkpt lat="40.5431413" lon="9.6642766"><ele>54.0</ele><time>2026-04-24T10:48:59.836Z</time></trkpt><trkpt lat="40.5431308" lon="9.6643999"><ele>54.00000000000001</ele><time>2026-04-24T10:49:01.836Z</time></trkpt><trkpt lat="40.5430889" lon="9.66452"><ele>54.00000000000001</ele><time>2026-04-24T10:49:03.836Z</time></trkpt><trkpt lat="40.5430239" lon="9.6646186"><ele>54.0</ele><time>2026-04-24T10:49:05.837Z</time></trkpt><trkpt lat="40.5429527" lon="9.6647141"><ele>54.0</ele><time>2026-04-24T10:49:07.836Z</time></trkpt><trkpt lat="40.5428774" lon="9.6648157"><ele>53.400000000000006</ele><time>2026-04-24T10:49:09.837Z</time></trkpt><trkpt lat="40.5427995" lon="9.6649247"><ele>52.800000000000004</ele><time>2026-04-24T10:49:11.837Z</time></trkpt><trkpt lat="40.5427163" lon="9.6650322"><ele>52.2</ele><time>2026-04-24T10:49:13.837Z</time></trkpt><trkpt lat="40.5426322" lon="9.6651471"><ele>51.599999999999994</ele><time>2026-04-24T10:49:15.836Z</time></trkpt><trkpt lat="40.5425861" lon="9.6652054"><ele>51.0</ele><time>2026-04-24T10:49:16.837Z</time></trkpt><trkpt lat="40.5425386" lon="9.6652647"><ele>50.714285714285715</ele><time>2026-04-24T10:49:17.836Z</time></trkpt><trkpt lat="40.5424862" lon="9.665324"><ele>50.42857142857143</ele><time>2026-04-24T10:49:18.836Z</time></trkpt><trkpt lat="40.5424347" lon="9.6653843"><ele>50.14285714285714</ele><time>2026-04-24T10:49:19.836Z</time></trkpt><trkpt lat="40.5423833" lon="9.6654462"><ele>49.85714285714286</ele><time>2026-04-24T10:49:20.836Z</time></trkpt><trkpt lat="40.5423317" lon="9.6655039"><ele>49.57142857142857</ele><time>2026-04-24T10:49:21.836Z</time></trkpt><trkpt lat="40.5422803" lon="9.6655621"><ele>49.285714285714285</ele><time>2026-04-24T10:49:22.837Z</time></trkpt><trkpt lat="40.542225" lon="9.6656224"><ele>49.0</ele><time>2026-04-24T10:49:23.837Z</time></trkpt><trkpt lat="40.542171" lon="9.665688"><ele>48.99999999999999</ele><time>2026-04-24T10:49:24.836Z</time></trkpt><trkpt lat="40.5421184" lon="9.665755"><ele>49.0</ele><time>2026-04-24T10:49:25.836Z</time></trkpt><trkpt lat="40.5420625" lon="9.6658229"><ele>49.0</ele><time>2026-04-24T10:49:26.836Z</time></trkpt><trkpt lat="40.5420046" lon="9.665886"><ele>49.0</ele><time>2026-04-24T10:49:27.836Z</time></trkpt><trkpt lat="40.5419468" lon="9.6659512"><ele>48.99999999999999</ele><time>2026-04-24T10:49:28.836Z</time></trkpt><trkpt lat="40.5418917" lon="9.6660263"><ele>49.0</ele><time>2026-04-24T10:49:29.836Z</time></trkpt><trkpt lat="40.5418361" lon="9.6660977"><ele>47.83333333333333</ele><time>2026-04-24T10:49:30.836Z</time></trkpt><trkpt lat="40.5417756" lon="9.6661698"><ele>46.666666666666664</ele><time>2026-04-24T10:49:31.837Z</time></trkpt><trkpt lat="40.5417123" lon="9.6662425"><ele>45.5</ele><time>2026-04-24T10:49:32.837Z</time></trkpt><trkpt lat="40.5416501" lon="9.6663217"><ele>44.33333333333333</ele><time>2026-04-24T10:49:33.837Z</time></trkpt><trkpt lat="40.5415909" lon="9.666396"><ele>43.166666666666664</ele><time>2026-04-24T10:49:34.836Z</time></trkpt><trkpt lat="40.5415262" lon="9.6664745"><ele>42.0</ele><time>2026-04-24T10:49:35.836Z</time></trkpt><trkpt lat="40.5414608" lon="9.6665539"><ele>42.0</ele><time>2026-04-24T10:49:36.836Z</time></trkpt><trkpt lat="40.5413956" lon="9.6666315"><ele>42.0</ele><time>2026-04-24T10:49:37.837Z</time></trkpt><trkpt lat="40.5413276" lon="9.6667122"><ele>42.0</ele><time>2026-04-24T10:49:38.836Z</time></trkpt><trkpt lat="40.5412595" lon="9.6667961"><ele>42.0</ele><time>2026-04-24T10:49:39.836Z</time></trkpt><trkpt lat="40.5411913" lon="9.6668795"><ele>42.0</ele><time>2026-04-24T10:49:40.836Z</time></trkpt><trkpt lat="40.5411234" lon="9.6669606"><ele>41.666666666666664</ele><time>2026-04-24T10:49:41.836Z</time></trkpt><trkpt lat="40.5410533" lon="9.6670373"><ele>41.333333333333336</ele><time>2026-04-24T10:49:42.837Z</time></trkpt><trkpt lat="40.5409792" lon="9.6671131"><ele>41.0</ele><time>2026-04-24T10:49:43.836Z</time></trkpt><trkpt lat="40.5409084" lon="9.6671825"><ele>40.66666666666667</ele><time>2026-04-24T10:49:44.837Z</time></trkpt><trkpt lat="40.5408361" lon="9.6672455"><ele>40.333333333333336</ele><time>2026-04-24T10:49:45.836Z</time></trkpt><trkpt lat="40.5407638" lon="9.6673035"><ele>40.0</ele><time>2026-04-24T10:49:46.837Z</time></trkpt><trkpt lat="40.5406949" lon="9.6673559"><ele>40.0</ele><time>2026-04-24T10:49:47.837Z</time></trkpt><trkpt lat="40.5406281" lon="9.6674092"><ele>40.0</ele><time>2026-04-24T10:49:48.837Z</time></trkpt><trkpt lat="40.5405644" lon="9.6674592"><ele>40.0</ele><time>2026-04-24T10:49:49.837Z</time></trkpt><trkpt lat="40.5405022" lon="9.6675045"><ele>40.0</ele><time>2026-04-24T10:49:50.836Z</time></trkpt><trkpt lat="40.5404428" lon="9.6675469"><ele>40.0</ele><time>2026-04-24T10:49:51.837Z</time></trkpt><trkpt lat="40.540387" lon="9.6675907"><ele>40.0</ele><time>2026-04-24T10:49:52.837Z</time></trkpt><trkpt lat="40.540284" lon="9.6676692"><ele>39.4</ele><time>2026-04-24T10:49:54.836Z</time></trkpt><trkpt lat="40.5401977" lon="9.6677409"><ele>38.8</ele><time>2026-04-24T10:49:56.837Z</time></trkpt><trkpt lat="40.5401048" lon="9.6678018"><ele>38.2</ele><time>2026-04-24T10:49:58.836Z</time></trkpt><trkpt lat="40.5400141" lon="9.6678589"><ele>37.6</ele><time>2026-04-24T10:50:00.836Z</time></trkpt><trkpt lat="40.5399338" lon="9.6679246"><ele>37.0</ele><time>2026-04-24T10:50:02.836Z</time></trkpt><trkpt lat="40.5398492" lon="9.6679739"><ele>37.0</ele><time>2026-04-24T10:50:04.836Z</time></trkpt><trkpt lat="40.5397651" lon="9.6680176"><ele>37.0</ele><time>2026-04-24T10:50:06.837Z</time></trkpt><trkpt lat="40.5396891" lon="9.6680715"><ele>37.0</ele><time>2026-04-24T10:50:08.837Z</time></trkpt><trkpt lat="40.5396165" lon="9.6681323"><ele>37.0</ele><time>2026-04-24T10:50:10.837Z</time></trkpt><trkpt lat="40.5395478" lon="9.6682051"><ele>37.0</ele><time>2026-04-24T10:50:12.837Z</time></trkpt><trkpt lat="40.5394804" lon="9.6682803"><ele>37.0</ele><time>2026-04-24T10:50:14.836Z</time></trkpt><trkpt lat="40.5394075" lon="9.6683509"><ele>37.16666666666667</ele><time>2026-04-24T10:50:16.836Z</time></trkpt><trkpt lat="40.5393392" lon="9.6684296"><ele>37.333333333333336</ele><time>2026-04-24T10:50:18.836Z</time></trkpt><trkpt lat="40.5392722" lon="9.6685095"><ele>37.5</ele><time>2026-04-24T10:50:20.836Z</time></trkpt><trkpt lat="40.5392017" lon="9.6685762"><ele>37.666666666666664</ele><time>2026-04-24T10:50:22.837Z</time></trkpt><trkpt lat="40.5391331" lon="9.6686485"><ele>37.83333333333333</ele><time>2026-04-24T10:50:24.836Z</time></trkpt><trkpt lat="40.5390661" lon="9.6687216"><ele>38.0</ele><time>2026-04-24T10:50:26.837Z</time></trkpt><trkpt lat="40.5389925" lon="9.668798"><ele>38.0</ele><time>2026-04-24T10:50:28.836Z</time></trkpt><trkpt lat="40.5389376" lon="9.668871"><ele>38.0</ele><time>2026-04-24T10:50:30.836Z</time></trkpt><trkpt lat="40.5388812" lon="9.6689543"><ele>38.0</ele><time>2026-04-24T10:50:32.837Z</time></trkpt><trkpt lat="40.5388" lon="9.6690316"><ele>38.0</ele><time>2026-04-24T10:50:34.837Z</time></trkpt><trkpt lat="40.5387329" lon="9.6691002"><ele>38.0</ele><time>2026-04-24T10:50:36.836Z</time></trkpt><trkpt lat="40.5386714" lon="9.6691785"><ele>38.0</ele><time>2026-04-24T10:50:38.837Z</time></trkpt><trkpt lat="40.5385988" lon="9.6692401"><ele>38.33333333333333</ele><time>2026-04-24T10:50:40.837Z</time></trkpt><trkpt lat="40.5385185" lon="9.6692968"><ele>38.666666666666664</ele><time>2026-04-24T10:50:42.837Z</time></trkpt><trkpt lat="40.538442" lon="9.6693463"><ele>39.0</ele><time>2026-04-24T10:50:44.836Z</time></trkpt><trkpt lat="40.5383716" lon="9.6694099"><ele>39.333333333333336</ele><time>2026-04-24T10:50:46.837Z</time></trkpt><trkpt lat="40.5383202" lon="9.6694998"><ele>39.66666666666667</ele><time>2026-04-24T10:50:48.836Z</time></trkpt><trkpt lat="40.5383066" lon="9.6696181"><ele>40.0</ele><time>2026-04-24T10:50:50.836Z</time></trkpt><trkpt lat="40.5383377" lon="9.669736"><ele>40.0</ele><time>2026-04-24T10:50:52.837Z</time></trkpt><trkpt lat="40.5383862" lon="9.6698485"><ele>40.0</ele><time>2026-04-24T10:50:54.836Z</time></trkpt><trkpt lat="40.5384354" lon="9.6699625"><ele>40.0</ele><time>2026-04-24T10:50:56.836Z</time></trkpt><trkpt lat="40.5384926" lon="9.6700749"><ele>40.0</ele><time>2026-04-24T10:50:58.837Z</time></trkpt><trkpt lat="40.5385533" lon="9.6701789"><ele>40.0</ele><time>2026-04-24T10:51:00.836Z</time></trkpt><trkpt lat="40.5386155" lon="9.6702842"><ele>40.2</ele><time>2026-04-24T10:51:02.837Z</time></trkpt><trkpt lat="40.5386762" lon="9.6703827"><ele>40.4</ele><time>2026-04-24T10:51:04.836Z</time></trkpt><trkpt lat="40.5387359" lon="9.6704861"><ele>40.599999999999994</ele><time>2026-04-24T10:51:06.837Z</time></trkpt><trkpt lat="40.5387919" lon="9.6705841"><ele>40.8</ele><time>2026-04-24T10:51:08.837Z</time></trkpt><trkpt lat="40.5388578" lon="9.6706807"><ele>41.0</ele><time>2026-04-24T10:51:10.836Z</time></trkpt><trkpt lat="40.5389132" lon="9.670775"><ele>41.0</ele><time>2026-04-24T10:51:12.837Z</time></trkpt><trkpt lat="40.5389715" lon="9.6708711"><ele>41.0</ele><time>2026-04-24T10:51:14.836Z</time></trkpt><trkpt lat="40.5390396" lon="9.6709538"><ele>41.0</ele><time>2026-04-24T10:51:16.836Z</time></trkpt><trkpt lat="40.5391032" lon="9.6710448"><ele>41.0</ele><time>2026-04-24T10:51:18.836Z</time></trkpt><trkpt lat="40.5391573" lon="9.6711296"><ele>41.0</ele><time>2026-04-24T10:51:20.836Z</time></trkpt><trkpt lat="40.5392088" lon="9.6712204"><ele>41.0</ele><time>2026-04-24T10:51:22.837Z</time></trkpt><trkpt lat="40.5392739" lon="9.6713128"><ele>41.0</ele><time>2026-04-24T10:51:24.837Z</time></trkpt><trkpt lat="40.5393327" lon="9.6714036"><ele>41.0</ele><time>2026-04-24T10:51:26.837Z</time></trkpt><trkpt lat="40.5393863" lon="9.6715009"><ele>41.0</ele><time>2026-04-24T10:51:28.836Z</time></trkpt><trkpt lat="40.5394404" lon="9.67159"><ele>41.0</ele><time>2026-04-24T10:51:30.837Z</time></trkpt><trkpt lat="40.5395015" lon="9.6716796"><ele>40.83333333333333</ele><time>2026-04-24T10:51:32.836Z</time></trkpt><trkpt lat="40.5395555" lon="9.6717711"><ele>40.666666666666664</ele><time>2026-04-24T10:51:34.835Z</time></trkpt><trkpt lat="40.53961" lon="9.6718625"><ele>40.5</ele><time>2026-04-24T10:51:36.837Z</time></trkpt><trkpt lat="40.5396664" lon="9.6719516"><ele>40.333333333333336</ele><time>2026-04-24T10:51:38.836Z</time></trkpt><trkpt lat="40.5397312" lon="9.6720351"><ele>40.16666666666667</ele><time>2026-04-24T10:51:40.837Z</time></trkpt><trkpt lat="40.5397902" lon="9.6721227"><ele>40.0</ele><time>2026-04-24T10:51:42.837Z</time></trkpt><trkpt lat="40.5398537" lon="9.6722004"><ele>39.6</ele><time>2026-04-24T10:51:44.837Z</time></trkpt><trkpt lat="40.5399265" lon="9.6722634"><ele>39.2</ele><time>2026-04-24T10:51:46.836Z</time></trkpt><trkpt lat="40.5400009" lon="9.6723326"><ele>38.8</ele><time>2026-04-24T10:51:48.836Z</time></trkpt><trkpt lat="40.5400872" lon="9.6723812"><ele>38.4</ele><time>2026-04-24T10:51:50.837Z</time></trkpt><trkpt lat="40.54018" lon="9.6724289"><ele>38.0</ele><time>2026-04-24T10:51:52.836Z</time></trkpt><trkpt lat="40.5402636" lon="9.6724788"><ele>38.0</ele><time>2026-04-24T10:51:54.836Z</time></trkpt><trkpt lat="40.5403513" lon="9.6725176"><ele>38.0</ele><time>2026-04-24T10:51:56.837Z</time></trkpt><trkpt lat="40.5404322" lon="9.672559"><ele>38.0</ele><time>2026-04-24T10:51:58.836Z</time></trkpt><trkpt lat="40.5405214" lon="9.6726019"><ele>38.0</ele><time>2026-04-24T10:52:00.836Z</time></trkpt><trkpt lat="40.5406017" lon="9.6726491"><ele>38.0</ele><time>2026-04-24T10:52:02.836Z</time></trkpt><trkpt lat="40.5406777" lon="9.672701"><ele>38.0</ele><time>2026-04-24T10:52:04.836Z</time></trkpt><trkpt lat="40.540764" lon="9.6727425"><ele>39.0</ele><time>2026-04-24T10:52:06.837Z</time></trkpt><trkpt lat="40.5408506" lon="9.6727828"><ele>40.0</ele><time>2026-04-24T10:52:08.837Z</time></trkpt><trkpt lat="40.5409342" lon="9.6728209"><ele>41.0</ele><time>2026-04-24T10:52:10.837Z</time></trkpt><trkpt lat="40.5410217" lon="9.6728688"><ele>42.0</ele><time>2026-04-24T10:52:12.837Z</time></trkpt><trkpt lat="40.5411023" lon="9.6729246"><ele>43.0</ele><time>2026-04-24T10:52:14.837Z</time></trkpt><trkpt lat="40.541187" lon="9.6729753"><ele>42.4</ele><time>2026-04-24T10:52:16.836Z</time></trkpt><trkpt lat="40.5412714" lon="9.6730178"><ele>41.8</ele><time>2026-04-24T10:52:18.836Z</time></trkpt><trkpt lat="40.541353" lon="9.6730668"><ele>41.2</ele><time>2026-04-24T10:52:20.836Z</time></trkpt><trkpt lat="40.5414363" lon="9.6731122"><ele>40.6</ele><time>2026-04-24T10:52:22.837Z</time></trkpt><trkpt lat="40.5415236" lon="9.6731558"><ele>40.0</ele><time>2026-04-24T10:52:24.837Z</time></trkpt><trkpt lat="40.541614" lon="9.6731904"><ele>40.0</ele><time>2026-04-24T10:52:26.837Z</time></trkpt><trkpt lat="40.5416988" lon="9.6732314"><ele>40.0</ele><time>2026-04-24T10:52:28.836Z</time></trkpt><trkpt lat="40.5417852" lon="9.6732836"><ele>40.0</ele><time>2026-04-24T10:52:30.837Z</time></trkpt><trkpt lat="40.5418725" lon="9.6733341"><ele>40.0</ele><time>2026-04-24T10:52:32.836Z</time></trkpt><trkpt lat="40.5419606" lon="9.673383"><ele>40.0</ele><time>2026-04-24T10:52:34.837Z</time></trkpt><trkpt lat="40.542047" lon="9.6734278"><ele>39.8</ele><time>2026-04-24T10:52:36.836Z</time></trkpt><trkpt lat="40.5421352" lon="9.6734734"><ele>39.6</ele><time>2026-04-24T10:52:38.836Z</time></trkpt><trkpt lat="40.5422186" lon="9.6735216"><ele>39.4</ele><time>2026-04-24T10:52:40.836Z</time></trkpt><trkpt lat="40.5423" lon="9.6735693"><ele>39.2</ele><time>2026-04-24T10:52:42.837Z</time></trkpt><trkpt lat="40.5423841" lon="9.6736215"><ele>39.0</ele><time>2026-04-24T10:52:44.836Z</time></trkpt><trkpt lat="40.5424709" lon="9.6736808"><ele>39.0</ele><time>2026-04-24T10:52:46.836Z</time></trkpt><trkpt lat="40.5425564" lon="9.6737382"><ele>39.0</ele><time>2026-04-24T10:52:48.836Z</time></trkpt><trkpt lat="40.5426434" lon="9.673789"><ele>39.0</ele><time>2026-04-24T10:52:50.835Z</time></trkpt><trkpt lat="40.5427344" lon="9.6738275"><ele>39.0</ele><time>2026-04-24T10:52:52.835Z</time></trkpt><trkpt lat="40.5428223" lon="9.6738715"><ele>39.0</ele><time>2026-04-24T10:52:54.836Z</time></trkpt><trkpt lat="40.542913" lon="9.6739023"><ele>39.2</ele><time>2026-04-24T10:52:56.836Z</time></trkpt><trkpt lat="40.5430052" lon="9.6739276"><ele>39.4</ele><time>2026-04-24T10:52:58.837Z</time></trkpt><trkpt lat="40.5430921" lon="9.6739744"><ele>39.6</ele><time>2026-04-24T10:53:00.836Z</time></trkpt><trkpt lat="40.5431734" lon="9.6740302"><ele>39.8</ele><time>2026-04-24T10:53:02.837Z</time></trkpt><trkpt lat="40.5432568" lon="9.6740802"><ele>40.0</ele><time>2026-04-24T10:53:04.836Z</time></trkpt><trkpt lat="40.5433415" lon="9.6741288"><ele>40.0</ele><time>2026-04-24T10:53:06.837Z</time></trkpt><trkpt lat="40.5434238" lon="9.674177"><ele>40.0</ele><time>2026-04-24T10:53:08.836Z</time></trkpt><trkpt lat="40.5435108" lon="9.6742297"><ele>40.0</ele><time>2026-04-24T10:53:10.837Z</time></trkpt><trkpt lat="40.5436002" lon="9.6742718"><ele>40.0</ele><time>2026-04-24T10:53:12.836Z</time></trkpt><trkpt lat="40.5436893" lon="9.6743206"><ele>40.0</ele><time>2026-04-24T10:53:14.836Z</time></trkpt><trkpt lat="40.5437778" lon="9.6743628"><ele>40.4</ele><time>2026-04-24T10:53:16.837Z</time></trkpt><trkpt lat="40.5438667" lon="9.6744133"><ele>40.8</ele><time>2026-04-24T10:53:18.836Z</time></trkpt><trkpt lat="40.5439515" lon="9.6744738"><ele>41.2</ele><time>2026-04-24T10:53:20.836Z</time></trkpt><trkpt lat="40.5440388" lon="9.6745212"><ele>41.6</ele><time>2026-04-24T10:53:22.837Z</time></trkpt><trkpt lat="40.5441257" lon="9.6745655"><ele>42.0</ele><time>2026-04-24T10:53:24.837Z</time></trkpt><trkpt lat="40.5442137" lon="9.67461"><ele>42.0</ele><time>2026-04-24T10:53:26.836Z</time></trkpt><trkpt lat="40.5443005" lon="9.6746596"><ele>42.0</ele><time>2026-04-24T10:53:28.836Z</time></trkpt><trkpt lat="40.5443883" lon="9.6747036"><ele>42.0</ele><time>2026-04-24T10:53:30.836Z</time></trkpt><trkpt lat="40.5444722" lon="9.6747574"><ele>42.0</ele><time>2026-04-24T10:53:32.835Z</time></trkpt><trkpt lat="40.5445593" lon="9.6748061"><ele>42.0</ele><time>2026-04-24T10:53:34.837Z</time></trkpt><trkpt lat="40.544655" lon="9.6748461"><ele>40.800000000000004</ele><time>2026-04-24T10:53:36.836Z</time></trkpt><trkpt lat="40.5447497" lon="9.6748927"><ele>39.6</ele><time>2026-04-24T10:53:38.836Z</time></trkpt><trkpt lat="40.544844" lon="9.6749427"><ele>38.400000000000006</ele><time>2026-04-24T10:53:40.835Z</time></trkpt><trkpt lat="40.5449368" lon="9.6749968"><ele>37.2</ele><time>2026-04-24T10:53:42.836Z</time></trkpt><trkpt lat="40.545027" lon="9.675047"><ele>36.0</ele><time>2026-04-24T10:53:44.836Z</time></trkpt><trkpt lat="40.5451163" lon="9.6750884"><ele>36.0</ele><time>2026-04-24T10:53:46.837Z</time></trkpt><trkpt lat="40.5452068" lon="9.6751381"><ele>36.0</ele><time>2026-04-24T10:53:48.837Z</time></trkpt><trkpt lat="40.5452915" lon="9.6751853"><ele>36.0</ele><time>2026-04-24T10:53:50.836Z</time></trkpt><trkpt lat="40.5453678" lon="9.6752448"><ele>36.0</ele><time>2026-04-24T10:53:52.836Z</time></trkpt><trkpt lat="40.5454439" lon="9.6753029"><ele>36.0</ele><time>2026-04-24T10:53:54.836Z</time></trkpt><trkpt lat="40.5455262" lon="9.6753659"><ele>36.0</ele><time>2026-04-24T10:53:56.836Z</time></trkpt><trkpt lat="40.5456109" lon="9.6754152"><ele>36.0</ele><time>2026-04-24T10:53:58.836Z</time></trkpt><trkpt lat="40.5456831" lon="9.67548"><ele>36.0</ele><time>2026-04-24T10:54:00.837Z</time></trkpt><trkpt lat="40.5457591" lon="9.675544"><ele>36.0</ele><time>2026-04-24T10:54:02.836Z</time></trkpt><trkpt lat="40.5458389" lon="9.6755988"><ele>36.0</ele><time>2026-04-24T10:54:04.836Z</time></trkpt><trkpt lat="40.5459128" lon="9.6756593"><ele>36.0</ele><time>2026-04-24T10:54:06.835Z</time></trkpt><trkpt lat="40.5459948" lon="9.6757204"><ele>36.0</ele><time>2026-04-24T10:54:08.836Z</time></trkpt><trkpt lat="40.5460812" lon="9.675781"><ele>36.0</ele><time>2026-04-24T10:54:10.835Z</time></trkpt><trkpt lat="40.5461628" lon="9.6758337"><ele>36.0</ele><time>2026-04-24T10:54:12.837Z</time></trkpt><trkpt lat="40.5462465" lon="9.6758882"><ele>36.0</ele><time>2026-04-24T10:54:14.836Z</time></trkpt><trkpt lat="40.5463281" lon="9.6759461"><ele>36.0</ele><time>2026-04-24T10:54:16.837Z</time></trkpt><trkpt lat="40.546413" lon="9.6760014"><ele>35.833333333333336</ele><time>2026-04-24T10:54:18.836Z</time></trkpt><trkpt lat="40.5464944" lon="9.6760542"><ele>35.666666666666664</ele><time>2026-04-24T10:54:20.836Z</time></trkpt><trkpt lat="40.5465745" lon="9.6761057"><ele>35.5</ele><time>2026-04-24T10:54:22.835Z</time></trkpt><trkpt lat="40.5466527" lon="9.6761616"><ele>35.33333333333333</ele><time>2026-04-24T10:54:24.836Z</time></trkpt><trkpt lat="40.5467346" lon="9.6762118"><ele>35.166666666666664</ele><time>2026-04-24T10:54:26.835Z</time></trkpt><trkpt lat="40.5468034" lon="9.6762463"><ele>35.0</ele><time>2026-04-24T10:54:28.837Z</time></trkpt><trkpt lat="40.5468627" lon="9.6762983"><ele>35.0</ele><time>2026-04-24T10:54:30.836Z</time></trkpt><trkpt lat="40.5469624" lon="9.6763592"><ele>35.0</ele><time>2026-04-24T10:54:32.836Z</time></trkpt><trkpt lat="40.5470564" lon="9.6764222"><ele>35.0</ele><time>2026-04-24T10:54:34.836Z</time></trkpt><trkpt lat="40.5471475" lon="9.6764813"><ele>35.0</ele><time>2026-04-24T10:54:36.836Z</time></trkpt><trkpt lat="40.5472416" lon="9.6765441"><ele>35.0</ele><time>2026-04-24T10:54:38.836Z</time></trkpt><trkpt lat="40.5473377" lon="9.6766187"><ele>35.0</ele><time>2026-04-24T10:54:40.835Z</time></trkpt><trkpt lat="40.5474349" lon="9.6766912"><ele>35.0</ele><time>2026-04-24T10:54:42.836Z</time></trkpt><trkpt lat="40.5475297" lon="9.6767527"><ele>35.0</ele><time>2026-04-24T10:54:44.837Z</time></trkpt><trkpt lat="40.5476241" lon="9.6768127"><ele>35.0</ele><time>2026-04-24T10:54:46.837Z</time></trkpt><trkpt lat="40.5477019" lon="9.6768908"><ele>35.0</ele><time>2026-04-24T10:54:48.836Z</time></trkpt><trkpt lat="40.5477882" lon="9.6769504"><ele>35.0</ele><time>2026-04-24T10:54:50.836Z</time></trkpt><trkpt lat="40.5478728" lon="9.6770001"><ele>35.0</ele><time>2026-04-24T10:54:52.836Z</time></trkpt><trkpt lat="40.5479523" lon="9.6770521"><ele>35.0</ele><time>2026-04-24T10:54:54.836Z</time></trkpt><trkpt lat="40.5480327" lon="9.6771007"><ele>35.0</ele><time>2026-04-24T10:54:56.836Z</time></trkpt><trkpt lat="40.5481031" lon="9.6771544"><ele>35.0</ele><time>2026-04-24T10:54:58.836Z</time></trkpt><trkpt lat="40.5481687" lon="9.6771992"><ele>35.0</ele><time>2026-04-24T10:55:00.837Z</time></trkpt><trkpt lat="40.5482336" lon="9.6772338"><ele>34.6</ele><time>2026-04-24T10:55:02.835Z</time></trkpt><trkpt lat="40.5482973" lon="9.6772671"><ele>34.2</ele><time>2026-04-24T10:55:04.837Z</time></trkpt><trkpt lat="40.5483619" lon="9.6773084"><ele>33.8</ele><time>2026-04-24T10:55:06.837Z</time></trkpt><trkpt lat="40.5484343" lon="9.677378"><ele>33.4</ele><time>2026-04-24T10:55:08.835Z</time></trkpt><trkpt lat="40.5485099" lon="9.6774859"><ele>33.0</ele><time>2026-04-24T10:55:10.836Z</time></trkpt><trkpt lat="40.5485884" lon="9.6776072"><ele>33.0</ele><time>2026-04-24T10:55:12.836Z</time></trkpt><trkpt lat="40.5486544" lon="9.677745"><ele>33.0</ele><time>2026-04-24T10:55:14.836Z</time></trkpt><trkpt lat="40.5487018" lon="9.6778841"><ele>33.0</ele><time>2026-04-24T10:55:16.837Z</time></trkpt><trkpt lat="40.5487338" lon="9.6780319"><ele>33.0</ele><time>2026-04-24T10:55:18.837Z</time></trkpt><trkpt lat="40.5487649" lon="9.6781802"><ele>32.8</ele><time>2026-04-24T10:55:20.836Z</time></trkpt><trkpt lat="40.5487893" lon="9.678324"><ele>32.599999999999994</ele><time>2026-04-24T10:55:22.836Z</time></trkpt><trkpt lat="40.5488124" lon="9.6784639"><ele>32.400000000000006</ele><time>2026-04-24T10:55:24.835Z</time></trkpt><trkpt lat="40.5488311" lon="9.6785927"><ele>32.2</ele><time>2026-04-24T10:55:26.836Z</time></trkpt><trkpt lat="40.5488513" lon="9.6787082"><ele>32.0</ele><time>2026-04-24T10:55:28.836Z</time></trkpt><trkpt lat="40.5488711" lon="9.6788181"><ele>31.999999999999996</ele><time>2026-04-24T10:55:30.835Z</time></trkpt><trkpt lat="40.5488861" lon="9.6789224"><ele>32.0</ele><time>2026-04-24T10:55:32.836Z</time></trkpt><trkpt lat="40.5489155" lon="9.6790297"><ele>32.0</ele><time>2026-04-24T10:55:34.836Z</time></trkpt><trkpt lat="40.5489423" lon="9.6791403"><ele>32.0</ele><time>2026-04-24T10:55:36.835Z</time></trkpt><trkpt lat="40.5489522" lon="9.6792567"><ele>31.999999999999996</ele><time>2026-04-24T10:55:38.835Z</time></trkpt><trkpt lat="40.5489828" lon="9.6793661"><ele>32.0</ele><time>2026-04-24T10:55:40.836Z</time></trkpt><trkpt lat="40.5490008" lon="9.6794798"><ele>31.8</ele><time>2026-04-24T10:55:42.835Z</time></trkpt><trkpt lat="40.549029" lon="9.6795914"><ele>31.6</ele><time>2026-04-24T10:55:44.836Z</time></trkpt><trkpt lat="40.5490408" lon="9.6797112"><ele>31.400000000000002</ele><time>2026-04-24T10:55:46.837Z</time></trkpt><trkpt lat="40.5490556" lon="9.6798212"><ele>31.200000000000003</ele><time>2026-04-24T10:55:48.836Z</time></trkpt><trkpt lat="40.5490676" lon="9.6799392"><ele>31.0</ele><time>2026-04-24T10:55:50.835Z</time></trkpt><trkpt lat="40.5490734" lon="9.6800622"><ele>31.0</ele><time>2026-04-24T10:55:52.835Z</time></trkpt><trkpt lat="40.5490726" lon="9.680185"><ele>31.0</ele><time>2026-04-24T10:55:54.835Z</time></trkpt><trkpt lat="40.5490707" lon="9.6803139"><ele>31.0</ele><time>2026-04-24T10:55:56.836Z</time></trkpt><trkpt lat="40.5490637" lon="9.6804432"><ele>31.0</ele><time>2026-04-24T10:55:58.835Z</time></trkpt><trkpt lat="40.5490611" lon="9.6805696"><ele>31.0</ele><time>2026-04-24T10:56:00.836Z</time></trkpt><trkpt lat="40.5490673" lon="9.680691"><ele>31.200000000000003</ele><time>2026-04-24T10:56:02.835Z</time></trkpt><trkpt lat="40.5490632" lon="9.6808055"><ele>31.400000000000002</ele><time>2026-04-24T10:56:04.836Z</time></trkpt><trkpt lat="40.549053" lon="9.6809213"><ele>31.6</ele><time>2026-04-24T10:56:06.837Z</time></trkpt><trkpt lat="40.5490448" lon="9.6810364"><ele>31.8</ele><time>2026-04-24T10:56:08.836Z</time></trkpt><trkpt lat="40.5490303" lon="9.6811575"><ele>32.0</ele><time>2026-04-24T10:56:10.836Z</time></trkpt><trkpt lat="40.5490195" lon="9.6812797"><ele>31.400000000000002</ele><time>2026-04-24T10:56:12.837Z</time></trkpt><trkpt lat="40.5490065" lon="9.6814023"><ele>30.800000000000004</ele><time>2026-04-24T10:56:14.836Z</time></trkpt><trkpt lat="40.5489991" lon="9.6815312"><ele>30.2</ele><time>2026-04-24T10:56:16.835Z</time></trkpt><trkpt lat="40.5489902" lon="9.681662"><ele>29.6</ele><time>2026-04-24T10:56:18.836Z</time></trkpt><trkpt lat="40.5489847" lon="9.681798"><ele>29.0</ele><time>2026-04-24T10:56:20.835Z</time></trkpt><trkpt lat="40.5489721" lon="9.6819327"><ele>29.0</ele><time>2026-04-24T10:56:22.837Z</time></trkpt><trkpt lat="40.5489753" lon="9.6820645"><ele>29.0</ele><time>2026-04-24T10:56:24.837Z</time></trkpt><trkpt lat="40.5489828" lon="9.6822049"><ele>29.0</ele><time>2026-04-24T10:56:26.835Z</time></trkpt><trkpt lat="40.5489921" lon="9.6823445"><ele>29.0</ele><time>2026-04-24T10:56:28.836Z</time></trkpt><trkpt lat="40.5490014" lon="9.6824857"><ele>29.0</ele><time>2026-04-24T10:56:30.836Z</time></trkpt><trkpt lat="40.5490154" lon="9.6826264"><ele>29.6</ele><time>2026-04-24T10:56:32.837Z</time></trkpt><trkpt lat="40.5490275" lon="9.6827704"><ele>30.2</ele><time>2026-04-24T10:56:34.836Z</time></trkpt><trkpt lat="40.5490428" lon="9.6829176"><ele>30.800000000000004</ele><time>2026-04-24T10:56:36.836Z</time></trkpt><trkpt lat="40.5490627" lon="9.6830603"><ele>31.400000000000002</ele><time>2026-04-24T10:56:38.837Z</time></trkpt><trkpt lat="40.5490839" lon="9.6831995"><ele>32.0</ele><time>2026-04-24T10:56:40.835Z</time></trkpt><trkpt lat="40.5491037" lon="9.6833243"><ele>32.0</ele><time>2026-04-24T10:56:42.836Z</time></trkpt><trkpt lat="40.5491174" lon="9.6834447"><ele>32.0</ele><time>2026-04-24T10:56:44.837Z</time></trkpt><trkpt lat="40.5491385" lon="9.6835669"><ele>32.0</ele><time>2026-04-24T10:56:46.837Z</time></trkpt><trkpt lat="40.5491605" lon="9.6836948"><ele>32.0</ele><time>2026-04-24T10:56:48.836Z</time></trkpt><trkpt lat="40.549179" lon="9.6838271"><ele>32.0</ele><time>2026-04-24T10:56:50.836Z</time></trkpt><trkpt lat="40.5491938" lon="9.6839576"><ele>32.2</ele><time>2026-04-24T10:56:52.836Z</time></trkpt><trkpt lat="40.5492205" lon="9.684086"><ele>32.400000000000006</ele><time>2026-04-24T10:56:54.836Z</time></trkpt><trkpt lat="40.5492439" lon="9.6842172"><ele>32.599999999999994</ele><time>2026-04-24T10:56:56.835Z</time></trkpt><trkpt lat="40.5492598" lon="9.6843507"><ele>32.8</ele><time>2026-04-24T10:56:58.836Z</time></trkpt><trkpt lat="40.5492812" lon="9.6844869"><ele>33.0</ele><time>2026-04-24T10:57:00.836Z</time></trkpt><trkpt lat="40.5492964" lon="9.6846201"><ele>33.6</ele><time>2026-04-24T10:57:02.835Z</time></trkpt><trkpt lat="40.5493169" lon="9.6847486"><ele>34.199999999999996</ele><time>2026-04-24T10:57:04.836Z</time></trkpt><trkpt lat="40.5493393" lon="9.6848898"><ele>34.8</ele><time>2026-04-24T10:57:06.836Z</time></trkpt><trkpt lat="40.5493553" lon="9.6850207"><ele>35.4</ele><time>2026-04-24T10:57:08.837Z</time></trkpt><trkpt lat="40.5493781" lon="9.6851469"><ele>36.0</ele><time>2026-04-24T10:57:10.837Z</time></trkpt><trkpt lat="40.5494017" lon="9.6852796"><ele>36.4</ele><time>2026-04-24T10:57:12.836Z</time></trkpt><trkpt lat="40.5494292" lon="9.6854068"><ele>36.8</ele><time>2026-04-24T10:57:14.836Z</time></trkpt><trkpt lat="40.5494505" lon="9.6855367"><ele>37.199999999999996</ele><time>2026-04-24T10:57:16.836Z</time></trkpt><trkpt lat="40.5494738" lon="9.6856653"><ele>37.6</ele><time>2026-04-24T10:57:18.836Z</time></trkpt><trkpt lat="40.5495018" lon="9.6857878"><ele>38.0</ele><time>2026-04-24T10:57:20.835Z</time></trkpt><trkpt lat="40.5495319" lon="9.6859086"><ele>38.199999999999996</ele><time>2026-04-24T10:57:22.836Z</time></trkpt><trkpt lat="40.5495654" lon="9.6860285"><ele>38.4</ele><time>2026-04-24T10:57:24.836Z</time></trkpt><trkpt lat="40.5496061" lon="9.686142"><ele>38.599999999999994</ele><time>2026-04-24T10:57:26.836Z</time></trkpt><trkpt lat="40.5496428" lon="9.6862654"><ele>38.8</ele><time>2026-04-24T10:57:28.836Z</time></trkpt><trkpt lat="40.5496863" lon="9.6863846"><ele>39.0</ele><time>2026-04-24T10:57:30.836Z</time></trkpt><trkpt lat="40.5497406" lon="9.686498"><ele>39.4</ele><time>2026-04-24T10:57:32.835Z</time></trkpt><trkpt lat="40.5497954" lon="9.6866106"><ele>39.8</ele><time>2026-04-24T10:57:34.836Z</time></trkpt><trkpt lat="40.54985" lon="9.6867225"><ele>40.199999999999996</ele><time>2026-04-24T10:57:36.835Z</time></trkpt><trkpt lat="40.5499061" lon="9.6868296"><ele>40.599999999999994</ele><time>2026-04-24T10:57:38.836Z</time></trkpt><trkpt lat="40.5499643" lon="9.6869365"><ele>41.0</ele><time>2026-04-24T10:57:40.836Z</time></trkpt><trkpt lat="40.5500302" lon="9.687043"><ele>41.199999999999996</ele><time>2026-04-24T10:57:42.835Z</time></trkpt><trkpt lat="40.5500943" lon="9.6871415"><ele>41.4</ele><time>2026-04-24T10:57:44.836Z</time></trkpt><trkpt lat="40.5501572" lon="9.6872423"><ele>41.6</ele><time>2026-04-24T10:57:46.836Z</time></trkpt><trkpt lat="40.5502224" lon="9.6873485"><ele>41.8</ele><time>2026-04-24T10:57:48.837Z</time></trkpt><trkpt lat="40.5502916" lon="9.6874493"><ele>42.0</ele><time>2026-04-24T10:57:50.836Z</time></trkpt><trkpt lat="40.550352" lon="9.6875499"><ele>41.8</ele><time>2026-04-24T10:57:52.837Z</time></trkpt><trkpt lat="40.5504118" lon="9.6876568"><ele>41.6</ele><time>2026-04-24T10:57:54.836Z</time></trkpt><trkpt lat="40.5504725" lon="9.6877568"><ele>41.4</ele><time>2026-04-24T10:57:56.835Z</time></trkpt><trkpt lat="40.5505336" lon="9.6878636"><ele>41.199999999999996</ele><time>2026-04-24T10:57:58.836Z</time></trkpt><trkpt lat="40.5506011" lon="9.6879679"><ele>41.0</ele><time>2026-04-24T10:58:00.836Z</time></trkpt><trkpt lat="40.5506668" lon="9.6880787"><ele>41.599999999999994</ele><time>2026-04-24T10:58:02.835Z</time></trkpt><trkpt lat="40.5507319" lon="9.6881869"><ele>42.2</ele><time>2026-04-24T10:58:04.835Z</time></trkpt><trkpt lat="40.550798" lon="9.6883024"><ele>42.8</ele><time>2026-04-24T10:58:06.836Z</time></trkpt><trkpt lat="40.5508705" lon="9.6884179"><ele>43.400000000000006</ele><time>2026-04-24T10:58:08.836Z</time></trkpt><trkpt lat="40.5509485" lon="9.6885297"><ele>44.0</ele><time>2026-04-24T10:58:10.836Z</time></trkpt><trkpt lat="40.551017" lon="9.6886537"><ele>44.0</ele><time>2026-04-24T10:58:12.836Z</time></trkpt><trkpt lat="40.5510906" lon="9.6887774"><ele>44.0</ele><time>2026-04-24T10:58:14.836Z</time></trkpt><trkpt lat="40.5511634" lon="9.6889016"><ele>44.0</ele><time>2026-04-24T10:58:16.836Z</time></trkpt><trkpt lat="40.551229" lon="9.6890288"><ele>44.0</ele><time>2026-04-24T10:58:18.835Z</time></trkpt><trkpt lat="40.5512921" lon="9.6891581"><ele>43.5</ele><time>2026-04-24T10:58:20.836Z</time></trkpt><trkpt lat="40.5513497" lon="9.6892862"><ele>43.0</ele><time>2026-04-24T10:58:22.836Z</time></trkpt><trkpt lat="40.5514176" lon="9.6894232"><ele>42.5</ele><time>2026-04-24T10:58:24.836Z</time></trkpt><trkpt lat="40.5514812" lon="9.6895609"><ele>42.0</ele><time>2026-04-24T10:58:26.836Z</time></trkpt><trkpt lat="40.5515426" lon="9.6896926"><ele>42.8</ele><time>2026-04-24T10:58:28.836Z</time></trkpt><trkpt lat="40.5516043" lon="9.6898264"><ele>43.6</ele><time>2026-04-24T10:58:30.836Z</time></trkpt><trkpt lat="40.551657" lon="9.689951"><ele>44.4</ele><time>2026-04-24T10:58:32.835Z</time></trkpt><trkpt lat="40.5517095" lon="9.6900649"><ele>45.199999999999996</ele><time>2026-04-24T10:58:34.836Z</time></trkpt><trkpt lat="40.5517526" lon="9.6901737"><ele>46.0</ele><time>2026-04-24T10:58:36.835Z</time></trkpt><trkpt lat="40.5517988" lon="9.6902762"><ele>45.85714285714286</ele><time>2026-04-24T10:58:38.835Z</time></trkpt><trkpt lat="40.5518419" lon="9.690364"><ele>45.71428571428571</ele><time>2026-04-24T10:58:40.836Z</time></trkpt><trkpt lat="40.5518779" lon="9.6904503"><ele>45.57142857142857</ele><time>2026-04-24T10:58:42.835Z</time></trkpt><trkpt lat="40.5519115" lon="9.6905239"><ele>45.42857142857143</ele><time>2026-04-24T10:58:44.837Z</time></trkpt><trkpt lat="40.5519513" lon="9.6905969"><ele>45.28571428571429</ele><time>2026-04-24T10:58:46.795Z</time></trkpt><trkpt lat="40.5520113" lon="9.6906734"><ele>45.14285714285714</ele><time>2026-04-24T10:58:48.835Z</time></trkpt><trkpt lat="40.5520311" lon="9.6907663"><ele>45.0</ele><time>2026-04-24T10:58:50.835Z</time></trkpt><trkpt lat="40.5520562" lon="9.6908562"><ele>45.0</ele><time>2026-04-24T10:58:52.836Z</time></trkpt><trkpt lat="40.552088" lon="9.6909502"><ele>45.0</ele><time>2026-04-24T10:58:54.837Z</time></trkpt><trkpt lat="40.5521232" lon="9.6910475"><ele>45.0</ele><time>2026-04-24T10:58:56.835Z</time></trkpt><trkpt lat="40.5521644" lon="9.691143"><ele>45.0</ele><time>2026-04-24T10:58:58.836Z</time></trkpt><trkpt lat="40.5522062" lon="9.6912434"><ele>45.0</ele><time>2026-04-24T10:59:00.835Z</time></trkpt><trkpt lat="40.5522483" lon="9.6913421"><ele>45.0</ele><time>2026-04-24T10:59:02.835Z</time></trkpt><trkpt lat="40.5522952" lon="9.6914415"><ele>45.0</ele><time>2026-04-24T10:59:04.835Z</time></trkpt><trkpt lat="40.552345" lon="9.6915429"><ele>45.0</ele><time>2026-04-24T10:59:06.835Z</time></trkpt><trkpt lat="40.5523926" lon="9.6916496"><ele>45.0</ele><time>2026-04-24T10:59:08.836Z</time></trkpt><trkpt lat="40.5524426" lon="9.6917562"><ele>45.0</ele><time>2026-04-24T10:59:10.836Z</time></trkpt><trkpt lat="40.552492" lon="9.6918621"><ele>45.0</ele><time>2026-04-24T10:59:12.835Z</time></trkpt><trkpt lat="40.5525402" lon="9.69197"><ele>45.4</ele><time>2026-04-24T10:59:14.836Z</time></trkpt><trkpt lat="40.5525931" lon="9.6920754"><ele>45.8</ele><time>2026-04-24T10:59:16.835Z</time></trkpt><trkpt lat="40.552641" lon="9.6921801"><ele>46.2</ele><time>2026-04-24T10:59:18.835Z</time></trkpt><trkpt lat="40.5526852" lon="9.6922911"><ele>46.6</ele><time>2026-04-24T10:59:20.835Z</time></trkpt><trkpt lat="40.5527286" lon="9.6924022"><ele>47.0</ele><time>2026-04-24T10:59:22.836Z</time></trkpt><trkpt lat="40.5527809" lon="9.6925145"><ele>47.0</ele><time>2026-04-24T10:59:24.836Z</time></trkpt><trkpt lat="40.5528348" lon="9.6926297"><ele>47.0</ele><time>2026-04-24T10:59:26.836Z</time></trkpt><trkpt lat="40.552888" lon="9.69275"><ele>47.0</ele><time>2026-04-24T10:59:28.836Z</time></trkpt><trkpt lat="40.5529391" lon="9.6928668"><ele>47.0</ele><time>2026-04-24T10:59:30.836Z</time></trkpt><trkpt lat="40.5529924" lon="9.6929811"><ele>47.0</ele><time>2026-04-24T10:59:32.835Z</time></trkpt><trkpt lat="40.5530491" lon="9.6930889"><ele>46.0</ele><time>2026-04-24T10:59:34.836Z</time></trkpt><trkpt lat="40.5530908" lon="9.6932032"><ele>45.0</ele><time>2026-04-24T10:59:36.835Z</time></trkpt><trkpt lat="40.5531372" lon="9.6933112"><ele>44.0</ele><time>2026-04-24T10:59:38.836Z</time></trkpt><trkpt lat="40.5531831" lon="9.6934164"><ele>43.0</ele><time>2026-04-24T10:59:40.836Z</time></trkpt><trkpt lat="40.5532276" lon="9.6935182"><ele>42.0</ele><time>2026-04-24T10:59:42.835Z</time></trkpt><trkpt lat="40.5532693" lon="9.6936276"><ele>41.4</ele><time>2026-04-24T10:59:44.836Z</time></trkpt><trkpt lat="40.5533128" lon="9.6937337"><ele>40.800000000000004</ele><time>2026-04-24T10:59:46.836Z</time></trkpt><trkpt lat="40.5533561" lon="9.6938423"><ele>40.2</ele><time>2026-04-24T10:59:48.836Z</time></trkpt><trkpt lat="40.5533989" lon="9.693954"><ele>39.6</ele><time>2026-04-24T10:59:50.836Z</time></trkpt><trkpt lat="40.5534434" lon="9.6940576"><ele>39.0</ele><time>2026-04-24T10:59:52.836Z</time></trkpt><trkpt lat="40.5534905" lon="9.6941599"><ele>39.0</ele><time>2026-04-24T10:59:54.835Z</time></trkpt><trkpt lat="40.5535316" lon="9.6942603"><ele>39.0</ele><time>2026-04-24T10:59:56.836Z</time></trkpt><trkpt lat="40.5535754" lon="9.6943579"><ele>39.0</ele><time>2026-04-24T10:59:58.835Z</time></trkpt><trkpt lat="40.5536235" lon="9.6944482"><ele>39.0</ele><time>2026-04-24T11:00:00.836Z</time></trkpt><trkpt lat="40.5536655" lon="9.6945491"><ele>39.0</ele><time>2026-04-24T11:00:02.836Z</time></trkpt><trkpt lat="40.5537016" lon="9.6946544"><ele>39.0</ele><time>2026-04-24T11:00:04.835Z</time></trkpt><trkpt lat="40.5537397" lon="9.694757"><ele>38.833333333333336</ele><time>2026-04-24T11:00:06.835Z</time></trkpt><trkpt lat="40.5537828" lon="9.6948553"><ele>38.666666666666664</ele><time>2026-04-24T11:00:08.836Z</time></trkpt><trkpt lat="40.5538195" lon="9.6949599"><ele>38.5</ele><time>2026-04-24T11:00:10.836Z</time></trkpt><trkpt lat="40.5538608" lon="9.6950606"><ele>38.33333333333333</ele><time>2026-04-24T11:00:12.835Z</time></trkpt><trkpt lat="40.5539071" lon="9.6951607"><ele>38.166666666666664</ele><time>2026-04-24T11:00:14.835Z</time></trkpt><trkpt lat="40.5539503" lon="9.6952651"><ele>38.0</ele><time>2026-04-24T11:00:16.837Z</time></trkpt><trkpt lat="40.5539905" lon="9.6953698"><ele>38.0</ele><time>2026-04-24T11:00:18.836Z</time></trkpt><trkpt lat="40.5540374" lon="9.6954702"><ele>38.0</ele><time>2026-04-24T11:00:20.836Z</time></trkpt><trkpt lat="40.5540782" lon="9.6955725"><ele>38.0</ele><time>2026-04-24T11:00:22.835Z</time></trkpt><trkpt lat="40.554123" lon="9.695672"><ele>38.0</ele><time>2026-04-24T11:00:24.835Z</time></trkpt><trkpt lat="40.5541725" lon="9.6957707"><ele>38.0</ele><time>2026-04-24T11:00:26.807Z</time></trkpt><trkpt lat="40.554214" lon="9.6958779"><ele>38.0</ele><time>2026-04-24T11:00:28.836Z</time></trkpt><trkpt lat="40.5542534" lon="9.695983"><ele>39.4</ele><time>2026-04-24T11:00:30.836Z</time></trkpt><trkpt lat="40.5542959" lon="9.6960873"><ele>40.8</ele><time>2026-04-24T11:00:32.837Z</time></trkpt><trkpt lat="40.5543361" lon="9.6961913"><ele>42.2</ele><time>2026-04-24T11:00:34.835Z</time></trkpt><trkpt lat="40.5543715" lon="9.6962999"><ele>43.6</ele><time>2026-04-24T11:00:36.835Z</time></trkpt><trkpt lat="40.5544142" lon="9.696408"><ele>45.0</ele><time>2026-04-24T11:00:38.835Z</time></trkpt><trkpt lat="40.5544555" lon="9.6965146"><ele>45.0</ele><time>2026-04-24T11:00:40.835Z</time></trkpt><trkpt lat="40.5545015" lon="9.6966191"><ele>45.0</ele><time>2026-04-24T11:00:42.836Z</time></trkpt><trkpt lat="40.5545459" lon="9.6967267"><ele>45.0</ele><time>2026-04-24T11:00:44.835Z</time></trkpt><trkpt lat="40.5545945" lon="9.6968293"><ele>45.0</ele><time>2026-04-24T11:00:46.836Z</time></trkpt><trkpt lat="40.5546389" lon="9.6969309"><ele>45.0</ele><time>2026-04-24T11:00:48.835Z</time></trkpt><trkpt lat="40.5546857" lon="9.6970321"><ele>43.6</ele><time>2026-04-24T11:00:50.836Z</time></trkpt><trkpt lat="40.5547339" lon="9.6971357"><ele>42.2</ele><time>2026-04-24T11:00:52.835Z</time></trkpt><trkpt lat="40.5547766" lon="9.6972522"><ele>40.8</ele><time>2026-04-24T11:00:54.836Z</time></trkpt><trkpt lat="40.5548292" lon="9.6973635"><ele>39.4</ele><time>2026-04-24T11:00:56.836Z</time></trkpt><trkpt lat="40.5548742" lon="9.6974797"><ele>38.0</ele><time>2026-04-24T11:00:58.835Z</time></trkpt><trkpt lat="40.5549214" lon="9.6976025"><ele>38.0</ele><time>2026-04-24T11:01:00.835Z</time></trkpt><trkpt lat="40.5549718" lon="9.6977224"><ele>38.0</ele><time>2026-04-24T11:01:02.836Z</time></trkpt><trkpt lat="40.5550245" lon="9.6978346"><ele>38.0</ele><time>2026-04-24T11:01:04.836Z</time></trkpt><trkpt lat="40.5550745" lon="9.6979498"><ele>38.0</ele><time>2026-04-24T11:01:06.836Z</time></trkpt><trkpt lat="40.5551247" lon="9.6980676"><ele>38.0</ele><time>2026-04-24T11:01:08.835Z</time></trkpt><trkpt lat="40.5551761" lon="9.6981884"><ele>38.199999999999996</ele><time>2026-04-24T11:01:10.835Z</time></trkpt><trkpt lat="40.5552286" lon="9.6983093"><ele>38.4</ele><time>2026-04-24T11:01:12.835Z</time></trkpt><trkpt lat="40.5552793" lon="9.6984367"><ele>38.599999999999994</ele><time>2026-04-24T11:01:14.835Z</time></trkpt><trkpt lat="40.5553293" lon="9.6985611"><ele>38.8</ele><time>2026-04-24T11:01:16.836Z</time></trkpt><trkpt lat="40.5553803" lon="9.6986854"><ele>39.0</ele><time>2026-04-24T11:01:18.836Z</time></trkpt><trkpt lat="40.555428" lon="9.6988077"><ele>39.0</ele><time>2026-04-24T11:01:20.836Z</time></trkpt><trkpt lat="40.555478" lon="9.6989318"><ele>39.0</ele><time>2026-04-24T11:01:22.835Z</time></trkpt><trkpt lat="40.5555274" lon="9.6990563"><ele>39.0</ele><time>2026-04-24T11:01:24.835Z</time></trkpt><trkpt lat="40.5555768" lon="9.6991778"><ele>39.0</ele><time>2026-04-24T11:01:26.835Z</time></trkpt><trkpt lat="40.5556309" lon="9.6992984"><ele>39.0</ele><time>2026-04-24T11:01:28.835Z</time></trkpt><trkpt lat="40.5556868" lon="9.6994156"><ele>39.8</ele><time>2026-04-24T11:01:30.836Z</time></trkpt><trkpt lat="40.5557419" lon="9.6995286"><ele>40.599999999999994</ele><time>2026-04-24T11:01:32.836Z</time></trkpt><trkpt lat="40.5558008" lon="9.6996482"><ele>41.4</ele><time>2026-04-24T11:01:34.836Z</time></trkpt><trkpt lat="40.5558666" lon="9.6997576"><ele>42.199999999999996</ele><time>2026-04-24T11:01:36.835Z</time></trkpt><trkpt lat="40.5559349" lon="9.6998742"><ele>43.0</ele><time>2026-04-24T11:01:38.836Z</time></trkpt><trkpt lat="40.5560048" lon="9.6999945"><ele>43.0</ele><time>2026-04-24T11:01:40.835Z</time></trkpt><trkpt lat="40.5560775" lon="9.7001183"><ele>43.0</ele><time>2026-04-24T11:01:42.835Z</time></trkpt><trkpt lat="40.5561546" lon="9.700241"><ele>43.0</ele><time>2026-04-24T11:01:44.836Z</time></trkpt><trkpt lat="40.5562344" lon="9.7003666"><ele>43.0</ele><time>2026-04-24T11:01:46.836Z</time></trkpt><trkpt lat="40.5563182" lon="9.7004858"><ele>42.199999999999996</ele><time>2026-04-24T11:01:48.835Z</time></trkpt><trkpt lat="40.5563956" lon="9.7006115"><ele>41.4</ele><time>2026-04-24T11:01:50.836Z</time></trkpt><trkpt lat="40.5564367" lon="9.7006748"><ele>40.599999999999994</ele><time>2026-04-24T11:01:51.835Z</time></trkpt><trkpt lat="40.5564768" lon="9.7007391"><ele>39.8</ele><time>2026-04-24T11:01:52.836Z</time></trkpt><trkpt lat="40.5565534" lon="9.700867"><ele>39.0</ele><time>2026-04-24T11:01:54.835Z</time></trkpt><trkpt lat="40.5566289" lon="9.7009926"><ele>39.833333333333336</ele><time>2026-04-24T11:01:56.836Z</time></trkpt><trkpt lat="40.5567096" lon="9.7011146"><ele>40.666666666666664</ele><time>2026-04-24T11:01:58.835Z</time></trkpt><trkpt lat="40.5567515" lon="9.7011776"><ele>41.5</ele><time>2026-04-24T11:01:59.835Z</time></trkpt><trkpt lat="40.5568306" lon="9.7013046"><ele>42.33333333333333</ele><time>2026-04-24T11:02:01.835Z</time></trkpt><trkpt lat="40.556875" lon="9.7013674"><ele>43.166666666666664</ele><time>2026-04-24T11:02:02.836Z</time></trkpt><trkpt lat="40.5569172" lon="9.7014289"><ele>44.0</ele><time>2026-04-24T11:02:03.835Z</time></trkpt><trkpt lat="40.5569992" lon="9.7015497"><ele>43.5</ele><time>2026-04-24T11:02:05.835Z</time></trkpt><trkpt lat="40.5570775" lon="9.7016747"><ele>43.0</ele><time>2026-04-24T11:02:07.835Z</time></trkpt><trkpt lat="40.5571481" lon="9.701807"><ele>42.5</ele><time>2026-04-24T11:02:09.835Z</time></trkpt><trkpt lat="40.5572291" lon="9.7019308"><ele>42.0</ele><time>2026-04-24T11:02:11.835Z</time></trkpt><trkpt lat="40.557306" lon="9.7020574"><ele>42.0</ele><time>2026-04-24T11:02:13.835Z</time></trkpt><trkpt lat="40.5573898" lon="9.7021773"><ele>42.0</ele><time>2026-04-24T11:02:15.836Z</time></trkpt><trkpt lat="40.5574779" lon="9.702291"><ele>42.0</ele><time>2026-04-24T11:02:17.837Z</time></trkpt><trkpt lat="40.5575663" lon="9.702401"><ele>42.0</ele><time>2026-04-24T11:02:19.835Z</time></trkpt><trkpt lat="40.557655" lon="9.7025069"><ele>42.0</ele><time>2026-04-24T11:02:21.835Z</time></trkpt><trkpt lat="40.5577476" lon="9.7026087"><ele>42.0</ele><time>2026-04-24T11:02:23.836Z</time></trkpt><trkpt lat="40.5578436" lon="9.7027037"><ele>42.0</ele><time>2026-04-24T11:02:25.837Z</time></trkpt><trkpt lat="40.5579438" lon="9.7027916"><ele>42.0</ele><time>2026-04-24T11:02:27.835Z</time></trkpt><trkpt lat="40.5580498" lon="9.7028717"><ele>41.4</ele><time>2026-04-24T11:02:29.835Z</time></trkpt><trkpt lat="40.5581567" lon="9.7029503"><ele>40.800000000000004</ele><time>2026-04-24T11:02:31.835Z</time></trkpt><trkpt lat="40.5582133" lon="9.7029929"><ele>40.2</ele><time>2026-04-24T11:02:32.835Z</time></trkpt><trkpt lat="40.5582692" lon="9.7030328"><ele>39.6</ele><time>2026-04-24T11:02:33.835Z</time></trkpt><trkpt lat="40.5583772" lon="9.7031178"><ele>39.0</ele><time>2026-04-24T11:02:35.836Z</time></trkpt><trkpt lat="40.5584761" lon="9.7032097"><ele>39.0</ele><time>2026-04-24T11:02:37.835Z</time></trkpt><trkpt lat="40.5585785" lon="9.7032955"><ele>39.0</ele><time>2026-04-24T11:02:39.837Z</time></trkpt><trkpt lat="40.5586835" lon="9.7033803"><ele>39.0</ele><time>2026-04-24T11:02:41.836Z</time></trkpt><trkpt lat="40.5587893" lon="9.7034651"><ele>39.0</ele><time>2026-04-24T11:02:43.835Z</time></trkpt><trkpt lat="40.5588915" lon="9.7035515"><ele>38.75</ele><time>2026-04-24T11:02:45.836Z</time></trkpt><trkpt lat="40.5589913" lon="9.7036417"><ele>38.5</ele><time>2026-04-24T11:02:47.836Z</time></trkpt><trkpt lat="40.5590955" lon="9.7037221"><ele>38.25</ele><time>2026-04-24T11:02:49.836Z</time></trkpt><trkpt lat="40.5592041" lon="9.7038047"><ele>38.0</ele><time>2026-04-24T11:02:51.836Z</time></trkpt><trkpt lat="40.5593105" lon="9.7038867"><ele>38.0</ele><time>2026-04-24T11:02:53.836Z</time></trkpt><trkpt lat="40.5594139" lon="9.7039772"><ele>38.0</ele><time>2026-04-24T11:02:55.835Z</time></trkpt><trkpt lat="40.5595156" lon="9.7040558"><ele>38.0</ele><time>2026-04-24T11:02:57.835Z</time></trkpt><trkpt lat="40.559619" lon="9.7041317"><ele>38.0</ele><time>2026-04-24T11:02:59.835Z</time></trkpt><trkpt lat="40.5597167" lon="9.7042131"><ele>39.0</ele><time>2026-04-24T11:03:01.835Z</time></trkpt><trkpt lat="40.5598183" lon="9.7042969"><ele>40.0</ele><time>2026-04-24T11:03:03.835Z</time></trkpt><trkpt lat="40.5599181" lon="9.7043808"><ele>41.0</ele><time>2026-04-24T11:03:05.835Z</time></trkpt><trkpt lat="40.5600202" lon="9.7044616"><ele>42.0</ele><time>2026-04-24T11:03:07.836Z</time></trkpt><trkpt lat="40.5601161" lon="9.7045423"><ele>42.6</ele><time>2026-04-24T11:03:09.835Z</time></trkpt><trkpt lat="40.5602202" lon="9.7046294"><ele>43.2</ele><time>2026-04-24T11:03:11.836Z</time></trkpt><trkpt lat="40.5603224" lon="9.7047232"><ele>43.8</ele><time>2026-04-24T11:03:13.836Z</time></trkpt><trkpt lat="40.5603752" lon="9.7047696"><ele>44.4</ele><time>2026-04-24T11:03:14.836Z</time></trkpt><trkpt lat="40.5604319" lon="9.7048098"><ele>45.0</ele><time>2026-04-24T11:03:15.835Z</time></trkpt><trkpt lat="40.5605349" lon="9.704894"><ele>43.25</ele><time>2026-04-24T11:03:17.835Z</time></trkpt><trkpt lat="40.5606321" lon="9.704986"><ele>41.5</ele><time>2026-04-24T11:03:19.836Z</time></trkpt><trkpt lat="40.5607308" lon="9.7050752"><ele>39.75</ele><time>2026-04-24T11:03:21.835Z</time></trkpt><trkpt lat="40.5608304" lon="9.705156"><ele>38.0</ele><time>2026-04-24T11:03:23.836Z</time></trkpt><trkpt lat="40.5609344" lon="9.7052413"><ele>38.599999999999994</ele><time>2026-04-24T11:03:25.835Z</time></trkpt><trkpt lat="40.5609884" lon="9.7052844"><ele>39.199999999999996</ele><time>2026-04-24T11:03:26.836Z</time></trkpt><trkpt lat="40.561089" lon="9.705382"><ele>39.8</ele><time>2026-04-24T11:03:28.835Z</time></trkpt><trkpt lat="40.5611859" lon="9.7054685"><ele>40.4</ele><time>2026-04-24T11:03:30.835Z</time></trkpt><trkpt lat="40.5612795" lon="9.7055526"><ele>41.0</ele><time>2026-04-24T11:03:32.836Z</time></trkpt><trkpt lat="40.5613756" lon="9.705629"><ele>39.8</ele><time>2026-04-24T11:03:34.836Z</time></trkpt><trkpt lat="40.5614685" lon="9.7056999"><ele>38.599999999999994</ele><time>2026-04-24T11:03:36.835Z</time></trkpt><trkpt lat="40.5615555" lon="9.7057822"><ele>37.4</ele><time>2026-04-24T11:03:38.836Z</time></trkpt><trkpt lat="40.5616423" lon="9.7058535"><ele>36.2</ele><time>2026-04-24T11:03:40.835Z</time></trkpt><trkpt lat="40.56173" lon="9.7059271"><ele>35.0</ele><time>2026-04-24T11:03:42.836Z</time></trkpt><trkpt lat="40.5618162" lon="9.7060006"><ele>35.0</ele><time>2026-04-24T11:03:44.835Z</time></trkpt><trkpt lat="40.5619009" lon="9.7060746"><ele>35.0</ele><time>2026-04-24T11:03:46.836Z</time></trkpt><trkpt lat="40.5619856" lon="9.7061525"><ele>35.0</ele><time>2026-04-24T11:03:48.835Z</time></trkpt><trkpt lat="40.5620735" lon="9.7062284"><ele>35.0</ele><time>2026-04-24T11:03:50.836Z</time></trkpt><trkpt lat="40.5621619" lon="9.7063054"><ele>35.0</ele><time>2026-04-24T11:03:52.835Z</time></trkpt><trkpt lat="40.5622512" lon="9.7063958"><ele>34.75</ele><time>2026-04-24T11:03:54.835Z</time></trkpt><trkpt lat="40.5623514" lon="9.7064794"><ele>34.5</ele><time>2026-04-24T11:03:56.836Z</time></trkpt><trkpt lat="40.5624466" lon="9.706564"><ele>34.25</ele><time>2026-04-24T11:03:58.835Z</time></trkpt><trkpt lat="40.5625417" lon="9.7066441"><ele>34.0</ele><time>2026-04-24T11:04:00.835Z</time></trkpt><trkpt lat="40.5626323" lon="9.7067208"><ele>34.0</ele><time>2026-04-24T11:04:02.836Z</time></trkpt><trkpt lat="40.5627229" lon="9.7067946"><ele>34.0</ele><time>2026-04-24T11:04:04.835Z</time></trkpt><trkpt lat="40.5628118" lon="9.7068715"><ele>34.0</ele><time>2026-04-24T11:04:06.835Z</time></trkpt><trkpt lat="40.5628981" lon="9.7069439"><ele>34.0</ele><time>2026-04-24T11:04:08.836Z</time></trkpt><trkpt lat="40.5629801" lon="9.7070154"><ele>34.0</ele><time>2026-04-24T11:04:10.835Z</time></trkpt><trkpt lat="40.5630587" lon="9.7070834"><ele>33.4</ele><time>2026-04-24T11:04:12.835Z</time></trkpt><trkpt lat="40.563138" lon="9.707146"><ele>32.8</ele><time>2026-04-24T11:04:14.836Z</time></trkpt><trkpt lat="40.5632226" lon="9.7072144"><ele>32.2</ele><time>2026-04-24T11:04:16.835Z</time></trkpt><trkpt lat="40.5633068" lon="9.7072881"><ele>31.6</ele><time>2026-04-24T11:04:18.835Z</time></trkpt><trkpt lat="40.5633878" lon="9.7073638"><ele>31.0</ele><time>2026-04-24T11:04:20.836Z</time></trkpt><trkpt lat="40.5634672" lon="9.7074378"><ele>31.0</ele><time>2026-04-24T11:04:22.836Z</time></trkpt><trkpt lat="40.5635591" lon="9.7075137"><ele>31.0</ele><time>2026-04-24T11:04:24.835Z</time></trkpt><trkpt lat="40.563646" lon="9.7075908"><ele>31.0</ele><time>2026-04-24T11:04:26.836Z</time></trkpt><trkpt lat="40.563731" lon="9.7076684"><ele>31.0</ele><time>2026-04-24T11:04:28.836Z</time></trkpt><trkpt lat="40.563823" lon="9.7077441"><ele>31.0</ele><time>2026-04-24T11:04:30.835Z</time></trkpt><trkpt lat="40.5639098" lon="9.7078216"><ele>30.8</ele><time>2026-04-24T11:04:32.835Z</time></trkpt><trkpt lat="40.564001" lon="9.7079081"><ele>30.6</ele><time>2026-04-24T11:04:34.836Z</time></trkpt><trkpt lat="40.5640916" lon="9.7079866"><ele>30.4</ele><time>2026-04-24T11:04:36.835Z</time></trkpt><trkpt lat="40.5641838" lon="9.7080637"><ele>30.2</ele><time>2026-04-24T11:04:38.835Z</time></trkpt><trkpt lat="40.5642751" lon="9.7081416"><ele>30.0</ele><time>2026-04-24T11:04:40.835Z</time></trkpt><trkpt lat="40.5643643" lon="9.7082222"><ele>30.0</ele><time>2026-04-24T11:04:42.835Z</time></trkpt><trkpt lat="40.5644617" lon="9.7083076"><ele>30.0</ele><time>2026-04-24T11:04:44.836Z</time></trkpt><trkpt lat="40.5645577" lon="9.7083891"><ele>30.0</ele><time>2026-04-24T11:04:46.835Z</time></trkpt><trkpt lat="40.5646572" lon="9.7084672"><ele>30.0</ele><time>2026-04-24T11:04:48.835Z</time></trkpt><trkpt lat="40.5647543" lon="9.7085485"><ele>30.0</ele><time>2026-04-24T11:04:50.836Z</time></trkpt><trkpt lat="40.564849" lon="9.7086348"><ele>30.0</ele><time>2026-04-24T11:04:52.836Z</time></trkpt><trkpt lat="40.56494" lon="9.7087206"><ele>30.0</ele><time>2026-04-24T11:04:54.835Z</time></trkpt><trkpt lat="40.565029" lon="9.7088017"><ele>30.0</ele><time>2026-04-24T11:04:56.835Z</time></trkpt><trkpt lat="40.5651245" lon="9.7088806"><ele>30.0</ele><time>2026-04-24T11:04:58.836Z</time></trkpt><trkpt lat="40.5652143" lon="9.7089601"><ele>30.0</ele><time>2026-04-24T11:05:00.835Z</time></trkpt><trkpt lat="40.5653058" lon="9.7090386"><ele>30.0</ele><time>2026-04-24T11:05:02.835Z</time></trkpt><trkpt lat="40.565391" lon="9.7091131"><ele>30.0</ele><time>2026-04-24T11:05:04.835Z</time></trkpt><trkpt lat="40.5654766" lon="9.70918"><ele>30.0</ele><time>2026-04-24T11:05:06.835Z</time></trkpt><trkpt lat="40.5655671" lon="9.7092221"><ele>30.0</ele><time>2026-04-24T11:05:08.836Z</time></trkpt><trkpt lat="40.5656661" lon="9.7092139"><ele>29.4</ele><time>2026-04-24T11:05:10.836Z</time></trkpt><trkpt lat="40.5657665" lon="9.7091685"><ele>28.8</ele><time>2026-04-24T11:05:12.836Z</time></trkpt><trkpt lat="40.5658758" lon="9.7091434"><ele>28.200000000000003</ele><time>2026-04-24T11:05:14.835Z</time></trkpt><trkpt lat="40.5659828" lon="9.7091223"><ele>27.6</ele><time>2026-04-24T11:05:16.836Z</time></trkpt><trkpt lat="40.5660907" lon="9.7090943"><ele>27.0</ele><time>2026-04-24T11:05:18.836Z</time></trkpt><trkpt lat="40.5661948" lon="9.7090698"><ele>26.6</ele><time>2026-04-24T11:05:20.836Z</time></trkpt><trkpt lat="40.566298" lon="9.7090481"><ele>26.200000000000003</ele><time>2026-04-24T11:05:22.834Z</time></trkpt><trkpt lat="40.5664039" lon="9.7090272"><ele>25.8</ele><time>2026-04-24T11:05:24.835Z</time></trkpt><trkpt lat="40.5665121" lon="9.7090069"><ele>25.4</ele><time>2026-04-24T11:05:26.835Z</time></trkpt><trkpt lat="40.5666254" lon="9.7089741"><ele>25.0</ele><time>2026-04-24T11:05:28.835Z</time></trkpt><trkpt lat="40.5667344" lon="9.7089436"><ele>25.0</ele><time>2026-04-24T11:05:30.835Z</time></trkpt><trkpt lat="40.5668441" lon="9.708905"><ele>25.0</ele><time>2026-04-24T11:05:32.836Z</time></trkpt><trkpt lat="40.5669381" lon="9.708829"><ele>25.0</ele><time>2026-04-24T11:05:34.835Z</time></trkpt><trkpt lat="40.5670055" lon="9.7087186"><ele>25.0</ele><time>2026-04-24T11:05:36.834Z</time></trkpt><trkpt lat="40.5670545" lon="9.7085946"><ele>25.0</ele><time>2026-04-24T11:05:38.836Z</time></trkpt><trkpt lat="40.5670917" lon="9.708462"><ele>25.0</ele><time>2026-04-24T11:05:40.836Z</time></trkpt><trkpt lat="40.5671295" lon="9.7083342"><ele>25.0</ele><time>2026-04-24T11:05:42.835Z</time></trkpt><trkpt lat="40.5671727" lon="9.7082087"><ele>25.0</ele><time>2026-04-24T11:05:44.835Z</time></trkpt><trkpt lat="40.5672206" lon="9.7080877"><ele>25.0</ele><time>2026-04-24T11:05:46.835Z</time></trkpt><trkpt lat="40.5672711" lon="9.7079664"><ele>25.0</ele><time>2026-04-24T11:05:48.836Z</time></trkpt><trkpt lat="40.5673341" lon="9.7078522"><ele>24.6</ele><time>2026-04-24T11:05:50.834Z</time></trkpt><trkpt lat="40.5673959" lon="9.7077415"><ele>24.2</ele><time>2026-04-24T11:05:52.835Z</time></trkpt><trkpt lat="40.5674618" lon="9.7076314"><ele>23.799999999999997</ele><time>2026-04-24T11:05:54.835Z</time></trkpt><trkpt lat="40.567525" lon="9.7075115"><ele>23.4</ele><time>2026-04-24T11:05:56.835Z</time></trkpt><trkpt lat="40.5675693" lon="9.7073851"><ele>23.0</ele><time>2026-04-24T11:05:58.836Z</time></trkpt><trkpt lat="40.5676046" lon="9.7072534"><ele>23.0</ele><time>2026-04-24T11:06:00.836Z</time></trkpt><trkpt lat="40.567643" lon="9.7071234"><ele>23.0</ele><time>2026-04-24T11:06:02.836Z</time></trkpt><trkpt lat="40.5676798" lon="9.7069921"><ele>23.0</ele><time>2026-04-24T11:06:04.835Z</time></trkpt><trkpt lat="40.5677122" lon="9.7068609"><ele>23.0</ele><time>2026-04-24T11:06:06.835Z</time></trkpt><trkpt lat="40.5677458" lon="9.7067324"><ele>23.0</ele><time>2026-04-24T11:06:08.834Z</time></trkpt><trkpt lat="40.5677832" lon="9.7066026"><ele>23.2</ele><time>2026-04-24T11:06:10.834Z</time></trkpt><trkpt lat="40.5678175" lon="9.7064785"><ele>23.4</ele><time>2026-04-24T11:06:12.835Z</time></trkpt><trkpt lat="40.5678548" lon="9.7063593"><ele>23.599999999999998</ele><time>2026-04-24T11:06:14.835Z</time></trkpt><trkpt lat="40.5678974" lon="9.7062412"><ele>23.799999999999997</ele><time>2026-04-24T11:06:16.835Z</time></trkpt><trkpt lat="40.5679489" lon="9.706128"><ele>24.0</ele><time>2026-04-24T11:06:18.835Z</time></trkpt><trkpt lat="40.5680055" lon="9.7060232"><ele>24.4</ele><time>2026-04-24T11:06:20.836Z</time></trkpt><trkpt lat="40.5680648" lon="9.7059183"><ele>24.799999999999997</ele><time>2026-04-24T11:06:22.835Z</time></trkpt><trkpt lat="40.5681303" lon="9.7058218"><ele>25.200000000000003</ele><time>2026-04-24T11:06:24.835Z</time></trkpt><trkpt lat="40.5681931" lon="9.7057192"><ele>25.6</ele><time>2026-04-24T11:06:26.836Z</time></trkpt><trkpt lat="40.5682527" lon="9.7056145"><ele>26.0</ele><time>2026-04-24T11:06:28.836Z</time></trkpt><trkpt lat="40.5683171" lon="9.7055119"><ele>26.0</ele><time>2026-04-24T11:06:30.835Z</time></trkpt><trkpt lat="40.5683975" lon="9.705416"><ele>26.0</ele><time>2026-04-24T11:06:32.835Z</time></trkpt><trkpt lat="40.5684915" lon="9.7053347"><ele>26.0</ele><time>2026-04-24T11:06:34.835Z</time></trkpt><trkpt lat="40.5685933" lon="9.7052525"><ele>26.0</ele><time>2026-04-24T11:06:36.835Z</time></trkpt><trkpt lat="40.568697" lon="9.7051674"><ele>25.499999999999996</ele><time>2026-04-24T11:06:38.836Z</time></trkpt><trkpt lat="40.5687969" lon="9.7050811"><ele>25.0</ele><time>2026-04-24T11:06:40.834Z</time></trkpt><trkpt lat="40.5689009" lon="9.7049927"><ele>24.5</ele><time>2026-04-24T11:06:42.836Z</time></trkpt><trkpt lat="40.568953" lon="9.7049447"><ele>24.0</ele><time>2026-04-24T11:06:43.834Z</time></trkpt><trkpt lat="40.5690057" lon="9.7048984"><ele>23.5</ele><time>2026-04-24T11:06:44.835Z</time></trkpt><trkpt lat="40.5690613" lon="9.7048568"><ele>23.0</ele><time>2026-04-24T11:06:45.835Z</time></trkpt><trkpt lat="40.5691196" lon="9.7048135"><ele>23.0</ele><time>2026-04-24T11:06:46.835Z</time></trkpt><trkpt lat="40.5691768" lon="9.7047736"><ele>23.0</ele><time>2026-04-24T11:06:47.836Z</time></trkpt><trkpt lat="40.5692882" lon="9.7047007"><ele>23.0</ele><time>2026-04-24T11:06:49.835Z</time></trkpt><trkpt lat="40.5693462" lon="9.7046625"><ele>23.0</ele><time>2026-04-24T11:06:50.836Z</time></trkpt><trkpt lat="40.5694036" lon="9.7046186"><ele>23.0</ele><time>2026-04-24T11:06:51.835Z</time></trkpt><trkpt lat="40.5694591" lon="9.7045651"><ele>23.0</ele><time>2026-04-24T11:06:52.835Z</time></trkpt><trkpt lat="40.5695114" lon="9.7045162"><ele>22.833333333333336</ele><time>2026-04-24T11:06:53.835Z</time></trkpt><trkpt lat="40.5696065" lon="9.7044529"><ele>22.666666666666668</ele><time>2026-04-24T11:06:55.835Z</time></trkpt><trkpt lat="40.5696777" lon="9.7044145"><ele>22.5</ele><time>2026-04-24T11:06:57.835Z</time></trkpt><trkpt lat="40.5697296" lon="9.704363"><ele>22.333333333333332</ele><time>2026-04-24T11:06:59.835Z</time></trkpt><trkpt lat="40.5698055" lon="9.7043051"><ele>22.166666666666664</ele><time>2026-04-24T11:07:02.836Z</time></trkpt><trkpt lat="40.5698456" lon="9.7042391"><ele>22.0</ele><time>2026-04-24T11:07:09.835Z</time></trkpt><trkpt lat="40.5698196" lon="9.7041512"><ele>21.8</ele><time>2026-04-24T11:07:12.835Z</time></trkpt><trkpt lat="40.569784" lon="9.7040539"><ele>21.6</ele><time>2026-04-24T11:07:14.834Z</time></trkpt><trkpt lat="40.5697469" lon="9.7039518"><ele>21.400000000000002</ele><time>2026-04-24T11:07:16.836Z</time></trkpt><trkpt lat="40.5697046" lon="9.7038447"><ele>21.200000000000003</ele><time>2026-04-24T11:07:18.834Z</time></trkpt><trkpt lat="40.5696571" lon="9.7037349"><ele>21.0</ele><time>2026-04-24T11:07:20.834Z</time></trkpt><trkpt lat="40.5696053" lon="9.703622"><ele>21.0</ele><time>2026-04-24T11:07:22.836Z</time></trkpt><trkpt lat="40.5695599" lon="9.7035054"><ele>21.0</ele><time>2026-04-24T11:07:24.835Z</time></trkpt><trkpt lat="40.5695159" lon="9.7033866"><ele>21.0</ele><time>2026-04-24T11:07:26.835Z</time></trkpt><trkpt lat="40.569477" lon="9.7032695"><ele>21.0</ele><time>2026-04-24T11:07:28.836Z</time></trkpt><trkpt lat="40.5694453" lon="9.703148"><ele>21.0</ele><time>2026-04-24T11:07:30.835Z</time></trkpt><trkpt lat="40.5694111" lon="9.7030259"><ele>21.0</ele><time>2026-04-24T11:07:32.835Z</time></trkpt><trkpt lat="40.5693922" lon="9.7028983"><ele>21.0</ele><time>2026-04-24T11:07:34.835Z</time></trkpt><trkpt lat="40.5693728" lon="9.702768"><ele>21.0</ele><time>2026-04-24T11:07:36.834Z</time></trkpt><trkpt lat="40.5693543" lon="9.7026376"><ele>21.0</ele><time>2026-04-24T11:07:38.835Z</time></trkpt><trkpt lat="40.569337" lon="9.7025092"><ele>21.0</ele><time>2026-04-24T11:07:40.835Z</time></trkpt><trkpt lat="40.5693205" lon="9.7023741"><ele>19.8</ele><time>2026-04-24T11:07:42.835Z</time></trkpt><trkpt lat="40.5692936" lon="9.7022292"><ele>18.6</ele><time>2026-04-24T11:07:44.836Z</time></trkpt><trkpt lat="40.5692695" lon="9.7020834"><ele>17.4</ele><time>2026-04-24T11:07:46.836Z</time></trkpt><trkpt lat="40.5692444" lon="9.7019422"><ele>16.2</ele><time>2026-04-24T11:07:48.835Z</time></trkpt><trkpt lat="40.5692205" lon="9.7018056"><ele>15.0</ele><time>2026-04-24T11:07:50.835Z</time></trkpt><trkpt lat="40.5692006" lon="9.7016717"><ele>14.8</ele><time>2026-04-24T11:07:52.835Z</time></trkpt><trkpt lat="40.5691819" lon="9.7015278"><ele>14.6</ele><time>2026-04-24T11:07:54.836Z</time></trkpt><trkpt lat="40.5691769" lon="9.701383"><ele>14.399999999999999</ele><time>2026-04-24T11:07:56.836Z</time></trkpt><trkpt lat="40.5691887" lon="9.7012398"><ele>14.2</ele><time>2026-04-24T11:07:58.834Z</time></trkpt><trkpt lat="40.5692175" lon="9.7011087"><ele>14.0</ele><time>2026-04-24T11:08:00.834Z</time></trkpt><trkpt lat="40.569269" lon="9.7009943"><ele>14.399999999999999</ele><time>2026-04-24T11:08:02.835Z</time></trkpt><trkpt lat="40.5693251" lon="9.7008833"><ele>14.799999999999999</ele><time>2026-04-24T11:08:04.835Z</time></trkpt><trkpt lat="40.5693763" lon="9.7007759"><ele>15.200000000000001</ele><time>2026-04-24T11:08:06.835Z</time></trkpt><trkpt lat="40.5694322" lon="9.7006679"><ele>15.600000000000001</ele><time>2026-04-24T11:08:08.835Z</time></trkpt><trkpt lat="40.5694886" lon="9.7005606"><ele>16.0</ele><time>2026-04-24T11:08:10.834Z</time></trkpt><trkpt lat="40.5695433" lon="9.70045"><ele>16.0</ele><time>2026-04-24T11:08:12.835Z</time></trkpt><trkpt lat="40.5696005" lon="9.7003421"><ele>16.0</ele><time>2026-04-24T11:08:14.835Z</time></trkpt><trkpt lat="40.569658" lon="9.7002271"><ele>16.0</ele><time>2026-04-24T11:08:16.835Z</time></trkpt><trkpt lat="40.5697156" lon="9.7001106"><ele>16.0</ele><time>2026-04-24T11:08:18.836Z</time></trkpt><trkpt lat="40.5697746" lon="9.7000017"><ele>16.0</ele><time>2026-04-24T11:08:20.835Z</time></trkpt><trkpt lat="40.5698363" lon="9.6998958"><ele>16.6</ele><time>2026-04-24T11:08:22.835Z</time></trkpt><trkpt lat="40.569893" lon="9.6997805"><ele>17.200000000000003</ele><time>2026-04-24T11:08:24.835Z</time></trkpt><trkpt lat="40.5699472" lon="9.6996774"><ele>17.799999999999997</ele><time>2026-04-24T11:08:26.834Z</time></trkpt><trkpt lat="40.5700126" lon="9.6995731"><ele>18.4</ele><time>2026-04-24T11:08:28.834Z</time></trkpt><trkpt lat="40.5700643" lon="9.6994541"><ele>19.0</ele><time>2026-04-24T11:08:30.836Z</time></trkpt><trkpt lat="40.5701147" lon="9.6993426"><ele>19.2</ele><time>2026-04-24T11:08:32.836Z</time></trkpt><trkpt lat="40.570176" lon="9.6992196"><ele>19.4</ele><time>2026-04-24T11:08:34.836Z</time></trkpt><trkpt lat="40.5702407" lon="9.6990915"><ele>19.6</ele><time>2026-04-24T11:08:36.834Z</time></trkpt><trkpt lat="40.5703013" lon="9.6989754"><ele>19.8</ele><time>2026-04-24T11:08:38.836Z</time></trkpt><trkpt lat="40.5703556" lon="9.6988596"><ele>20.0</ele><time>2026-04-24T11:08:40.835Z</time></trkpt><trkpt lat="40.570411" lon="9.6987415"><ele>20.2</ele><time>2026-04-24T11:08:42.835Z</time></trkpt><trkpt lat="40.5704759" lon="9.6986282"><ele>20.4</ele><time>2026-04-24T11:08:44.835Z</time></trkpt><trkpt lat="40.5705324" lon="9.6985071"><ele>20.6</ele><time>2026-04-24T11:08:46.835Z</time></trkpt><trkpt lat="40.5705828" lon="9.6983849"><ele>20.8</ele><time>2026-04-24T11:08:48.835Z</time></trkpt><trkpt lat="40.5706415" lon="9.6982746"><ele>21.0</ele><time>2026-04-24T11:08:50.834Z</time></trkpt><trkpt lat="40.5706942" lon="9.6981666"><ele>21.8</ele><time>2026-04-24T11:08:52.834Z</time></trkpt><trkpt lat="40.5707365" lon="9.6980604"><ele>22.6</ele><time>2026-04-24T11:08:54.835Z</time></trkpt><trkpt lat="40.5707836" lon="9.6979557"><ele>23.4</ele><time>2026-04-24T11:08:56.834Z</time></trkpt><trkpt lat="40.5708372" lon="9.6978574"><ele>24.2</ele><time>2026-04-24T11:08:58.835Z</time></trkpt><trkpt lat="40.5708879" lon="9.6977529"><ele>25.0</ele><time>2026-04-24T11:09:00.835Z</time></trkpt><trkpt lat="40.5709384" lon="9.6976687"><ele>25.6</ele><time>2026-04-24T11:09:02.836Z</time></trkpt><trkpt lat="40.5710002" lon="9.6975721"><ele>26.2</ele><time>2026-04-24T11:09:04.834Z</time></trkpt><trkpt lat="40.5710559" lon="9.6974701"><ele>26.799999999999997</ele><time>2026-04-24T11:09:06.835Z</time></trkpt><trkpt lat="40.5711114" lon="9.6973704"><ele>27.4</ele><time>2026-04-24T11:09:08.834Z</time></trkpt><trkpt lat="40.5711587" lon="9.6972739"><ele>28.0</ele><time>2026-04-24T11:09:10.836Z</time></trkpt><trkpt lat="40.5712083" lon="9.6971932"><ele>31.0</ele><time>2026-04-24T11:09:12.836Z</time></trkpt><trkpt lat="40.5712232" lon="9.6971117"><ele>31.0</ele><time>2026-04-24T11:09:14.834Z</time></trkpt><trkpt lat="40.5711719" lon="9.697052"><ele>28.0</ele><time>2026-04-24T11:09:18.835Z</time></trkpt></trkseg></trk></gpx>